[[{"header":{"parameterUnit":"m.s-1","parameterCategory":1,"la1":31.0,"la2":29.5877,"lo1":-88.7671,"lo2":-86.6584,"dy":0.0162,"dx":0.0185,"nx":115,"ny":88,"refTime":"2024-05-29T00:00:00:Z","depth":0,"parameterNumber":2,"parameterNumberName":"U-component_of_WINDS"},"data":[0.0,0.0,0.0,0.0,0.0,0.0,0.0,0.0,0.0,0.0,0.0,0.0,0.0,0.0,0.0,0.0,0.0,0.0,0.0,0.0,0.0,0.0,0.0,0.0,0.0,0.0,0.0,0.0,0.0,0.0,0.0,0.0,0.0,0.0,0.0,0.0,0.0,0.0,0.0,0.0,0.0,0.0,0.0,0.0,0.0,0.0,0.0,0.0,0.0,0.0,0.0,0.0,0.0,0.0,0.0,0.0,0.0,0.0,0.0,0.0,0.0,0.0,0.0,0.0,0.0,0.0,0.0,0.0,0.0,0.0,0.0,0.0,0.0,0.0,0.0,0.0,0.0,0.0,0.0,0.0,0.0,0.0,0.0,0.0,0.0,0.0,0.0,0.0,0.0,0.0,0.0,0.0,0.0,0.0,0.0,0.0,0.0,0.0,0.0,0.0,0.0,0.0,0.0,0.0,0.0,0.0,0.0,0.0,0.0,0.0,0.0,0.0,0.0,0.0,0.0,0.0,0.0,0.0,0.0,0.0,0.0,0.0,0.0,0.0,0.0,0.0,0.0,0.0,0.0,0.0,0.0,0.0,0.0,0.0,0.0,0.0,0.0,0.0,0.0,0.0,0.0,0.0,0.0,0.0,0.0,0.0,0.0,0.0,0.0,0.0,0.0,0.0,0.0,0.0,0.0,0.0,0.0,0.0,0.0,0.0,0.0,0.0,0.0,0.0,0.0,0.0,0.0,0.0,0.0,0.0,0.0,0.0,0.0,0.0,0.0,0.0,0.0,0.0,0.0,0.0,0.0,0.0,0.0,0.0,0.0,0.0,0.0,0.0,0.0,0.0,0.0,0.0,0.0,0.0,0.0,0.0,0.0,0.0,0.0,0.0,0.0,0.0,0.0,0.0,0.0,0.0,0.0,0.0,0.0,0.0,0.0,0.0,0.0,0.0,0.0,0.0,0.0,0.0,0.0,0.0,0.0,0.0,0.0,0.0,0.0,0.0,0.0,0.0,0.0,0.0,0.0,0.0,0.0,0.0,0.0,0.0,0.0,0.0,0.0,0.0,0.0,0.0,0.0,0.0,0.0,0.0,0.0,0.0,0.0,0.0,0.0,0.0,0.0,0.0,0.0,0.0,0.0,0.0,0.0,0.0,0.0,0.0,0.0,0.0,0.0,0.0,0.0,0.0,0.0,0.0,0.0,0.0,0.0,0.0,0.0,0.0,0.0,0.0,0.0,0.0,0.0,0.0,0.0,0.0,0.0,0.0,0.0,0.0,0.0,0.0,0.0,0.0,0.0,0.0,0.0,0.0,0.0,0.0,0.0,0.0,0.0,0.0,0.0,0.0,0.0,0.0,0.0,0.0,0.0,0.0,0.0,0.0,0.0,0.0,0.0,0.0,0.0,0.0,0.0,0.0,0.0,0.0,0.0,0.0,0.0,0.0,0.0,0.0,0.0,0.0,0.0,0.0,0.0,0.0,0.0,0.0,0.0,0.0,0.0,0.0,0.0,0.0,0.0,0.0,0.0,0.0,0.0,0.0,0.0,0.0,0.0,0.0,0.0,0.0,0.0,0.0,0.0,0.0,0.0,0.0,0.0,0.0,0.0,0.0,0.0,0.0,0.0,0.0,0.0,0.0,0.0,0.0,0.0,0.0,0.0,0.0,0.0,0.0,0.0,0.0,0.0,0.0,0.0,0.0,0.0,0.0,0.0,0.0,0.0,0.0,0.0,0.0,0.0,0.0,0.0,0.0,0.0,0.0,0.0,0.0,0.0,0.0,0.0,0.0,0.0,0.0,0.0,0.0,0.0,0.0,0.0,0.0,0.0,0.0,0.0,0.0,0.0,0.0,0.0,0.0,0.0,0.0,0.0,0.0,0.0,0.0,0.0,0.0,0.0,0.0,0.0,0.0,0.0,0.0,0.0,0.0,0.0,0.0,0.0,0.0,0.0,0.0,0.0,0.0,0.0,0.0,0.0,0.0,0.0,0.0,0.0,0.0,0.0,0.0,0.0,0.0,0.0,0.0,0.0,0.0,0.0,0.0,0.0,0.0,0.0,0.0,0.0,0.0,0.0,0.0,0.0,0.0,0.0,0.0,0.0,0.0,0.0,0.0,0.0,0.0,0.0,0.0,0.0,0.0,0.0,0.0,0.0,0.0,0.0,0.0,0.0,0.0,0.0,0.0,0.0,0.0,0.0,0.0,0.0,0.0,0.0,0.0,0.0,0.0,0.0,0.0,0.0,0.0,0.0,0.0,0.0,0.0,0.0,0.0,0.0,0.0,0.0,0.0,0.0,0.0,0.0,0.0,0.0,0.0,0.0,0.0,0.0,0.0,0.0,0.0,0.0,0.0,0.0,0.0,0.0,0.0,0.0,0.0,0.0,0.0,0.0,0.0,0.0,0.0,0.0,0.0,0.0,0.0,0.0,0.0,0.0,0.0,0.0,0.0,0.0,0.0,0.0,0.0,0.0,0.0,0.0,0.0,0.0,0.0,0.0,0.0,0.0,0.0,0.0,0.0,0.0,0.0,0.0,0.0,0.0,0.0,0.0,0.0,0.0,0.0,0.0,0.0,0.0,0.0,0.0,0.0,0.0,0.0,0.0,0.0,0.0,0.0,0.0,0.0,0.0,0.0,0.0,0.0,0.0,0.0,0.0,0.0,0.0,0.0,0.0,0.0,0.0,0.0,0.0,0.0,0.0,0.0,0.0,0.0,0.0,0.0,0.0,0.0,0.0,0.0,0.0,0.0,0.0,0.0,0.0,0.0,0.0,0.0,0.0,0.0,0.0,0.0,0.0,0.0,0.0,0.0,0.0,0.0,0.0,0.0,0.0,0.0,0.0,0.0,0.0,0.0,0.0,0.0,0.0,0.0,0.0,0.0,0.0,0.0,0.0,0.0,0.0,0.0,0.0,0.0,0.0,0.0,0.0,0.0,0.0,0.0,0.0,0.0,0.0,0.0,0.0,0.0,0.0,0.0,0.0,0.0,0.0,0.0,0.0,0.0,0.0,0.0,0.0,0.0,0.0,0.0,0.0,0.0,0.0,0.0,0.0,0.0,0.0,0.0,0.0,0.0,0.0,0.0,0.0,0.0,0.0,0.0,0.0,0.0,0.0,0.0,0.0,0.0,0.0,0.0,0.0,0.0,0.0,0.0,0.0,0.0,0.0,0.0,0.0,0.0,0.0,0.0,0.0,0.0,0.0,0.0,0.0,0.0,0.0,0.0,0.0,0.0,0.0,0.0,0.0,0.0,0.0,0.0,0.0,0.0,0.0,0.0,0.0,0.0,0.0,0.0,0.0,0.0,0.0,0.0,0.0,0.0,0.0,0.0,0.0,0.0,0.0,0.0,0.0,0.0,0.0,0.0,0.0,0.0,0.0,0.0,0.0,0.0,0.0,0.0,0.0,0.0,0.0,0.0,0.0,0.0,0.0,0.0,0.0,0.0,0.0,0.0,0.0,0.0,0.0,0.0,0.0,0.0,0.0,0.0,0.0,0.0,0.0,0.0,0.0,0.0,0.0,0.0,0.0,0.0,0.0,0.0,0.0,0.0,0.0,0.0,0.0,0.0,0.0,0.0,0.0,0.0,0.0,0.0,0.0,0.0,0.0,0.0,0.0,0.0,0.0,0.0,0.0,0.0,0.0,0.0,0.0,0.0,0.0,0.0,0.0,0.0,0.0,0.0,0.0,0.0,0.0,0.0,0.0,0.0,0.0,0.0,0.0,0.0,0.0,0.0,0.0,0.0,0.0,0.0,0.0,0.0,0.0,0.0,0.0,0.0,0.0,0.0,0.0,0.0,0.0,0.0,0.0,0.0,0.0,0.0,0.0,0.0,0.0,0.0,0.0,0.0,0.0,0.0,0.0,0.0,0.0,0.0,0.0,0.0,0.0,0.0,0.0,0.0,0.0,0.0,0.0,0.0,0.0,0.0,0.0,0.0,0.0,0.0,0.0,0.0,0.0,0.0,0.0,0.0,0.0,0.0,0.0,0.0,0.0,0.0,0.0,0.0,0.0,0.0,0.0,0.0,0.0,0.0,0.0,0.0,0.0,0.0,0.0,0.0,0.0,0.0,0.0,0.0,0.0,0.0,0.0,0.0,0.0,0.0,0.0,0.0,0.0,0.0,0.0,0.0,0.0,0.0,0.0,0.0,0.0,0.0,0.0,0.0,0.0,0.0,0.0,0.0,0.0,0.0,0.0,0.0,0.0,0.0,0.0,0.0,0.0,0.0,0.0,0.0,0.0,0.0,0.0,0.0,0.0,0.0,-2.662,0.0,0.0,0.0,0.0,0.0,0.0,0.0,0.0,0.0,0.0,0.0,0.0,0.0,0.0,0.0,0.0,0.0,0.0,0.0,0.0,0.0,0.0,0.0,0.0,0.0,0.0,0.0,0.0,0.0,0.0,0.0,0.0,0.0,0.0,0.0,0.0,0.0,0.0,0.0,0.0,0.0,0.0,0.0,0.0,0.0,0.0,0.0,0.0,0.0,0.0,0.0,0.0,0.0,0.0,0.0,0.0,0.0,0.0,0.0,0.0,0.0,0.0,0.0,0.0,0.0,0.0,0.0,0.0,0.0,0.0,0.0,0.0,0.0,0.0,0.0,0.0,0.0,0.0,0.0,0.0,0.0,0.0,0.0,0.0,0.0,0.0,0.0,0.0,0.0,0.0,0.0,0.0,0.0,0.0,0.0,0.0,0.0,0.0,0.0,0.0,0.0,0.0,0.0,0.0,0.0,0.0,0.0,0.0,0.0,0.0,-2.8987,-2.8987,-2.8638,-2.7879,-2.6638,0.0,0.0,0.0,0.0,0.0,0.0,0.0,0.0,0.0,0.0,0.0,0.0,0.0,0.0,0.0,0.0,0.0,0.0,0.0,0.0,0.0,0.0,0.0,0.0,0.0,0.0,0.0,0.0,0.0,0.0,0.0,0.0,0.0,0.0,0.0,0.0,0.0,0.0,0.0,0.0,0.0,0.0,0.0,0.0,0.0,0.0,0.0,0.0,0.0,0.0,0.0,0.0,0.0,0.0,0.0,0.0,0.0,0.0,0.0,0.0,0.0,0.0,0.0,0.0,0.0,0.0,0.0,0.0,0.0,0.0,0.0,0.0,0.0,0.0,0.0,0.0,0.0,0.0,0.0,0.0,0.0,0.0,0.0,0.0,0.0,0.0,0.0,0.0,0.0,0.0,0.0,0.0,0.0,0.0,0.0,0.0,0.0,0.0,0.0,0.0,0.0,0.0,0.0,0.0,0.0,0.0,0.0,0.0,0.0,0.0,0.0,0.0,-2.9812,-2.9078,-2.7464,0.0,0.0,0.0,0.0,0.0,0.0,0.0,0.0,0.0,0.0,0.0,0.0,0.0,0.0,0.0,0.0,0.0,0.0,0.0,0.0,0.0,0.0,0.0,0.0,0.0,0.0,0.0,0.0,0.0,0.0,0.0,0.0,0.0,0.0,0.0,0.0,0.0,0.0,0.0,0.0,0.0,0.0,0.0,0.0,0.0,0.0,0.0,0.0,0.0,0.0,0.0,0.0,0.0,0.0,0.0,0.0,0.0,0.0,0.0,0.0,0.0,0.0,0.0,0.0,0.0,0.0,0.0,0.0,0.0,0.0,0.0,0.0,0.0,0.0,0.0,0.0,0.0,0.0,0.0,0.0,0.0,0.0,0.0,0.0,0.0,0.0,0.0,0.0,0.0,0.0,0.0,0.0,0.0,0.0,0.0,0.0,0.0,0.0,0.0,0.0,0.0,0.0,0.0,0.0,0.0,0.0,0.0,0.0,0.0,0.0,-3.0032,-3.2179,-3.2234,0.0,-2.9934,0.0,0.0,0.0,0.0,0.0,0.0,0.0,0.0,0.0,0.0,0.0,0.0,0.0,0.0,0.0,0.0,0.0,0.0,0.0,0.0,0.0,0.0,0.0,0.0,0.0,0.0,0.0,0.0,0.0,0.0,0.0,0.0,0.0,0.0,0.0,0.0,0.0,0.0,0.0,0.0,0.0,0.0,0.0,0.0,0.0,0.0,0.0,0.0,0.0,0.0,0.0,0.0,0.0,0.0,0.0,0.0,0.0,0.0,0.0,0.0,0.0,0.0,0.0,0.0,0.0,0.0,0.0,0.0,0.0,0.0,0.0,0.0,0.0,0.0,0.0,0.0,0.0,0.0,0.0,0.0,0.0,0.0,0.0,0.0,0.0,0.0,0.0,0.0,0.0,0.0,0.0,0.0,0.0,0.0,0.0,0.0,0.0,0.0,0.0,0.0,0.0,0.0,0.0,0.0,0.0,0.0,0.0,0.0,0.0,0.0,-3.1592,-3.2583,-3.1665,-3.0876,0.0,0.0,0.0,0.0,0.0,0.0,0.0,0.0,0.0,0.0,0.0,0.0,0.0,0.0,0.0,0.0,0.0,0.0,0.0,0.0,0.0,0.0,0.0,0.0,0.0,0.0,0.0,0.0,0.0,0.0,0.0,0.0,0.0,0.0,0.0,0.0,0.0,0.0,0.0,0.0,0.0,0.0,0.0,0.0,0.0,0.0,0.0,0.0,0.0,0.0,0.0,0.0,0.0,0.0,0.0,0.0,0.0,0.0,0.0,0.0,0.0,0.0,0.0,0.0,0.0,0.0,0.0,0.0,0.0,0.0,0.0,0.0,0.0,0.0,0.0,0.0,0.0,0.0,0.0,0.0,0.0,0.0,0.0,0.0,0.0,0.0,0.0,0.0,0.0,0.0,0.0,0.0,0.0,0.0,0.0,0.0,0.0,0.0,0.0,0.0,0.0,0.0,0.0,0.0,0.0,0.0,0.0,0.0,0.0,0.0,-3.1818,0.0,-3.3156,-3.1809,-3.0692,-2.9886,0.0,0.0,0.0,0.0,0.0,0.0,0.0,0.0,0.0,0.0,0.0,0.0,0.0,0.0,0.0,0.0,0.0,0.0,0.0,0.0,0.0,0.0,0.0,0.0,0.0,0.0,0.0,0.0,0.0,0.0,0.0,0.0,0.0,0.0,0.0,0.0,0.0,0.0,0.0,0.0,0.0,0.0,0.0,0.0,0.0,0.0,0.0,0.0,0.0,0.0,0.0,0.0,0.0,0.0,0.0,0.0,0.0,0.0,0.0,0.0,0.0,0.0,0.0,0.0,0.0,0.0,0.0,0.0,0.0,0.0,0.0,0.0,0.0,0.0,0.0,0.0,0.0,0.0,0.0,0.0,0.0,0.0,0.0,0.0,0.0,0.0,0.0,0.0,0.0,0.0,0.0,0.0,0.0,0.0,0.0,0.0,0.0,0.0,0.0,0.0,0.0,0.0,0.0,0.0,0.0,0.0,0.0,0.0,0.0,-3.2921,-3.2997,-3.4797,-3.3753,-3.1869,0.0,0.0,0.0,0.0,0.0,0.0,0.0,0.0,0.0,0.0,0.0,0.0,0.0,0.0,0.0,0.0,0.0,0.0,0.0,0.0,0.0,0.0,0.0,0.0,0.0,0.0,0.0,0.0,0.0,0.0,0.0,0.0,0.0,0.0,0.0,0.0,0.0,0.0,0.0,0.0,0.0,0.0,0.0,0.0,0.0,0.0,0.0,0.0,0.0,0.0,0.0,0.0,0.0,0.0,0.0,0.0,0.0,0.0,0.0,0.0,0.0,0.0,0.0,0.0,0.0,0.0,0.0,0.0,0.0,0.0,0.0,0.0,0.0,0.0,0.0,0.0,0.0,0.0,0.0,0.0,0.0,0.0,0.0,0.0,0.0,0.0,0.0,0.0,0.0,0.0,0.0,0.0,0.0,0.0,0.0,0.0,0.0,0.0,0.0,0.0,0.0,0.0,0.0,0.0,0.0,0.0,0.0,0.0,0.0,-3.0632,-3.1366,-3.3257,-3.619,-3.2732,-3.0725,0.0,0.0,0.0,0.0,0.0,0.0,0.0,0.0,0.0,0.0,0.0,0.0,0.0,0.0,0.0,0.0,0.0,0.0,0.0,0.0,0.0,0.0,0.0,0.0,0.0,0.0,0.0,0.0,0.0,0.0,0.0,0.0,0.0,0.0,0.0,0.0,0.0,0.0,0.0,0.0,0.0,0.0,0.0,0.0,0.0,0.0,0.0,0.0,0.0,0.0,0.0,0.0,0.0,0.0,0.0,0.0,0.0,0.0,0.0,0.0,0.0,0.0,0.0,0.0,0.0,0.0,0.0,0.0,0.0,0.0,0.0,0.0,0.0,0.0,0.0,0.0,0.0,0.0,0.0,0.0,0.0,0.0,0.0,0.0,0.0,0.0,0.0,0.0,0.0,0.0,0.0,0.0,0.0,0.0,0.0,0.0,0.0,0.0,0.0,0.0,0.0,0.0,0.0,0.0,0.0,0.0,0.0,0.0,0.0,-2.9932,0.0,-3.3899,0.0,-3.1969,-2.9639,0.0,0.0,0.0,0.0,0.0,0.0,0.0,0.0,0.0,0.0,0.0,0.0,0.0,0.0,0.0,0.0,0.0,0.0,0.0,0.0,0.0,0.0,0.0,0.0,0.0,0.0,0.0,0.0,0.0,0.0,0.0,0.0,0.0,0.0,0.0,0.0,0.0,0.0,0.0,0.0,0.0,0.0,0.0,0.0,0.0,0.0,0.0,0.0,0.0,0.0,0.0,0.0,0.0,0.0,0.0,0.0,0.0,0.0,0.0,0.0,0.0,0.0,0.0,0.0,0.0,0.0,0.0,0.0,0.0,0.0,0.0,0.0,0.0,0.0,0.0,0.0,0.0,0.0,0.0,0.0,0.0,0.0,0.0,0.0,0.0,0.0,0.0,0.0,0.0,0.0,0.0,0.0,0.0,0.0,0.0,0.0,0.0,0.0,0.0,0.0,0.0,0.0,0.0,0.0,0.0,0.0,0.0,0.0,-2.8134,-3.2856,-3.4579,-3.4792,-3.3635,-3.1689,-2.8738,0.0,0.0,0.0,0.0,0.0,0.0,0.0,0.0,0.0,0.0,0.0,0.0,0.0,0.0,0.0,0.0,0.0,0.0,0.0,0.0,0.0,0.0,0.0,0.0,0.0,0.0,0.0,0.0,0.0,0.0,0.0,0.0,0.0,0.0,0.0,0.0,0.0,0.0,0.0,0.0,0.0,0.0,0.0,0.0,0.0,0.0,0.0,0.0,0.0,0.0,0.0,0.0,0.0,0.0,0.0,0.0,0.0,0.0,0.0,0.0,0.0,0.0,0.0,0.0,0.0,0.0,0.0,0.0,0.0,0.0,0.0,0.0,0.0,0.0,0.0,0.0,0.0,0.0,0.0,0.0,0.0,0.0,0.0,0.0,0.0,0.0,0.0,0.0,0.0,0.0,0.0,0.0,0.0,0.0,0.0,0.0,0.0,0.0,0.0,0.0,0.0,0.0,0.0,0.0,0.0,0.0,0.0,0.0,0.0,-3.0664,-3.2417,-3.3624,-3.4065,-3.0154,-2.815,0.0,0.0,0.0,0.0,0.0,0.0,0.0,0.0,0.0,0.0,0.0,0.0,0.0,0.0,0.0,0.0,0.0,0.0,0.0,0.0,0.0,0.0,0.0,0.0,0.0,0.0,0.0,0.0,0.0,0.0,0.0,0.0,0.0,0.0,0.0,0.0,0.0,0.0,0.0,0.0,0.0,0.0,0.0,0.0,0.0,0.0,0.0,0.0,0.0,0.0,0.0,0.0,0.0,0.0,0.0,0.0,0.0,0.0,0.0,0.0,0.0,0.0,0.0,0.0,0.0,0.0,0.0,0.0,0.0,0.0,0.0,0.0,0.0,0.0,0.0,0.0,0.0,0.0,0.0,0.0,0.0,0.0,0.0,0.0,0.0,0.0,0.0,0.0,0.0,0.0,0.0,0.0,0.0,0.0,0.0,0.0,0.0,0.0,0.0,0.0,0.0,0.0,0.0,0.0,0.0,0.0,0.0,0.0,0.0,-3.1473,-3.3603,-3.4827,-3.4912,-3.0666,-2.8592,-2.8973,0.0,0.0,0.0,0.0,0.0,0.0,0.0,0.0,0.0,0.0,0.0,0.0,0.0,0.0,0.0,0.0,0.0,0.0,0.0,0.0,0.0,0.0,0.0,0.0,0.0,0.0,0.0,0.0,0.0,0.0,0.0,0.0,0.0,0.0,0.0,0.0,0.0,0.0,0.0,0.0,0.0,0.0,0.0,0.0,0.0,0.0,0.0,0.0,0.0,0.0,0.0,0.0,0.0,0.0,0.0,0.0,0.0,0.0,0.0,0.0,0.0,0.0,0.0,0.0,0.0,0.0,0.0,0.0,0.0,0.0,0.0,0.0,0.0,0.0,0.0,0.0,0.0,0.0,0.0,0.0,0.0,0.0,0.0,0.0,0.0,0.0,0.0,0.0,0.0,0.0,0.0,0.0,0.0,0.0,0.0,0.0,0.0,0.0,0.0,0.0,0.0,0.0,0.0,0.0,0.0,0.0,0.0,0.0,-3.4539,-3.7499,-3.7973,-3.5836,-3.2797,-2.9854,0.0,0.0,0.0,0.0,0.0,0.0,0.0,0.0,0.0,0.0,0.0,0.0,0.0,0.0,0.0,0.0,0.0,0.0,0.0,0.0,0.0,0.0,0.0,0.0,0.0,0.0,0.0,0.0,0.0,0.0,0.0,0.0,0.0,0.0,0.0,0.0,0.0,0.0,0.0,0.0,0.0,0.0,0.0,0.0,0.0,0.0,0.0,0.0,0.0,0.0,0.0,0.0,0.0,0.0,0.0,0.0,0.0,0.0,0.0,0.0,0.0,0.0,0.0,0.0,0.0,0.0,0.0,0.0,0.0,0.0,0.0,0.0,0.0,0.0,0.0,0.0,0.0,0.0,0.0,0.0,0.0,0.0,0.0,0.0,0.0,0.0,0.0,0.0,0.0,0.0,0.0,0.0,0.0,0.0,0.0,0.0,0.0,0.0,0.0,0.0,0.0,0.0,0.0,0.0,0.0,0.0,0.0,0.0,0.0,-3.5368,-3.8261,-3.9283,-3.8041,-3.3609,-3.0835,0.0,0.0,0.0,0.0,0.0,0.0,0.0,0.0,0.0,0.0,0.0,0.0,0.0,0.0,0.0,0.0,0.0,0.0,0.0,0.0,0.0,0.0,0.0,0.0,0.0,0.0,0.0,0.0,0.0,0.0,0.0,0.0,0.0,0.0,0.0,0.0,0.0,0.0,0.0,0.0,0.0,0.0,0.0,0.0,0.0,0.0,0.0,0.0,0.0,0.0,0.0,0.0,0.0,0.0,0.0,0.0,0.0,0.0,0.0,0.0,0.0,0.0,0.0,0.0,0.0,0.0,0.0,0.0,0.0,0.0,0.0,0.0,0.0,0.0,0.0,0.0,0.0,0.0,0.0,0.0,0.0,0.0,0.0,0.0,0.0,0.0,0.0,0.0,0.0,0.0,0.0,0.0,0.0,0.0,0.0,0.0,0.0,0.0,0.0,0.0,0.0,0.0,0.0,0.0,0.0,0.0,0.0,0.0,-3.4873,-3.6992,-3.9039,-3.991,-3.9486,-3.5622,-3.2818,0.0,0.0,0.0,0.0,0.0,0.0,0.0,0.0,0.0,0.0,0.0,0.0,0.0,0.0,0.0,0.0,0.0,0.0,0.0,0.0,0.0,0.0,0.0,0.0,0.0,0.0,0.0,0.0,0.0,0.0,0.0,0.0,0.0,0.0,0.0,0.0,0.0,0.0,0.0,0.0,0.0,0.0,0.0,0.0,0.0,0.0,0.0,0.0,0.0,0.0,0.0,0.0,0.0,0.0,0.0,0.0,0.0,0.0,0.0,0.0,0.0,0.0,0.0,0.0,0.0,0.0,0.0,0.0,0.0,0.0,0.0,0.0,0.0,0.0,0.0,0.0,0.0,0.0,0.0,0.0,0.0,0.0,0.0,0.0,0.0,0.0,0.0,0.0,0.0,0.0,0.0,0.0,0.0,0.0,0.0,0.0,0.0,0.0,0.0,0.0,0.0,0.0,0.0,0.0,0.0,0.0,0.0,0.0,-3.591,-3.8802,-3.969,-4.0113,-4.0028,-3.7879,-3.5018,0.0,0.0,0.0,0.0,0.0,0.0,0.0,0.0,0.0,0.0,0.0,0.0,0.0,0.0,0.0,0.0,0.0,0.0,0.0,0.0,0.0,0.0,0.0,0.0,0.0,0.0,0.0,0.0,0.0,0.0,0.0,0.0,0.0,0.0,0.0,0.0,0.0,0.0,0.0,0.0,0.0,0.0,0.0,0.0,0.0,0.0,0.0,0.0,0.0,0.0,0.0,0.0,0.0,0.0,0.0,0.0,0.0,0.0,0.0,0.0,0.0,0.0,0.0,0.0,0.0,0.0,0.0,0.0,0.0,0.0,0.0,0.0,0.0,0.0,0.0,0.0,0.0,0.0,0.0,0.0,0.0,0.0,0.0,0.0,0.0,0.0,0.0,0.0,0.0,0.0,0.0,0.0,0.0,0.0,0.0,0.0,0.0,0.0,0.0,0.0,0.0,0.0,0.0,0.0,0.0,0.0,0.0,0.0,-3.5673,-3.8075,-3.9419,-4.0113,-4.0096,-3.7347,-3.4658,0.0,0.0,0.0,0.0,0.0,0.0,0.0,0.0,0.0,0.0,0.0,0.0,0.0,0.0,0.0,0.0,0.0,0.0,0.0,0.0,0.0,0.0,0.0,0.0,0.0,0.0,0.0,0.0,0.0,0.0,0.0,0.0,0.0,0.0,0.0,0.0,0.0,0.0,0.0,0.0,0.0,0.0,0.0,0.0,0.0,0.0,0.0,0.0,-2.3898,0.0,0.0,0.0,0.0,0.0,0.0,0.0,0.0,0.0,0.0,0.0,0.0,0.0,0.0,0.0,0.0,0.0,0.0,0.0,0.0,0.0,0.0,0.0,0.0,0.0,0.0,0.0,0.0,0.0,0.0,0.0,0.0,0.0,0.0,0.0,0.0,0.0,0.0,0.0,0.0,0.0,0.0,0.0,0.0,0.0,0.0,0.0,0.0,0.0,0.0,0.0,0.0,0.0,0.0,0.0,0.0,0.0,0.0,0.0,-3.6694,-3.887,-3.9706,-4.0113,-4.0028,-3.7889,-3.547,0.0,0.0,0.0,0.0,0.0,0.0,0.0,0.0,0.0,0.0,0.0,0.0,0.0,0.0,0.0,0.0,0.0,0.0,0.0,0.0,0.0,0.0,0.0,0.0,0.0,0.0,0.0,0.0,0.0,0.0,0.0,0.0,0.0,0.0,0.0,0.0,0.0,0.0,0.0,0.0,0.0,0.0,0.0,0.0,0.0,0.0,0.0,0.0,0.0,0.0,0.0,0.0,0.0,0.0,0.0,0.0,0.0,0.0,0.0,0.0,0.0,0.0,0.0,0.0,0.0,0.0,0.0,0.0,0.0,0.0,0.0,0.0,0.0,0.0,0.0,0.0,0.0,0.0,0.0,0.0,0.0,0.0,0.0,0.0,0.0,0.0,0.0,0.0,0.0,0.0,0.0,0.0,0.0,0.0,0.0,0.0,0.0,0.0,0.0,0.0,0.0,0.0,0.0,0.0,0.0,0.0,0.0,-3.4747,-3.7523,-3.9977,-4.0113,-4.0113,-4.0079,-3.8667,-3.6485,-3.3508,0.0,0.0,0.0,0.0,0.0,0.0,0.0,0.0,0.0,0.0,0.0,0.0,0.0,0.0,0.0,0.0,0.0,0.0,0.0,0.0,0.0,0.0,0.0,0.0,0.0,0.0,0.0,0.0,0.0,0.0,0.0,0.0,0.0,0.0,0.0,0.0,0.0,0.0,-2.2753,-2.3545,0.0,0.0,0.0,0.0,0.0,0.0,0.0,0.0,-2.5423,0.0,0.0,0.0,0.0,0.0,0.0,0.0,0.0,0.0,0.0,0.0,0.0,0.0,0.0,0.0,0.0,0.0,0.0,0.0,0.0,0.0,0.0,0.0,0.0,0.0,0.0,0.0,0.0,0.0,0.0,0.0,0.0,0.0,0.0,0.0,0.0,0.0,0.0,0.0,0.0,0.0,0.0,0.0,0.0,0.0,0.0,0.0,0.0,0.0,0.0,0.0,0.0,0.0,0.0,0.0,0.0,-3.3863,-3.3964,-3.5943,-3.9977,-4.0113,-4.0113,-4.0062,-3.8667,-3.6502,-3.3487,0.0,0.0,0.0,0.0,0.0,0.0,0.0,0.0,0.0,0.0,0.0,0.0,0.0,0.0,0.0,0.0,0.0,0.0,0.0,0.0,0.0,0.0,0.0,0.0,0.0,0.0,0.0,0.0,0.0,0.0,0.0,0.0,0.0,0.0,0.0,0.0,0.0,0.0,0.0,-2.6218,-2.7198,0.0,0.0,0.0,0.0,0.0,0.0,0.0,0.0,-2.6218,0.0,0.0,0.0,0.0,0.0,0.0,0.0,0.0,0.0,0.0,0.0,0.0,0.0,0.0,0.0,0.0,0.0,0.0,0.0,0.0,0.0,0.0,0.0,0.0,0.0,0.0,0.0,0.0,0.0,0.0,0.0,0.0,0.0,0.0,0.0,0.0,0.0,0.0,0.0,0.0,0.0,0.0,0.0,0.0,0.0,0.0,0.0,0.0,0.0,0.0,0.0,0.0,0.0,0.0,0.0,-3.2624,-3.4348,-3.6769,-3.9952,-3.9705,-3.9463,-3.9413,-3.6705,-3.4246,0.0,0.0,0.0,0.0,0.0,0.0,0.0,0.0,0.0,0.0,0.0,0.0,0.0,0.0,0.0,0.0,0.0,0.0,0.0,0.0,0.0,0.0,0.0,0.0,0.0,0.0,0.0,0.0,0.0,0.0,0.0,0.0,0.0,0.0,0.0,0.0,0.0,0.0,0.0,0.0,-2.7114,-2.8094,-2.8889,0.0,0.0,0.0,0.0,0.0,0.0,-2.7469,-2.6979,0.0,0.0,0.0,0.0,0.0,0.0,0.0,0.0,0.0,0.0,0.0,0.0,0.0,0.0,0.0,0.0,0.0,0.0,0.0,0.0,0.0,0.0,0.0,0.0,0.0,0.0,0.0,0.0,0.0,0.0,0.0,0.0,0.0,0.0,0.0,0.0,0.0,0.0,0.0,0.0,0.0,0.0,0.0,0.0,0.0,0.0,0.0,0.0,0.0,0.0,0.0,0.0,0.0,0.0,0.0,-3.0848,-3.4162,-3.7133,-3.9484,-3.9005,-3.8625,-3.8428,-3.4975,-3.2385,0.0,0.0,0.0,0.0,0.0,0.0,0.0,0.0,0.0,0.0,0.0,0.0,0.0,0.0,0.0,0.0,0.0,0.0,0.0,0.0,0.0,0.0,0.0,0.0,0.0,0.0,0.0,0.0,0.0,0.0,0.0,0.0,0.0,0.0,0.0,0.0,0.0,0.0,0.0,0.0,0.0,-2.911,-3.0159,-2.9142,0.0,0.0,0.0,0.0,-2.8889,-2.8922,0.0,0.0,0.0,0.0,0.0,0.0,0.0,0.0,0.0,0.0,0.0,0.0,0.0,0.0,0.0,0.0,0.0,0.0,0.0,0.0,0.0,0.0,0.0,0.0,0.0,0.0,0.0,0.0,0.0,0.0,0.0,0.0,0.0,0.0,0.0,0.0,0.0,0.0,0.0,0.0,0.0,0.0,0.0,0.0,0.0,0.0,0.0,0.0,0.0,0.0,0.0,0.0,0.0,0.0,0.0,0.0,-2.952,-3.1718,-3.4547,-3.7858,-3.7994,-3.7644,-3.7042,-3.5369,-3.2962,0.0,0.0,0.0,0.0,0.0,0.0,0.0,0.0,0.0,0.0,0.0,0.0,0.0,0.0,0.0,0.0,0.0,0.0,0.0,0.0,0.0,0.0,0.0,0.0,0.0,0.0,0.0,0.0,0.0,0.0,0.0,0.0,0.0,0.0,0.0,0.0,0.0,0.0,0.0,0.0,0.0,-3.1616,-3.114,-3.0362,-3.026,0.0,0.0,-3.1258,-3.256,-3.2743,0.0,0.0,0.0,0.0,0.0,0.0,0.0,0.0,0.0,0.0,0.0,0.0,0.0,0.0,0.0,0.0,0.0,0.0,0.0,0.0,0.0,0.0,0.0,0.0,0.0,0.0,0.0,0.0,0.0,0.0,0.0,0.0,0.0,0.0,0.0,0.0,0.0,0.0,0.0,0.0,0.0,0.0,0.0,0.0,0.0,0.0,0.0,0.0,0.0,0.0,0.0,0.0,0.0,0.0,0.0,-2.6639,-2.9377,-3.2215,-3.5003,-3.7652,-3.7368,-3.6814,-3.6135,-3.3325,-3.067,0.0,0.0,0.0,0.0,0.0,0.0,0.0,0.0,0.0,0.0,0.0,0.0,0.0,0.0,0.0,0.0,0.0,0.0,0.0,0.0,0.0,0.0,0.0,0.0,0.0,0.0,0.0,0.0,0.0,0.0,0.0,0.0,0.0,0.0,0.0,0.0,0.0,0.0,0.0,0.0,0.0,0.0,-3.1732,-3.1918,0.0,0.0,0.0,-3.3017,-3.2818,0.0,0.0,0.0,0.0,0.0,0.0,0.0,0.0,0.0,0.0,0.0,0.0,0.0,0.0,0.0,0.0,0.0,0.0,0.0,0.0,0.0,0.0,0.0,0.0,0.0,0.0,0.0,0.0,0.0,0.0,0.0,0.0,0.0,0.0,0.0,0.0,0.0,0.0,0.0,0.0,0.0,0.0,0.0,0.0,0.0,0.0,0.0,0.0,0.0,0.0,0.0,0.0,0.0,0.0,0.0,0.0,0.0,-2.8974,-3.254,-3.5312,-3.7112,-3.6491,-3.5784,-3.5031,-3.1671,0.0,0.0,0.0,0.0,0.0,0.0,0.0,0.0,0.0,0.0,0.0,0.0,0.0,0.0,0.0,0.0,0.0,0.0,0.0,0.0,0.0,0.0,0.0,0.0,0.0,0.0,0.0,-1.8577,0.0,0.0,0.0,0.0,0.0,0.0,0.0,0.0,0.0,0.0,0.0,0.0,0.0,0.0,-3.1393,-3.2682,-3.366,-3.4117,0.0,0.0,-3.4697,-3.3596,-3.388,-3.3119,0.0,0.0,0.0,0.0,0.0,0.0,0.0,0.0,0.0,0.0,0.0,0.0,0.0,0.0,0.0,0.0,0.0,0.0,0.0,0.0,0.0,0.0,0.0,0.0,0.0,0.0,0.0,0.0,0.0,0.0,0.0,0.0,0.0,0.0,0.0,0.0,0.0,0.0,0.0,0.0,0.0,0.0,0.0,0.0,0.0,0.0,0.0,0.0,0.0,0.0,0.0,0.0,0.0,0.0,0.0,-2.7801,-3.1595,-3.4267,-3.5576,-3.4988,-3.4311,-3.3621,-3.1553,-2.8936,0.0,0.0,0.0,0.0,0.0,0.0,0.0,0.0,0.0,0.0,0.0,0.0,0.0,0.0,0.0,0.0,0.0,0.0,0.0,0.0,0.0,0.0,0.0,0.0,0.0,0.0,0.0,0.0,0.0,0.0,0.0,0.0,0.0,0.0,0.0,0.0,0.0,0.0,0.0,0.0,0.0,-3.3457,-3.4235,-3.5627,-3.6772,0.0,0.0,-3.6609,-3.6508,-3.6524,-3.5064,-3.0734,0.0,0.0,0.0,0.0,0.0,0.0,0.0,0.0,0.0,0.0,0.0,0.0,0.0,0.0,0.0,0.0,0.0,0.0,0.0,0.0,0.0,0.0,0.0,0.0,0.0,0.0,0.0,0.0,0.0,0.0,0.0,0.0,0.0,0.0,0.0,0.0,0.0,0.0,0.0,0.0,0.0,0.0,0.0,0.0,0.0,0.0,0.0,0.0,0.0,0.0,0.0,0.0,0.0,-2.6258,-2.7615,-3.148,-3.4143,-3.5415,-3.4863,-3.4189,-3.3514,-3.1554,-2.916,0.0,0.0,0.0,0.0,0.0,0.0,0.0,0.0,0.0,0.0,0.0,0.0,0.0,0.0,0.0,0.0,0.0,0.0,0.0,0.0,0.0,0.0,0.0,0.0,0.0,0.0,0.0,0.0,-2.0737,-2.1042,-2.1803,0.0,0.0,0.0,0.0,0.0,0.0,0.0,0.0,0.0,0.0,-3.3322,-3.4962,-3.6502,0.0,0.0,-3.8024,-3.7821,-3.6931,-3.6383,-3.5013,-3.1935,-3.0463,0.0,0.0,0.0,0.0,0.0,0.0,0.0,0.0,0.0,0.0,0.0,0.0,0.0,0.0,0.0,0.0,0.0,0.0,0.0,0.0,0.0,0.0,0.0,0.0,0.0,0.0,0.0,0.0,0.0,0.0,0.0,0.0,0.0,0.0,0.0,0.0,0.0,0.0,0.0,0.0,0.0,0.0,0.0,0.0,0.0,0.0,0.0,0.0,0.0,0.0,0.0,0.0,-2.6348,-2.7899,-3.1584,-3.4158,-3.5474,-3.4637,-3.3994,-3.3469,-3.1554,-2.937,0.0,0.0,0.0,0.0,0.0,0.0,0.0,0.0,0.0,0.0,0.0,0.0,0.0,0.0,0.0,0.0,0.0,0.0,0.0,0.0,0.0,0.0,0.0,0.0,0.0,0.0,0.0,0.0,-2.1546,-2.1718,-2.2245,0.0,0.0,0.0,0.0,0.0,0.0,0.0,0.0,0.0,0.0,-3.3804,-3.5966,-3.7601,-3.8548,-3.8565,-3.8616,-3.8311,-3.728,-3.6468,-3.5199,-3.2987,0.0,0.0,0.0,0.0,0.0,0.0,0.0,0.0,0.0,0.0,0.0,0.0,0.0,0.0,0.0,0.0,0.0,0.0,0.0,0.0,0.0,0.0,0.0,0.0,0.0,0.0,0.0,-2.0643,0.0,0.0,-1.9723,0.0,0.0,0.0,0.0,0.0,0.0,0.0,0.0,0.0,0.0,0.0,0.0,0.0,0.0,0.0,0.0,0.0,0.0,0.0,0.0,0.0,0.0,-2.6587,-2.8577,-3.1824,-3.4158,-3.5415,-3.4203,-3.3529,-3.3455,-3.1554,-2.9579,-2.76,0.0,0.0,0.0,0.0,0.0,0.0,0.0,0.0,0.0,0.0,0.0,0.0,0.0,0.0,0.0,0.0,0.0,0.0,0.0,0.0,0.0,0.0,0.0,0.0,0.0,0.0,-2.2245,-2.2279,-2.2262,0.0,0.0,0.0,0.0,0.0,0.0,0.0,0.0,0.0,0.0,-3.2737,-3.5319,-3.7506,-3.9089,-3.9927,-3.9961,-3.8828,-3.7932,-3.7841,-3.7222,-3.5994,0.0,0.0,0.0,0.0,0.0,0.0,0.0,0.0,0.0,0.0,0.0,0.0,0.0,0.0,0.0,0.0,0.0,0.0,0.0,0.0,0.0,0.0,0.0,0.0,0.0,0.0,0.0,-2.2521,-2.1693,0.0,0.0,0.0,0.0,0.0,0.0,0.0,0.0,0.0,0.0,0.0,-2.7934,-2.8143,0.0,0.0,0.0,0.0,0.0,0.0,0.0,0.0,0.0,0.0,0.0,0.0,-2.6602,-2.8637,-3.1824,-3.4143,-3.5429,-3.4188,-3.3499,-3.3484,-3.1539,-2.937,-2.7016,0.0,0.0,0.0,0.0,0.0,0.0,0.0,0.0,0.0,0.0,0.0,0.0,0.0,0.0,0.0,0.0,0.0,0.0,0.0,0.0,0.0,0.0,0.0,0.0,0.0,-2.2313,0.0,0.0,0.0,0.0,0.0,0.0,0.0,0.0,0.0,0.0,0.0,-2.8677,-3.1353,-3.3778,-3.5754,-3.6945,-3.8358,-3.9113,0.0,0.0,0.0,0.0,0.0,0.0,0.0,0.0,0.0,0.0,0.0,0.0,0.0,0.0,-3.092,-2.7244,-2.6681,-2.6708,-2.6557,0.0,0.0,0.0,0.0,0.0,0.0,0.0,0.0,0.0,0.0,0.0,0.0,0.0,0.0,-2.4058,0.0,-2.297,0.0,0.0,0.0,0.0,0.0,0.0,0.0,0.0,-2.8285,-2.9404,-3.0115,-3.0364,-3.0285,0.0,-2.9295,-2.7425,0.0,0.0,0.0,0.0,0.0,0.0,0.0,0.0,-2.7036,-2.9265,-3.2048,-3.4038,-3.5055,-3.4068,-3.3395,-3.3125,-3.1435,-2.9385,-2.7031,-2.5084,-2.3437,0.0,0.0,0.0,0.0,0.0,0.0,0.0,0.0,0.0,0.0,0.0,0.0,0.0,0.0,0.0,0.0,0.0,0.0,0.0,0.0,0.0,0.0,0.0,-2.184,0.0,0.0,0.0,0.0,0.0,0.0,0.0,0.0,0.0,-2.72,-2.8417,-3.0085,-3.2457,-3.4433,-3.5936,-3.6603,0.0,0.0,0.0,0.0,0.0,0.0,0.0,-3.572,-3.4941,-3.4446,-3.3732,-3.2458,-3.2688,-3.2898,-3.24,0.0,0.0,-2.8873,-2.8528,-2.8686,-2.8484,-2.8945,-2.9516,-3.0042,-3.0347,-3.055,0.0,0.0,0.0,0.0,0.0,0.0,0.0,0.0,-2.5571,-2.5326,0.0,-2.4512,0.0,0.0,0.0,0.0,0.0,-2.6258,0.0,0.0,-3.0183,-3.1397,-3.1206,-3.1832,-3.2276,-3.2572,-3.3125,-3.2108,-2.9606,-2.6467,0.0,0.0,0.0,0.0,0.0,0.0,-2.7934,-3.0477,-3.2467,-3.3784,-3.4488,-3.3814,-3.3155,-3.2482,-3.1195,-2.9609,-2.7794,-2.6961,-2.5458,-2.2957,-2.1545,0.0,0.0,0.0,0.0,0.0,0.0,0.0,0.0,0.0,0.0,0.0,0.0,0.0,0.0,0.0,0.0,0.0,0.0,0.0,0.0,-2.0991,0.0,0.0,0.0,0.0,0.0,0.0,0.0,0.0,0.0,0.0,-2.8514,-3.0089,-3.1874,-3.3321,0.0,0.0,0.0,0.0,-3.7748,-3.7706,-3.7116,-3.6657,-3.6657,-3.6637,-3.6398,-3.5681,0.0,0.0,-3.2775,-3.3565,-3.4023,-3.2652,-3.3039,-3.3293,-3.264,-3.2203,-3.198,-3.1414,-3.1737,-3.2279,-3.2388,-3.284,-3.3372,-3.039,0.0,0.0,0.0,0.0,-2.8177,-2.8398,-2.9133,-2.8324,-2.7512,-2.6751,-2.6424,0.0,0.0,0.0,0.0,0.0,0.0,-2.8236,-2.961,-3.049,-3.1357,-3.2179,-3.3058,-3.3479,-3.3583,-3.4008,-3.3574,-3.2347,-3.0956,-2.8132,-2.4163,0.0,0.0,0.0,0.0,-2.9086,-3.1122,-3.2273,-3.335,-3.4474,-3.338,-3.2482,-3.1809,-3.0971,-3.0238,-2.9669,-2.8169,-2.6761,-2.5533,-2.3744,0.0,0.0,0.0,0.0,0.0,0.0,0.0,0.0,0.0,0.0,0.0,0.0,0.0,0.0,0.0,0.0,0.0,0.0,0.0,-2.0943,-2.1124,-2.1729,0.0,0.0,0.0,0.0,0.0,0.0,0.0,0.0,0.0,-3.1756,-3.2071,-3.2664,0.0,0.0,-3.5667,-3.5815,-3.6482,-3.6737,-3.6212,-3.5965,0.0,-3.5858,-3.5828,-3.5776,-3.5553,-3.5517,-3.5299,-3.4693,-3.4559,-3.4378,-3.3925,-3.3668,-3.3441,-3.3244,-3.2384,-3.173,-3.1626,-3.2393,-3.3315,-3.3848,-3.4499,-3.4957,-3.211,-3.0853,-2.9974,-2.9981,-3.0465,-2.9533,-2.9598,-3.0325,-2.9464,-2.8751,-2.8209,-2.7979,-2.7069,-2.5694,-2.528,0.0,0.0,0.0,-2.8818,-3.0448,-3.0317,-3.0904,-3.2042,-3.2629,-3.3101,-3.347,-3.3638,-3.3529,-3.3119,-3.2874,-3.0867,-2.7298,0.0,0.0,-2.6981,-2.8547,-3.0328,-3.2228,-3.2676,-3.3305,-3.4069,-3.2796,-3.1914,-3.1511,-3.1107,-3.0672,-3.0148,-2.9022,-2.7839,-2.6632,-2.4941,-2.311,0.0,0.0,0.0,0.0,0.0,0.0,0.0,0.0,0.0,0.0,0.0,-1.7654,-1.6652,0.0,0.0,0.0,-1.9682,-2.117,-2.1934,-2.2371,0.0,0.0,0.0,0.0,0.0,0.0,0.0,-2.9547,-3.0806,-3.2137,-3.3695,-3.3769,-3.3983,-3.479,-3.5263,-3.5538,-3.5491,0.0,-3.5991,-3.5554,-3.5489,-3.5489,-3.5489,-3.5498,-3.5488,-3.5479,-3.5489,-3.5489,-3.5489,-3.516,-3.4891,-3.4801,-3.4337,-3.3888,-3.3888,-3.2987,-3.2262,-3.2362,-3.3195,-3.3965,-3.4186,-3.4536,-3.4887,-3.3262,-3.3041,-3.1785,-3.147,-3.1733,-3.0456,-3.0206,-3.0583,-2.9578,-2.9402,-2.9804,-2.9264,-2.8473,-2.7419,-2.6402,0.0,-2.9651,-2.8679,-2.8952,-3.016,-2.9897,-3.0254,-3.1082,-3.118,-3.1633,-3.2486,-3.2571,-3.2593,-3.2636,-3.2897,-3.2438,-3.1249,-3.0322,-3.0123,-3.0567,-3.0672,-3.1674,-3.3544,-3.3514,-3.3469,-3.3395,-3.2153,-3.1481,-3.1421,-3.1363,-3.0766,-2.9681,-2.9493,-2.8569,-2.6767,-2.5405,-2.3812,-2.1949,0.0,0.0,0.0,0.0,0.0,0.0,0.0,0.0,0.0,0.0,0.0,0.0,0.0,0.0,0.0,-2.1205,0.0,-2.358,-2.4365,0.0,0.0,0.0,-2.6542,-2.7929,-2.9127,-3.0313,-3.1585,0.0,0.0,-3.4578,-3.51,-3.5489,-3.5489,-3.5489,-3.5489,-3.5489,-3.5522,-3.5489,-3.5489,-3.5489,-3.5489,-3.5489,-3.5492,-3.5509,-3.5489,-3.5489,-3.5489,-3.5489,-3.5489,-3.5489,-3.5459,-3.5013,-3.4593,-3.4593,-3.4054,-3.3638,-3.3571,-3.4085,-3.4388,-3.392,-3.3896,-3.4152,-3.4417,-3.3658,-3.3333,-3.2561,-3.1496,-3.1181,-3.1085,-3.1185,-3.0922,-3.067,-3.0407,-3.0242,-2.9842,-2.9176,-2.8913,-2.915,-2.9766,-2.9517,-2.9567,-2.9885,-2.9832,-2.9946,-3.0177,-3.0871,-3.1315,-3.1573,-3.2249,-3.2593,-3.2593,-3.2667,-3.2563,-3.2263,-3.2233,-3.1936,-3.1317,-3.2273,-3.326,-3.4264,-3.3739,-3.3245,-3.2721,-3.1914,-3.1256,-3.0733,-3.019,-2.9794,-2.9582,-2.8571,-2.7812,-2.7365,-2.6093,-2.4664,-2.3206,-2.1455,0.0,0.0,0.0,0.0,0.0,0.0,0.0,0.0,0.0,-2.0831,-1.8642,0.0,-2.1999,0.0,-2.361,-2.4575,-2.438,-2.5869,0.0,0.0,-2.9056,-3.0058,-3.1869,-3.1928,-3.2317,-3.3634,-3.4219,-3.4698,-3.519,-3.54,-3.5489,-3.5489,-3.5489,-3.5489,-3.5489,-3.5489,-3.5489,-3.5489,-3.5489,-3.5489,-3.5489,-3.5489,-3.5489,-3.5489,-3.5489,-3.5489,-3.5489,-3.5489,-3.5489,-3.5489,-3.54,-3.5265,-3.5235,-3.513,-3.482,-3.4392,-3.4417,-3.4475,-3.4332,-3.4676,-3.5027,-3.5144,-3.4587,-3.411,-3.3357,-3.2466,-3.1976,-3.1763,-3.1738,-3.1499,-3.1223,-3.0947,-3.0721,-3.0444,-3.0143,-2.9892,-2.9779,-2.9779,-2.9779,-2.9779,-2.9779,-2.9779,-2.9779,-2.983,-3.0317,-3.0582,-3.0582,-3.1132,-3.1341,-3.1378,-3.1792,-3.1983,-3.1983,-3.2591,-3.2577,-3.2075,-3.3306,-3.4262,-3.4921,-3.4277,-3.3469,-3.2512,-3.2123,-3.1481,-3.0552,-3.0111,-2.95,-2.8714,-2.8209,-2.7577,-2.6714,-2.5737,-2.4866,-2.4059,-2.2162,-2.1254,0.0,0.0,0.0,0.0,0.0,0.0,0.0,0.0,0.0,0.0,0.0,-2.3909,-2.4814,-2.6123,-2.7141,-2.7624,-2.8951,-3.0193,-3.121,-3.1629,-3.2392,-3.3799,-3.3604,-3.3784,-3.4816,-3.4968,-3.5085,-3.5444,-3.5489,-3.5489,-3.5489,-3.5489,-3.5489,-3.5489,-3.5489,-3.5489,-3.5489,-3.5489,-3.5489,-3.5489,-3.5489,-3.5489,-3.5489,-3.5489,-3.5489,-3.5489,-3.5489,-3.5489,-3.5489,-3.5489,-3.5489,-3.5489,-3.5489,-3.5355,-3.509,-3.4953,-3.4729,-3.4195,-3.4368,-3.4576,-3.5558,-3.5408,-3.4512,-3.4035,-3.3834,-3.2842,-3.239,-3.229,-3.1813,-3.1562,-3.1461,-3.0947,-3.0721,-3.0683,-3.0143,-2.9892,-2.9892,-2.9817,-2.9779,-2.9779,-2.9779,-2.9779,-2.9779,-2.9779,-2.9779,-2.9779,-2.9779,-2.9779,-2.983,-3.0633,-3.1044,-3.1082,-3.196,-3.2429,-3.2473,-3.3647,-3.454,-3.5118,-3.4577,-3.3748,-3.2615,-3.2512,-3.1913,-3.0673,-3.0294,-2.9292,-2.7601,-2.791,-2.734,-2.5575,-2.5013,-2.4699,-2.4536,-2.2729,-2.1978,0.0,-2.1975,0.0,0.0,0.0,0.0,0.0,0.0,0.0,0.0,-2.4754,-2.6069,-2.7824,-2.8727,-2.9894,-3.1481,-3.2303,-3.3006,-3.3559,-3.3709,-3.3978,-3.4563,-3.4638,-3.4846,-3.5429,-3.5489,-3.5489,-3.5489,-3.5489,-3.5489,-3.5489,-3.5489,-3.5489,-3.5489,-3.5489,-3.5489,-3.5489,-3.5489,-3.5489,-3.5489,-3.5489,-3.5489,-3.5489,-3.5489,-3.5489,-3.5489,-3.5489,-3.5489,-3.5489,-3.5489,-3.5489,-3.5489,-3.5489,-3.5489,-3.5444,-3.5432,-3.5105,-3.4205,-3.3966,-3.3909,-3.5956,-3.5483,-3.5282,-3.468,-3.3884,-3.3671,-3.3332,-3.2905,-3.2805,-3.2491,-3.2026,-3.1486,-3.1248,-3.1198,-3.0696,-3.047,-3.0444,-2.9993,-2.9779,-2.9779,-2.9779,-2.9779,-2.9779,-2.9779,-2.9779,-2.9779,-2.9779,-2.9779,-2.9792,-2.996,-3.0075,-3.0113,-3.102,-3.1476,-3.1536,0.0,0.0,0.0,-3.3303,-3.3249,-3.2988,-3.267,-3.2108,-3.1287,-2.9088,0.0,-2.7462,-2.6395,-2.5622,-2.5287,-2.5148,0.0,0.0,0.0,0.0,0.0,0.0,0.0,0.0,0.0,0.0,0.0,-2.5599,-2.5405,-2.5292,-2.7784,-2.9549,-2.9953,-3.1539,-3.2497,-3.2347,-3.341,-3.4189,-3.4324,-3.4786,-3.5175,-3.531,-3.5295,-3.537,-3.5474,-3.5489,-3.5489,-3.5489,-3.5489,-3.5489,-3.5489,-3.5489,-3.5489,-3.5489,-3.5489,-3.5489,-3.5489,-3.5489,-3.5489,-3.5489,-3.5489,-3.5489,-3.5489,-3.5489,-3.5489,-3.5489,-3.5489,-3.5489,-3.5489,-3.5489,-3.5489,-3.5489,-3.5489,-3.5489,-3.5489,-3.5489,-3.5429,-3.519,-3.5115,-3.4983,-3.6254,0.0,-3.5608,-3.5019,0.0,-3.401,-3.3596,-3.3124,-3.3124,-3.2905,-3.2604,-3.2039,-3.1788,-3.175,-3.0972,-3.062,-3.0583,-3.0043,-2.9779,-2.9779,-2.9779,-2.9779,-2.9779,-2.9779,-2.9779,-2.9779,-2.9779,-2.9779,-2.9779,-2.9779,-2.9779,-2.9792,-3.0279,-3.052,-3.0533,-3.0983,-3.1696,-3.2593,-3.2772,-3.2684,-3.2374,-3.2164,-3.1473,-3.0192,-2.8797,0.0,0.0,0.0,0.0,0.0,0.0,0.0,0.0,0.0,0.0,-2.4587,-2.4027,-2.3904,-2.4573,-2.5411,-2.6289,-2.7221,-2.8348,-2.8742,-2.8083,-3.0163,-3.1764,-3.2422,-3.341,-3.3978,-3.4008,-3.4607,-3.4996,-3.4996,-3.5295,-3.5489,-3.5489,-3.5489,-3.5489,-3.5489,-3.5489,-3.5489,-3.5489,-3.5489,-3.5489,-3.5489,-3.5489,-3.5489,-3.5489,-3.5489,-3.5489,-3.5489,-3.5489,-3.5489,-3.5489,-3.5489,-3.5489,-3.5489,-3.5489,-3.5489,-3.5489,-3.5489,-3.5489,-3.5489,-3.5489,-3.5489,-3.5489,-3.5489,-3.5489,-3.5489,-3.5489,-3.5489,-3.5489,-3.5489,-3.5415,-3.6417,-3.638,-3.5881,-3.532,-3.4826,-3.4374,-3.3822,-3.3206,0.0,0.0,0.0,-3.2579,-3.2365,-3.229,-3.1235,-3.0758,-3.0708,-3.008,-2.9779,-2.9779,-2.9779,-2.9779,-2.9779,-2.9779,-2.9779,-2.9779,-2.9779,-2.9779,-2.9779,-2.9779,-2.9779,-2.9779,-2.9779,-2.9779,-2.9779,-2.9779,-3.057,-3.2033,-3.2272,-3.2075,-3.1561,-3.1577,-3.0834,-2.9192,-2.8785,-2.7823,-2.6166,-2.6501,-2.6042,-2.4471,-2.4475,-2.4757,-2.5212,-2.4073,-2.4343,-2.6381,-2.603,-2.606,-2.6864,-2.7706,-2.8423,-2.89,-3.0866,-3.1809,-3.124,-3.2228,-3.3365,-3.4578,-3.4683,-3.4906,-3.5444,-3.5489,-3.5489,-3.5489,-3.5489,-3.5489,-3.5489,-3.5489,-3.5489,-3.5489,-3.5489,-3.5489,-3.5489,-3.5489,-3.5489,-3.5489,-3.5489,-3.5489,-3.5489,-3.5489,-3.5489,-3.5489,-3.5489,-3.5489,-3.5489,-3.5489,-3.5489,-3.5489,-3.5489,-3.5489,-3.5489,-3.5489,-3.5489,-3.5489,-3.5489,-3.5489,-3.5489,-3.5489,-3.5489,-3.5489,-3.5489,-3.5489,-3.5489,-3.5489,-3.5489,-3.6417,-3.6405,-3.6329,-3.5943,-3.5382,-3.5307,-3.4726,-3.3759,-3.3282,-3.3124,-3.3111,-3.2993,-3.2968,-3.2893,-3.1788,-3.1273,-3.121,-3.0244,-2.9779,-2.9779,-2.9779,-2.9779,-2.9779,-2.9779,-2.9779,-2.9779,-2.9779,-2.9779,-2.9779,-2.9779,-2.9779,-2.9779,-2.9779,-2.9779,-2.9779,-2.9779,-2.9934,-3.0228,-3.0983,-3.1349,-3.1256,-3.148,-3.1268,-3.0482,-2.8758,-2.7517,-2.6786,-2.6136,-2.5694,-2.5411,-2.5398,-2.5463,-2.5503,-2.4924,-2.4753,-2.5071,-2.5033,-2.5438,-2.6531,-2.7334,-2.8876,-3.1363,-3.3124,-3.4054,-3.3979,-3.4114,-3.4532,-3.5265,-3.5325,-3.5385,-3.5489,-3.5489,-3.5489,-3.5489,-3.5489,-3.5489,-3.5489,-3.5489,-3.5489,-3.5489,-3.5489,-3.5489,-3.5489,-3.5489,-3.5489,-3.5489,-3.5489,-3.5489,-3.5489,-3.5489,-3.5489,-3.5489,-3.5489,-3.5489,-3.5489,-3.5489,-3.5489,-3.5489,-3.5489,-3.5489,-3.5489,-3.5489,-3.5489,-3.5489,-3.5489,-3.5489,-3.5489,-3.5489,-3.5489,-3.5489,-3.5489,-3.5489,-3.5489,-3.5489,-3.5489,-3.6681,-3.643,-3.6417,-3.6044,-3.5458,-3.4868,-3.4361,-3.3859,-3.3319,-3.3124,-3.3124,-3.3124,-3.3124,-3.3048,-3.2202,-3.1662,-3.1348,-3.0583,-3.008,-2.9792,-2.9779,-2.9779,-2.9779,-2.9779,-2.9779,-2.9779,-2.9779,-2.9779,-2.9779,-2.9779,-2.9779,-2.9779,-2.9779,-2.9779,-2.9779,-2.9779,-2.9779,-2.9792,-3.0216,-3.0457,-3.0457,-3.0561,-3.0351,-2.9761,-2.8527,-2.7648,-2.713,-2.6451,-2.5925,-2.5611,-2.5586,-2.5586,-2.5586,-2.5372,-2.5511,-2.6101,-2.6163,-2.6502,-2.7306,-2.8135,-2.9564,-3.1652,-3.2506,-3.3301,-3.416,-3.4738,-3.516,-3.5474,-3.5489,-3.5489,-3.5489,-3.5489,-3.5489,-3.5489,-3.5489,-3.5489,-3.5489,-3.5489,-3.5489,-3.5489,-3.5489,-3.5489,-3.5489,-3.5489,-3.5489,-3.5489,-3.5489,-3.5489,-3.5489,-3.5489,-3.5489,-3.5489,-3.5489,-3.5489,-3.5489,-3.5489,-3.5489,-3.5489,-3.5489,-3.5489,-3.5489,-3.5489,-3.5489,-3.5489,-3.5489,-3.5489,-3.5489,-3.5489,-3.5489,-3.5489,-3.5489,-3.5489,-3.5489,-3.5489,-3.5489,-3.6908,-3.6417,-3.6417,-3.6107,-3.5642,-3.4688,-3.4211,-3.4035,-3.3508,-3.3194,-3.3136,-3.3124,-3.3124,-3.3061,-3.2466,-3.1976,-3.1524,-3.0896,-3.0382,-2.9993,-2.9854,-2.9779,-2.9779,-2.9779,-2.9779,-2.9779,-2.9779,-2.9779,-2.9779,-2.9779,-2.9779,-2.9779,-2.9779,-2.9779,-2.9779,-2.9779,-2.9779,-2.9779,-2.9779,-2.9779,-2.9779,-2.9779,-2.9528,-2.8913,-2.8511,-2.8034,-2.7482,-2.7055,-2.6663,-2.6201,-2.6163,-2.6163,-2.6163,-2.6163,-2.6553,-2.7356,-2.7469,-2.7708,-2.8272,-2.9235,-3.0268,-3.1406,-3.1693,-3.234,-3.3565,-3.4576,-3.5279,-3.5472,-3.5489,-3.5489,-3.5489,-3.5489,-3.5489,-3.5489,-3.5489,-3.5489,-3.5489,-3.5489,-3.5489,-3.5489,-3.5489,-3.5489,-3.5489,-3.5489,-3.5489,-3.5489,-3.5489,-3.5489,-3.5489,-3.5489,-3.5489,-3.5489,-3.5489,-3.5489,-3.5489,-3.5489,-3.5489,-3.5489,-3.5489,-3.5489,-3.5489,-3.5489,-3.5489,-3.5489,-3.5489,-3.5489,-3.5489,-3.5489,-3.5489,-3.5489,-3.5489,-3.5489,-3.5489,-3.5489,-3.5489,-3.692,-3.6455,-3.6417,-3.6392,-3.6241,-3.5617,-3.5031,-3.46,-3.4048,-3.3576,-3.3174,-3.3124,-3.3124,-3.3036,-3.2478,-3.219,-3.2026,-3.1072,-3.0595,-3.047,-3.0018,-2.9779,-2.9792,-2.9779,-2.9779,-2.9779,-2.9779,-2.9779,-2.9779,-2.9779,-2.9779,-2.9779,-2.9779,-2.9779,-2.9779,-2.9779,-2.9779,-2.9779,-2.9779,-2.9779,-2.9779,-2.9779,-2.9515,-2.89,-2.885,-2.8562,-2.8059,-2.7984,-2.7921,-2.7883,-2.7833,-2.7846,-2.7846,-2.7858,-2.7908,-2.8021,-2.8034,-2.8273,-2.885,-3.0204,-3.0995,-3.1259,-3.1924,-3.2439,-3.2721,-3.3553,-3.4543,-3.5198,-3.5457,-3.5489,-3.5489,-3.5489,-3.5489,-3.5489,-3.5489,-3.5489,-3.5489,-3.5489,-3.5489,-3.5489,-3.5489,-3.5489,-3.5489,-3.5489,-3.5489,-3.5489,-3.5489,-3.5489,-3.5489,-3.5489,-3.5489,-3.5489,-3.5489,-3.5489,-3.5489,-3.5489,-3.5489,-3.5489,-3.5489,-3.5489,-3.5489,-3.5489,-3.5489,-3.5489,-3.5489,-3.5489,-3.5489,-3.5489,-3.5489,-3.5489,-3.5489,-3.5489,-3.5489,-3.5489,-3.5489,-3.7161,-3.643,-3.6417,-3.6417,-3.6342,-3.578,-3.537,-3.5094,-3.4274,-3.3771,-3.3533,-3.3219,-3.3124,-3.3099,-3.283,-3.2554,-3.219,-3.175,-3.1198,-3.0605,-3.0382,-3.0105,-2.9804,-2.9779,-2.9779,-2.9779,-2.9779,-2.9779,-2.9779,-2.9779,-2.9779,-2.9779,-2.9779,-2.9779,-2.9779,-2.9779,-2.9779,-2.9779,-2.9779,-2.9779,-2.9779,-2.9779,-2.9679,-2.944,-2.9076,-2.88,-2.8549,-2.8298,-2.8109,-2.8109,-2.8109,-2.8109,-2.8109,-2.8109,-2.826,-2.8574,-2.8913,-2.9202,-2.9428,-3.0037,-3.0394,-3.0394,-3.0696,-3.1156,-3.1706,-3.2141,-3.2961,-3.4409,-3.5166,-3.5489,-3.5489,-3.5489,-3.5489,-3.5489,-3.5489,-3.5489,-3.5489,-3.5489,-3.5489,-3.5489,-3.5489,-3.5489,-3.5489,-3.5489,-3.5489,-3.5489,-3.5489,-3.5489,-3.5489,-3.5489,-3.5489,-3.5489,-3.5489,-3.5489,-3.5489,-3.5489,-3.5489,-3.5489,-3.5489,-3.5489,-3.5489,-3.5489,-3.5489,-3.5489,-3.5489,-3.5489,-3.5489,-3.5489,-3.5489,-3.5489,-3.5489,-3.5489,-3.5489,-3.5489,-3.5489,-3.745,-3.6669,-3.648,-3.6417,-3.638,-3.5943,-3.5633,-3.5395,-3.4525,-3.406,-3.3847,-3.3363,-3.3124,-3.3124,-3.3124,-3.2842,-3.2466,-3.229,-3.1813,-3.1072,-3.0909,-3.0545,-3.0055,-3.0018,-2.9942,-2.9804,-2.9779,-2.9779,-2.9779,-2.9779,-2.9779,-2.9779,-2.9779,-2.9779,-2.9779,-2.9779,-2.9779,-2.9779,-2.9779,-2.9779,-2.9779,-2.9779,-2.9779,-2.9741,-2.939,-2.9126,-2.9126,-2.8775,-2.8574,-2.8574,-2.8574,-2.8574,-2.8574,-2.8574,-2.875,-2.9101,-2.9553,-2.9779,-2.9779,-2.9779,-2.9779,-2.9779,-2.9779,-3.0075,-3.0696,-3.1044,-3.1792,-3.2982,-3.4124,-3.4773,-3.5457,-3.5489,-3.5489,-3.5489,-3.5489,-3.5489,-3.5489,-3.5489,-3.5489,-3.5489,-3.5489,-3.5489,-3.5489,-3.5489,-3.5489,-3.5489,-3.5489,-3.5489,-3.5489,-3.5489,-3.5489,-3.5489,-3.5489,-3.5489,-3.5489,-3.5489,-3.5489,-3.5489,-3.5489,-3.5489,-3.5489,-3.5489,-3.5489,-3.5489,-3.5489,-3.5489,-3.5489,-3.5489,-3.5489,-3.5489,-3.5489,-3.5489,-3.5489,-3.5489,-3.5489,-3.7676,-3.7134,-3.6631,-3.6417,-3.6405,-3.6367,-3.6019,-3.5508,-3.4893,-3.4399,-3.3909,-3.3357,-3.3136,-3.3124,-3.3124,-3.3111,-3.2998,-3.2491,-3.219,-3.2001,-3.1574,-3.1085,-3.0555,-3.053,-3.0294,-2.9817,-2.9779,-2.9779,-2.9779,-2.9779,-2.9779,-2.9779,-2.9779,-2.9779,-2.9779,-2.9779,-2.9779,-2.9779,-2.9779,-2.9779,-2.9779,-2.9779,-2.9779,-2.9779,-2.9754,-2.9704,-2.9716,-2.9716,-2.9679,-2.9691,-2.9641,-2.9666,-2.9679,-2.9666,-2.9666,-2.9729,-2.9754,-2.9779,-2.9779,-2.9779,-2.9779,-2.9779,-2.9779,-2.983,-2.9998,-3.0658,-3.1217,-3.1389,-3.2357,-3.3512,-3.4986,-3.5246,-3.5424,-3.5489,-3.5489,-3.5489,-3.5489,-3.5489,-3.5489,-3.5489,-3.5489,-3.5489,-3.5489,-3.5489,-3.5489,-3.5489,-3.5489,-3.5489,-3.5489,-3.5489,-3.5489,-3.5489,-3.5489,-3.5489,-3.5489,-3.5489,-3.5489,-3.5489,-3.5489,-3.5489,-3.5489,-3.5489,-3.5489,-3.5489,-3.5489,-3.5489,-3.5489,-3.5489,-3.5489,-3.5489,-3.5489,-3.5489,-3.5489,-3.5489,-3.5489,-3.7475,-3.6694,-3.6493,-3.6417,-3.6417,-3.6417,-3.6279,-3.6019,-3.5445,-3.4893,-3.4399,-3.3847,-3.3407,-3.3124,-3.3124,-3.3124,-3.3099,-3.2855,-3.2566,-3.2227,-3.2001,-3.1461,-3.067,-3.062,-3.0331,-2.9854,-2.9779,-2.9779,-2.9779,-2.9779,-2.9779,-2.9779,-2.9779,-2.9779,-2.9779,-2.9779,-2.9779,-2.9779,-2.9779,-2.9779,-2.9779,-2.9779,-2.9779,-2.9779,-2.9779,-2.9779,-2.9779,-2.9779,-2.9779,-2.9779,-2.9779,-2.9779,-2.9779,-2.9779,-2.9779,-2.9779,-2.9779,-2.9779,-2.9779,-2.9779,-2.9779,-2.9779,-2.9779,-2.9779,-2.9818,-3.0152,-3.0545,-3.1119,-3.1439,-3.2357,-3.3359,-3.4158,-3.4806,-3.5359,-3.5504,-3.5457,-3.5489,-3.5489,-3.5489,-3.5489,-3.5489,-3.5489,-3.5489,-3.5489,-3.5489,-3.5489,-3.5489,-3.5489,-3.5489,-3.5489,-3.5489,-3.5489,-3.5489,-3.5489,-3.5489,-3.5489,-3.5489,-3.5489,-3.5489,-3.5489,-3.5489,-3.5489,-3.5489,-3.5489,-3.5489,-3.5489,-3.5489,-3.5489,-3.5489,-3.5489,-3.5489,-3.5489,-3.5489,-3.5489,-3.5489,-3.7362,-3.6493,-3.6417,-3.6417,-3.6417,-3.6417,-3.6417,-3.6342,-3.578,-3.5194,-3.4655,-3.4148,-3.3608,-3.3187,-3.3124,-3.3124,-3.3124,-3.3111,-3.2867,-3.2516,-3.2491,-3.2001,-3.1235,-3.0947,-3.0595,-3.0093,-2.9867,-2.9779,-2.9779,-2.9779,-2.9779,-2.9779,-2.9779,-2.9779,-2.9779,-2.9779,-2.9779,-2.9779,-2.9779,-2.9779,-2.9779,-2.9779,-2.9779,-2.9779,-2.9779,-2.9779,-2.9779,-2.9779,-2.9779,-2.9779,-2.9779,-2.9779,-2.9779,-2.9779,-2.9779,-2.9779,-2.9779,-2.9779,-2.9779,-2.9779,-2.9779,-2.9779,-2.9779,-2.9779,-2.9779,-2.9779,-3.0139,-3.0595,-3.0771,-3.1119,-3.201,-3.2713,-3.3616,-3.4706,-3.5034,-3.5166,-3.5424,-3.5489,-3.5489,-3.5489,-3.5489,-3.5489,-3.5489,-3.5489,-3.5489,-3.5489,-3.5489,-3.5489,-3.5489,-3.5489,-3.5489,-3.5489,-3.5489,-3.5489,-3.5489,-3.5489,-3.5489,-3.5489,-3.5489,-3.5489,-3.5489,-3.5489,-3.5489,-3.5489,-3.5489,-3.5489,-3.5489,-3.5489,-3.5489,-3.5489,-3.5489,-3.5489,-3.5489,-3.5489,-3.5489,-3.7362,-3.648,-3.6417,-3.6417,-3.6417,-3.6417,-3.6417,-3.6329,-3.5818,-3.5257,-3.47,-3.4186,-3.3658,-3.3212,-3.3124,-3.3124,-3.3124,-3.3124,-3.3099,-3.3036,-3.3048,-3.2692,-3.2064,-3.1599,-3.1085,-3.0532,-3.0055,-2.9804,-2.9792,-2.9842,-2.9854,-2.9792,-2.9779,-2.9779,-2.9779,-2.9779,-2.9779,-2.9779,-2.9779,-2.9779,-2.9779,-2.9779,-2.9779,-2.9779,-2.9779,-2.9779,-2.9779,-2.9779,-2.9779,-2.9779,-2.9779,-2.9779,-2.9779,-2.9779,-2.9779,-2.9779,-2.9779,-2.9779,-2.9779,-2.9779,-2.9779,-2.9779,-2.9779,-2.9779,-2.9779,-2.9792,-2.9869,-2.9921,-2.9972,-3.0254,-3.1007,-3.1278,-3.2069,-3.3636,-3.4007,-3.4361,-3.5019,-3.5424,-3.5457,-3.5392,-3.5439,-3.5489,-3.5489,-3.5489,-3.5489,-3.5489,-3.5489,-3.5489,-3.5489,-3.5489,-3.5489,-3.5489,-3.5489,-3.5489,-3.5489,-3.5489,-3.5489,-3.5489,-3.5489,-3.5489,-3.5489,-3.5489,-3.5489,-3.5489,-3.5489,-3.5489,-3.5489,-3.5489,-3.5489,-3.5489,-3.5489,-3.5489,-3.5489,-3.5489,-3.5489,-3.7362,-3.6455,-3.6417,-3.6417,-3.6417,-3.6417,-3.6417,-3.6405,-3.6169,-3.5592,-3.4801,-3.4537,-3.396,-3.3232,-3.3124,-3.3124,-3.3124,-3.3124,-3.3124,-3.3124,-3.3124,-3.278,-3.2277,-3.2039,-3.1486,-3.0721,-3.0457,-3.0156,-2.9942,-3.0168,-3.0193,-2.9867,-2.9792,-2.9779,-2.9779,-2.9779,-2.9779,-2.9779,-2.9779,-2.9779,-2.9779,-2.9779,-2.9779,-2.9779,-2.9779,-2.9779,-2.9779,-2.9779,-2.9779,-2.9779,-2.9779,-2.9779,-2.9779,-2.9779,-2.9779,-2.9779,-2.9779,-2.9779,-2.9779,-2.9779,-2.9779,-2.9779,-2.9779,-2.9779,-2.9779,-2.9779,-2.9779,-2.9779,-2.9792,-2.9972,-3.0165,-3.0241,-3.1095,-3.2806,-3.3052,-3.3171,-3.3636,-3.4109,-3.4442,-3.4558,-3.5067,-3.5457,-3.5489,-3.5489,-3.5489,-3.5489,-3.5489,-3.5489,-3.5489,-3.5489,-3.5489,-3.5489,-3.5489,-3.5489,-3.5489,-3.5489,-3.5489,-3.5489,-3.5489,-3.5489,-3.5489,-3.5489,-3.5489,-3.5489,-3.5489,-3.5489,-3.5489,-3.5489,-3.5489,-3.5489,-3.5489,-3.5489,-3.5489,-3.5489,-3.5489,-3.7487,-3.6707,-3.6493,-3.6417,-3.6417,-3.6417,-3.6417,-3.6417,-3.6417,-3.5742,-3.4876,-3.468,-3.411,-3.33,-3.3124,-3.3124,-3.3124,-3.3124,-3.3124,-3.3124,-3.3124,-3.2855,-3.2503,-3.229,-3.1788,-3.106,-3.0909,-3.0733,-3.0407,-3.0507,-3.0432,-3.0143,-2.9905,-2.9779,-2.9779,-2.9779,-2.9779,-2.9779,-2.9779,-2.9779,-2.9779,-2.9779,-2.9779,-2.9779,-2.9779,-2.9779,-2.9779,-2.9779,-2.9779,-2.9779,-2.9779,-2.9779,-2.9779,-2.9779,-2.9779,-2.9779,-2.9779,-2.9779,-2.9779,-2.9779,-2.9779,-2.9779,-2.9779,-2.9779,-2.9779,-2.9779,-2.9779,-2.9779,-2.9779,-2.9779,-2.9779,-2.9779,-3.0381,-3.1378,-3.1901,-3.2213,-3.2558,-3.3087,-3.3671,-3.4041,-3.4543,-3.5019,-3.5392,-3.5489,-3.5489,-3.5489,-3.5489,-3.5489,-3.5489,-3.5489,-3.5457,-3.5457,-3.5489,-3.5489,-3.5489,-3.5489,-3.5489,-3.5489,-3.5489,-3.5489,-3.5489,-3.5489,-3.5489,-3.5489,-3.5489,-3.5489,-3.5489,-3.5489,-3.5489,-3.5489,-3.5489,-3.5489,-3.5489,-3.5489,-3.5489,-3.7688,-3.7136,-3.6631,-3.6417,-3.6417,-3.6417,-3.6417,-3.6417,-3.6417,-3.578,-3.4964,-3.4705,-3.4161,-3.3307,-3.3174,-3.3124,-3.3124,-3.3124,-3.3124,-3.3124,-3.3124,-3.3061,-3.2973,-3.2453,-3.1926,-3.1512,-3.1436,-3.1373,-3.1185,-3.0997,-3.067,-3.052,-3.0118,-2.9817,-2.9804,-2.9779,-2.9779,-2.9779,-2.9779,-2.9779,-2.9779,-2.9779,-2.9779,-2.9779,-2.9779,-2.9779,-2.9779,-2.9779,-2.9779,-2.9779,-2.9779,-2.9779,-2.9779,-2.9779,-2.9779,-2.9779,-2.9779,-2.9779,-2.9779,-2.9779,-2.9779,-2.9779,-2.9779,-2.9779,-2.9779,-2.9779,-2.9779,-2.9779,-2.9779,-2.9779,-2.9779,-2.9779,-2.9895,-2.9934,-3.0696,-3.1439,-3.2249,-3.2415,-3.277,-3.3449,-3.3876,-3.4211,-3.4953,-3.5067,-3.5133,-3.5279,-3.5246,-3.5198,-3.5198,-3.5166,-3.5326,-3.5294,-3.5118,-3.5085,-3.4938,-3.5472,-3.5392,-3.5019,-3.5198,-3.5457,-3.5489,-3.5489,-3.5489,-3.5489,-3.5489,-3.5489,-3.5489,-3.5489,-3.5489,-3.5489,-3.5489,-3.5489,-3.5489,-3.5489,-3.5489,-3.7688,-3.7149,-3.6631,-3.6417,-3.6417,-3.6417,-3.6417,-3.6417,-3.6417,-3.5968,-3.5295,-3.4889,-3.4349,-3.3671,-3.3257,-3.3124,-3.3124,-3.3124,-3.3124,-3.3124,-3.3124,-3.3124,-3.2968,-3.2503,-3.2152,-3.2014,-3.1989,-3.1788,-3.1436,-3.1625,-3.1348,-3.0633,-3.047,-3.0168,-2.9867,-2.9779,-2.9779,-2.9779,-2.9779,-2.9779,-2.9779,-2.9779,-2.9779,-2.9779,-2.9779,-2.9779,-2.9779,-2.9779,-2.9779,-2.9779,-2.9779,-2.9779,-2.9779,-2.9779,-2.9779,-2.9779,-2.9779,-2.9779,-2.9779,-2.9779,-2.9779,-2.9779,-2.9779,-2.9779,-2.9779,-2.9779,-2.9779,-2.9779,-2.9779,-2.9779,-2.9779,-2.9779,-2.9779,-2.983,-3.0101,-3.0355,-3.0671,-3.1156,-3.1706,-3.196,-3.2558,-3.3115,-3.3443,-3.3581,-3.3739,-3.4225,-3.4409,-3.4409,-3.4409,-3.4394,-3.4409,-3.4394,-3.4312,-3.4346,-3.4543,-3.5133,-3.5213,-3.461,-3.4791,-3.5392,-3.5424,-3.5489,-3.5489,-3.5489,-3.5489,-3.5489,-3.5489,-3.5489,-3.5489,-3.5489,-3.5489,-3.5489,-3.5489,-3.5489,-3.5489,-3.7814,-3.7462,-3.6732,-3.6417,-3.6417,-3.6417,-3.6417,-3.6417,-3.6405,-3.6056,-3.5508,-3.5182,-3.4625,-3.3897,-3.3571,-3.3325,-3.3149,-3.3124,-3.3124,-3.3124,-3.3124,-3.3124,-3.3036,-3.2692,-3.2579,-3.2579,-3.2566,-3.2403,-3.2152,-3.2215,-3.1712,-3.106,-3.0721,-3.0319,-2.9817,-2.9779,-2.9792,-2.9779,-2.9779,-2.9779,-2.9779,-2.9779,-2.9779,-2.9779,-2.9779,-2.9779,-2.9779,-2.9779,-2.9779,-2.9779,-2.9779,-2.9779,-2.9779,-2.9779,-2.9779,-2.9779,-2.9779,-2.9779,-2.9779,-2.9779,-2.9779,-2.9779,-2.9779,-2.9779,-2.9779,-2.9779,-2.9779,-2.9779,-2.9779,-2.9779,-2.9779,-2.9779,-2.9779,-2.9792,-2.9779,-2.9779,-2.9779,-3.0317,-3.0771,-3.118,-3.1669,-3.22,-3.2486,-3.2558,-3.2841,-3.3241,-3.3429,-3.3429,-3.3429,-3.3415,-3.3415,-3.3415,-3.3415,-3.3415,-3.3449,-3.3939,-3.4274,-3.3822,-3.3925,-3.4624,-3.51,-3.5198,-3.5311,-3.5279,-3.5392,-3.5457,-3.5377,-3.5377,-3.5489,-3.5489,-3.5489,-3.5457,-3.5424,-3.5279,-3.5311,-3.8002,-3.7914,-3.687,-3.6417,-3.6417,-3.6417,-3.6417,-3.6417,-3.6417,-3.6107,-3.5671,-3.5533,-3.4881,-3.3997,-3.3884,-3.3627,-3.3136,-3.3124,-3.3124,-3.3124,-3.3124,-3.3124,-3.3111,-3.3061,-3.298,-3.298,-3.3111,-3.3061,-3.286,-3.2516,-3.2051,-3.1537,-3.106,-3.0545,-3.0206,-2.9993,-2.988,-2.9917,-2.9829,-2.9792,-2.9779,-2.9779,-2.9779,-2.9779,-2.9779,-2.9779,-2.9779,-2.9779,-2.9779,-2.9779,-2.9779,-2.9779,-2.9779,-2.9779,-2.9779,-2.9779,-2.9779,-2.9779,-2.9779,-2.9779,-2.9779,-2.9779,-2.9779,-2.9779,-2.9779,-2.9779,-2.9779,-2.9779,-2.9779,-2.9779,-2.9779,-2.9779,-2.9779,-2.9779,-2.9779,-2.9779,-2.9779,-2.9792,-3.0139,-3.0908,-3.1031,-3.1499,-3.1997,-3.2321,-3.2321,-3.2357,-3.2464,-3.2464,-3.2464,-3.2451,-3.2451,-3.2451,-3.2451,-3.2451,-3.2522,-3.2664,-3.289,-3.2876,-3.2947,-3.3463,-3.4293,-3.4558,-3.4854,-3.4887,-3.4442,-3.4591,-3.5052,-3.5133,-3.5198,-3.5344,-3.5246,-3.5246,-3.5246,-3.4971,-3.4905,-3.8002,-3.7914,-3.687,-3.6417,-3.6417,-3.6417,-3.6417,-3.6417,-3.6417,-3.6317,-3.6094,-3.5696,-3.5144,-3.4525,-3.4135,-3.3608,-3.3169,-3.3136,-3.3124,-3.3124,-3.3124,-3.3124,-3.3124,-3.3124,-3.3124,-3.3124,-3.3124,-3.3124,-3.3048,-3.2935,-3.2591,-3.2039,-3.18,-3.1562,-3.1022,-3.0532,-3.0444,-3.0369,-3.0018,-2.9792,-2.9779,-2.9779,-2.9779,-2.9779,-2.9779,-2.9779,-2.9779,-2.9779,-2.9779,-2.9779,-2.9779,-2.9779,-2.9779,-2.9779,-2.9779,-2.9779,-2.9779,-2.9779,-2.9779,-2.9779,-2.9779,-2.9779,-2.9779,-2.9779,-2.9779,-2.9779,-2.9779,-2.9779,-2.9779,-2.9779,-2.9779,-2.9779,-2.9779,-2.9779,-2.9779,-2.9779,-2.9779,-2.9779,-2.9972,-3.0075,-3.0177,-3.0216,-3.0432,-3.0595,-3.0846,-3.1328,-3.1499,-3.1499,-3.1499,-3.1499,-3.1499,-3.1499,-3.1499,-3.1499,-3.1586,-3.1683,-3.1829,-3.1901,-3.1974,-3.2069,-3.2904,-3.3339,-3.3374,-3.3304,-3.315,-3.3533,-3.4259,-3.4361,-3.4327,-3.4624,-3.4839,-3.4558,-3.4327,-3.4327,-3.4312,-3.8002,-3.7889,-3.687,-3.6417,-3.6417,-3.6417,-3.6417,-3.6417,-3.6417,-3.6417,-3.6355,-3.6031,-3.5571,-3.5031,-3.4537,-3.3985,-3.3483,-3.3224,-3.3124,-3.3124,-3.3124,-3.3124,-3.3124,-3.3124,-3.3124,-3.3124,-3.3124,-3.3124,-3.3124,-3.3074,-3.2754,-3.2252,-3.2215,-3.1851,-3.1399,-3.0896,-3.062,-3.0495,-3.008,-2.9779,-2.9779,-2.9779,-2.9779,-2.9779,-2.9779,-2.9779,-2.9779,-2.9779,-2.9779,-2.9779,-2.9779,-2.9779,-2.9779,-2.9779,-2.9779,-2.9779,-2.9779,-2.9779,-2.9779,-2.9779,-2.9779,-2.9779,-2.9779,-2.9779,-2.9779,-2.9779,-2.9779,-2.9779,-2.9779,-2.9779,-2.9779,-2.9779,-2.9779,-2.9779,-2.9779,-2.9779,-2.9779,-2.9779,-2.9779,-2.9779,-2.9856,-2.9856,-2.9818,-2.9779,-2.9895,-3.0595,-3.0595,-3.0582,-3.0558,-3.052,-3.052,-3.052,-3.052,-3.0558,-3.0633,-3.0746,-3.0884,-3.0884,-3.0859,-3.0846,-3.1169,-3.1452,-3.1623,-3.1901,-3.2321,-3.2749,-3.331,-3.3345,-3.3429,-3.3547,-3.3581,-3.3429,-3.3359,-3.3359,-3.3345,-3.7965,-3.7801,-3.6832,-3.6417,-3.6417,-3.6417,-3.6417,-3.6417,-3.6417,-3.6417,-3.6417,-3.6417,-3.5968,-3.5445,-3.4881,-3.4387,-3.3759,-3.3345,-3.3124,-3.3124,-3.3124,-3.3124,-3.3124,-3.3124,-3.3124,-3.3124,-3.3124,-3.3124,-3.3124,-3.3099,-3.2855,-3.2428,-3.2365,-3.224,-3.1687,-3.1047,-3.0809,-3.0746,-3.0156,-2.9779,-2.9779,-2.9779,-2.9779,-2.9779,-2.9779,-2.9779,-2.9779,-2.9779,-2.9779,-2.9779,-2.9779,-2.9779,-2.9779,-2.9779,-2.9779,-2.9779,-2.9779,-2.9779,-2.9779,-2.9779,-2.9779,-2.9779,-2.9779,-2.9779,-2.9779,-2.9779,-2.9779,-2.9779,-2.9779,-2.9779,-2.9779,-2.9779,-2.9779,-2.9779,-2.9779,-2.9779,-2.9779,-2.9779,-2.9779,-2.9779,-2.9779,-2.9779,-2.9779,-2.9779,-2.9779,-2.9779,-2.9779,-2.9779,-2.9779,-2.9818,-2.996,-3.0037,-3.0101,-3.0139,-3.0177,-3.0254,-3.0317,-3.033,-3.0113,-3.0113,-3.0075,-3.0355,-3.0846,-3.1402,-3.1865,-3.2105,-3.2236,-3.2379,-3.2429,-3.2429,-3.2429,-3.2393,-3.2393,-3.2393,-3.2393,-3.7739,-3.7274,-3.6669,-3.6417,-3.6417,-3.6417,-3.6417,-3.6417,-3.6417,-3.6417,-3.6417,-3.6405,-3.6069,-3.5508,-3.4931,-3.4198,-3.352,-3.3212,-3.3124,-3.3124,-3.3124,-3.3124,-3.3124,-3.3124,-3.3124,-3.3124,-3.3124,-3.3124,-3.3124,-3.3111,-3.298,-3.2918,-3.288,-3.281,-3.2441,-3.1851,-3.1235,-3.1035,-3.0344,-2.9892,-2.9792,-2.9779,-2.9779,-2.9779,-2.9779,-2.9779,-2.9779,-2.9779,-2.9779,-2.9779,-2.9779,-2.9779,-2.9779,-2.9779,-2.9779,-2.9779,-2.9779,-2.9779,-2.9779,-2.9779,-2.9779,-2.9779,-2.9779,-2.9779,-2.9779,-2.9779,-2.9779,-2.9779,-2.9779,-2.9779,-2.9779,-2.9779,-2.9779,-2.9779,-2.9779,-2.9779,-2.9779,-2.9779,-2.9779,-2.9779,-2.9779,-2.9779,-2.9779,-2.9779,-2.9779,-2.9779,-2.9779,-2.9779,-2.9779,-2.9779,-2.9818,-2.9856,-2.9818,-2.9856,-2.9856,-2.9895,-2.996,-2.9998,-2.9934,-2.9934,-2.9895,-2.9856,-3.0203,-3.0733,-3.0871,-3.0884,-3.1044,-3.1352,-3.1646,-3.1792,-3.1646,-3.1426,-3.1426,-3.1439,-3.1439,-3.7425,-3.7136,-3.6644,-3.6417,-3.6417,-3.6417,-3.6417,-3.6417,-3.6417,-3.6417,-3.6417,-3.6392,-3.6232,-3.5868,-3.5357,-3.455,-3.3684,-3.3212,-3.3136,-3.3124,-3.3124,-3.3124,-3.3124,-3.3124,-3.3124,-3.3124,-3.3124,-3.3124,-3.3124,-3.3124,-3.3124,-3.3111,-3.3124,-3.3124,-3.296,-3.224,-3.1687,-3.1298,-3.062,-3.0043,-2.9817,-2.9779,-2.9779,-2.9779,-2.9779,-2.9779,-2.9779,-2.9779,-2.9779,-2.9779,-2.9779,-2.9779,-2.9779,-2.9779,-2.9779,-2.9779,-2.9779,-2.9779,-2.9779,-2.9779,-2.9779,-2.9779,-2.9779,-2.9779,-2.9779,-2.9779,-2.9779,-2.9779,-2.9779,-2.9779,-2.9779,-2.9779,-2.9779,-2.9779,-2.9779,-2.9779,-2.9779,-2.9779,-2.9779,-2.9779,-2.9779,-2.9779,-2.9779,-2.9779,-2.9779,-2.9779,-2.9779,-2.9779,-2.9779,-2.9779,-2.9779,-2.9779,-2.9779,-2.9779,-2.9779,-2.9779,-2.9779,-2.9779,-2.9779,-2.9779,-2.9779,-2.9779,-2.9779,-3.0037,-2.9998,-3.0075,-3.0139,-3.052,-3.0833,-3.1082,-3.0796,-3.0582,-3.052,-3.0482,-3.0595,-3.7111,-3.7021,-3.6581,-3.6417,-3.6417,-3.6417,-3.6417,-3.6417,-3.6417,-3.6417,-3.6417,-3.6417,-3.6405,-3.6216,-3.5592,-3.4743,-3.3872,-3.3319,-3.3136,-3.3124,-3.3124,-3.3124,-3.3124,-3.3124,-3.3124,-3.3124,-3.3124,-3.3124,-3.3124,-3.3124,-3.3124,-3.3124,-3.3124,-3.3124,-3.2973,-3.2441,-3.1951,-3.1411,-3.0871,-3.0344,-2.9917,-2.9779,-2.9779,-2.9779,-2.9779,-2.9779,-2.9779,-2.9779,-2.9779,-2.9779,-2.9779,-2.9779,-2.9779,-2.9779,-2.9779,-2.9779,-2.9779,-2.9779,-2.9779,-2.9779,-2.9779,-2.9779,-2.9779,-2.9779,-2.9779,-2.9779,-2.9779,-2.9779,-2.9779,-2.9779,-2.9779,-2.9779,-2.9779,-2.9779,-2.9779,-2.9779,-2.9779,-2.9779,-2.9779,-2.9779,-2.9779,-2.9779,-2.9779,-2.9779,-2.9779,-2.9779,-2.9779,-2.9779,-2.9779,-2.9779,-2.9779,-2.9779,-2.9779,-2.9779,-2.9779,-2.9779,-2.9779,-2.9779,-2.9779,-2.9779,-2.9779,-2.9779,-2.9779,-2.9779,-2.9818,-2.9895,-2.9818,-2.9779,-3.0165,-3.0317,-2.9921,-2.9856,-3.0024,-3.0062,-3.0101,-3.6945,-3.6505,-3.6443,-3.6417,-3.6417,-3.6417,-3.6417,-3.6417,-3.6417,-3.6417,-3.6417,-3.6417,-3.6417,-3.6179,-3.529,-3.4512,-3.3909,-3.3357,-3.3124,-3.3124,-3.3124,-3.3124,-3.3124,-3.3124,-3.3124,-3.3124,-3.3124,-3.3124,-3.3124,-3.3124,-3.3124,-3.3124,-3.3124,-3.3124,-3.3061,-3.2604,-3.1938,-3.1399,-3.0871,-3.0331,-2.9892,-2.9779,-2.9779,-2.9779,-2.9779,-2.9779,-2.9779,-2.9779,-2.9779,-2.9779,-2.9779,-2.9779,-2.9779,-2.9779,-2.9779,-2.9779,-2.9779,-2.9779,-2.9779,-2.9779,-2.9779,-2.9779,-2.9779,-2.9779,-2.9779,-2.9779,-2.9779,-2.9779,-2.9779,-2.9779,-2.9779,-2.9779,-2.9779,-2.9779,-2.9779,-2.9779,-2.9779,-2.9779,-2.9779,-2.9779,-2.9779,-2.9779,-2.9779,-2.9779,-2.9779,-2.9779,-2.9779,-2.9779,-2.9779,-2.9779,-2.9779,-2.9779,-2.9779,-2.9779,-2.9779,-2.9779,-2.9779,-2.9779,-2.9779,-2.9779,-2.9779,-2.9779,-2.9779,-2.9779,-2.9779,-2.9779,-2.9779,-2.9779,-2.9779,-2.9779,-2.9779,-2.9779,-2.9818,-2.9779,-2.9779,-3.6619,-3.6417,-3.6417,-3.6417,-3.6417,-3.6417,-3.6417,-3.6417,-3.6417,-3.6417,-3.6417,-3.6417,-3.6417,-3.6179,-3.5215,-3.4625,-3.4211,-3.3483,-3.3136,-3.3124,-3.3124,-3.3124,-3.3124,-3.3124,-3.3124,-3.3124,-3.3124,-3.3124,-3.3124,-3.3124,-3.3124,-3.3124,-3.3124,-3.3124,-3.3124,-3.2842,-3.219,-3.1436,-3.0633,-3.0068,-2.9854,-2.9792,-2.9792,-2.9792,-2.9792,-2.9792,-2.9804,-2.9779,-2.9779,-2.9779,-2.9779,-2.9779,-2.9779,-2.9779,-2.9779,-2.9779,-2.9779,-2.9779,-2.9779,-2.9779,-2.9779,-2.9779,-2.9779,-2.9779,-2.9779,-2.9779,-2.9779,-2.9779,-2.9779,-2.9779,-2.9779,-2.9779,-2.9779,-2.9779,-2.9779,-2.9779,-2.9779,-2.9779,-2.9779,-2.9779,-2.9779,-2.9779,-2.9779,-2.9779,-2.9779,-2.9779,-2.9779,-2.9779,-2.9779,-2.9779,-2.9779,-2.9779,-2.9779,-2.9779,-2.9779,-2.9779,-2.9779,-2.9779,-2.9779,-2.9779,-2.9779,-2.9779,-2.9779,-2.9779,-2.9779,-2.9779,-2.9779,-2.9779,-2.9779,-2.9779,-2.9779,-2.9779,-2.9779,-2.9779,-2.9779,-3.6417,-3.6417,-3.6417,-3.6417,-3.6417,-3.6417,-3.6417,-3.6417,-3.6417,-3.6417,-3.6417,-3.6417,-3.6417,-3.6216,-3.5416,-3.4831,-3.4638,-3.3709,-3.33,-3.3174,-3.3124,-3.3124,-3.3124,-3.3124,-3.3124,-3.3124,-3.3124,-3.3124,-3.3124,-3.3124,-3.3124,-3.3124,-3.3124,-3.3124,-3.3124,-3.2998,-3.2503,-3.1411,-3.0557,-3.0131,-3.0018,-2.9854,-2.9905,-2.9917,-2.9892,-2.9854,-2.9967,-2.9817,-2.9792,-3.0244,-2.9905,-2.9854,-3.0005,-2.9905,-2.9804,-2.9779,-2.9779,-2.9779,-2.9779,-2.9779,-2.9779,-2.9779,-2.9779,-2.9779,-2.9779,-2.9779,-2.9779,-2.9779,-2.9779,-2.9779,-2.9779,-2.9779,-2.9779,-2.9779,-2.9779,-2.9779,-2.9779,-2.9779,-2.9779,-2.9779,-2.9779,-2.9779,-2.9779,-2.9779,-2.9779,-2.9779,-2.9779,-2.9779,-2.9779,-2.9779,-2.9779,-2.9779,-2.9779,-2.9779,-2.9779,-2.9779,-2.9779,-2.9779,-2.9779,-2.9779,-2.9779,-2.9779,-2.9779,-2.9779,-2.9779,-2.9779,-2.9779,-2.9779,-2.9779,-2.9779,-2.9779,-2.9779,-2.9779,-2.9779,-2.9779,-3.6417,-3.6417,-3.6417,-3.6417,-3.6417,-3.6417,-3.6417,-3.6417,-3.6417,-3.6417,-3.6417,-3.6417,-3.6417,-3.6241,-3.5717,-3.5094,-3.4655,-3.411,-3.3558,-3.3206,-3.3124,-3.3124,-3.3124,-3.3124,-3.3124,-3.3124,-3.3124,-3.3124,-3.3124,-3.3124,-3.3124,-3.3124,-3.3124,-3.3124,-3.3086,-3.293,-3.2491,-3.1574,-3.0846,-3.0583,-3.0419,-3.0244,-3.0143,-3.0369,-3.0156,-3.0018,-3.0482,-3.0193,-3.0269,-3.0997,-3.0331,-3.0168,-3.0407,-3.0143,-2.9967,-3.0055,-2.9955,-2.998,-3.003,-2.988,-2.9779,-2.9779,-2.9779,-2.9779,-2.9779,-2.9779,-2.9779,-2.9779,-2.9779,-2.9779,-2.9779,-2.9779,-2.9779,-2.9779,-2.9779,-2.9779,-2.9779,-2.9779,-2.9779,-2.9779,-2.9779,-2.9779,-2.9779,-2.9779,-2.9779,-2.9779,-2.9779,-2.9779,-2.9779,-2.9779,-2.9779,-2.9779,-2.9779,-2.9779,-2.9779,-2.9779,-2.9779,-2.9779,-2.9779,-2.9779,-2.9779,-2.9779,-2.9779,-2.9779,-2.9779,-2.9779,-2.9779,-2.9779,-2.9779,-2.9779,-2.9779,-2.9779,-2.9779,-2.9779,-2.9779,-3.6417,-3.6417,-3.6417,-3.6417,-3.6417,-3.6417,-3.6417,-3.6417,-3.6417,-3.6417,-3.6417,-3.6417,-3.6417,-3.6267,-3.5793,-3.5194,-3.47,-3.4161,-3.3621,-3.3244,-3.3124,-3.3124,-3.3124,-3.3124,-3.3124,-3.3124,-3.3124,-3.3124,-3.3124,-3.3124,-3.3124,-3.3124,-3.3124,-3.3124,-3.3061,-3.2792,-3.2315,-3.1951,-3.1386,-3.1097,-3.1047,-3.0947,-3.0871,-3.1009,-3.0972,-3.0871,-3.1047,-3.0909,-3.1072,-3.1097,-3.0658,-3.0733,-3.0922,-3.0557,-3.047,-3.0595,-3.0444,-3.0444,-3.0482,-3.0193,-2.9792,-2.9779,-2.9779,-2.9779,-2.9779,-2.9779,-2.9779,-2.9779,-2.9779,-2.9779,-2.9779,-2.9779,-2.9779,-2.9779,-2.9779,-2.9779,-2.9779,-2.9779,-2.9779,-2.9779,-2.9779,-2.9779,-2.9779,-2.9779,-2.9779,-2.9779,-2.9779,-2.9779,-2.9779,-2.9779,-2.9779,-2.9779,-2.9779,-2.9779,-2.9779,-2.9779,-2.9779,-2.9779,-2.9779,-2.9779,-2.9779,-2.9779,-2.9779,-2.9779,-2.9779,-2.9779,-2.9779,-2.9779,-2.9779,-2.9779,-2.9779,-2.9779,-2.9779,-2.9779,-2.9779,-3.6417,-3.6417,-3.6417,-3.6417,-3.6417,-3.6417,-3.6417,-3.6417,-3.6417,-3.6417,-3.6417,-3.6417,-3.6417,-3.6292,-3.5994,-3.5458,-3.4944,-3.4449,-3.3872,-3.3483,-3.3206,-3.3149,-3.3124,-3.3124,-3.3124,-3.3124,-3.3124,-3.3124,-3.3124,-3.3124,-3.3124,-3.3124,-3.3124,-3.3124,-3.298,-3.2704,-3.239,-3.2127,-3.1888,-3.1625,-3.1625,-3.1424,-3.1499,-3.1512,-3.1424,-3.1461,-3.1486,-3.1436,-3.1574,-3.1587,-3.1399,-3.1198,-3.1248,-3.1248,-3.111,-3.1135,-3.1148,-3.106,-3.1035,-3.0645,-2.9967,-2.9829,-2.9779,-2.9779,-2.9779,-2.9779,-2.9779,-2.9779,-2.9779,-2.9779,-2.9779,-2.9779,-2.9779,-2.9779,-2.9779,-2.9779,-2.9779,-2.9779,-2.9779,-2.9779,-2.9779,-2.9779,-2.9779,-2.9779,-2.9779,-2.9779,-2.9779,-2.9779,-2.9779,-2.9779,-2.9779,-2.9779,-2.9779,-2.9779,-2.9779,-2.9779,-2.9779,-2.9779,-2.9779,-2.9779,-2.9779,-2.9779,-2.9779,-2.9779,-2.9779,-2.9779,-2.9779,-2.9779,-2.9779,-2.9779,-2.9779,-2.9779,-2.9779,-2.9779,-2.9779,-3.6417,-3.6417,-3.6417,-3.6417,-3.6417,-3.6417,-3.6417,-3.6417,-3.6417,-3.6417,-3.6417,-3.6417,-3.6417,-3.638,-3.6169,-3.5742,-3.5194,-3.4718,-3.4223,-3.3658,-3.3232,-3.3149,-3.3124,-3.3124,-3.3124,-3.3124,-3.3124,-3.3124,-3.3124,-3.3124,-3.3124,-3.3124,-3.3124,-3.3124,-3.3068,-3.3111,-3.2767,-3.2315,-3.2227,-3.2202,-3.2114,-3.1825,-3.1913,-3.2014,-3.1876,-3.1913,-3.2064,-3.1888,-3.2089,-3.2495,-3.1825,-3.1712,-3.2064,-3.1662,-3.1499,-3.1537,-3.1461,-3.1399,-3.1348,-3.0859,-3.047,-2.9993,-2.9905,-2.9779,-2.9779,-2.9779,-2.9779,-2.9779,-2.9779,-2.9779,-2.9779,-2.9779,-2.9779,-2.9779,-2.9779,-2.9779,-2.9779,-2.9779,-2.9779,-2.9779,-2.9779,-2.9779,-2.9779,-2.9779,-2.9779,-2.9779,-2.9779,-2.9779,-2.9779,-2.9779,-2.9779,-2.9779,-2.9779,-2.9779,-2.9779,-2.9779,-2.9779,-2.9779,-2.9779,-2.9779,-2.9779,-2.9779,-2.9779,-2.9779,-2.9779,-2.9779,-2.9779,-2.9779,-2.9779,-2.9779,-2.9779,-2.9779,-2.9779,-2.9779,-2.9779,-3.6417,-3.6417,-3.6417,-3.6417,-3.6417,-3.6417,-3.6417,-3.6417,-3.6417,-3.6417,-3.6417,-3.6417,-3.6417,-3.6329,-3.5981,-3.5592,-3.5027,-3.4424,-3.3884,-3.3407,-3.3156,-3.3149,-3.3124,-3.3124,-3.3124,-3.3124,-3.3124,-3.3124,-3.3124,-3.3124,-3.3124,-3.3124,-3.3124,-3.3124,-3.3124,-3.3124,-3.2973,-3.283,-3.2792,-3.278,-3.2754,-3.2621,-3.2583,-3.2742,-3.2516,-3.2528,-3.2704,-3.2416,-3.2709,-3.3011,-3.2227,-3.224,-3.2541,-3.2215,-3.2127,-3.2227,-3.2227,-3.1738,-3.1637,-3.1386,-3.1195,-3.0608,-3.008,-2.9917,-2.9804,-2.9792,-2.9779,-2.9779,-2.9779,-2.9779,-2.9779,-2.9779,-2.9779,-2.9779,-2.9779,-2.9779,-2.9779,-2.9779,-2.9779,-2.9779,-2.9779,-2.9779,-2.9779,-2.9779,-2.9779,-2.9779,-2.9779,-2.9779,-2.9779,-2.9779,-2.9779,-2.9779,-2.9779,-2.9779,-2.9779,-2.9779,-2.9779,-2.9779,-2.9779,-2.9779,-2.9779,-2.9779,-2.9779,-2.9779,-2.9779,-2.9779,-2.9779,-2.9779,-2.9779,-2.9779,-2.9779,-2.9779,-2.9779,-2.9779,-2.9779,-3.6417,-3.6417,-3.6417,-3.6417,-3.6417,-3.6417,-3.6417,-3.6417,-3.6417,-3.6417,-3.6417,-3.6417,-3.6417,-3.6257,-3.5981,-3.5483,-3.4944,-3.4437,-3.3897,-3.3395,-3.3144,-3.3149,-3.3124,-3.3124,-3.3124,-3.3124,-3.3124,-3.3124,-3.3124,-3.3124,-3.3124,-3.3124,-3.3124,-3.3124,-3.3124,-3.3111,-3.3111,-3.3061,-3.3048,-3.3061,-3.3061,-3.3048,-3.3061,-3.3086,-3.3061,-3.3099,-3.3111,-3.3124,-3.3124,-3.2955,-3.283,-3.2679,-3.283,-3.2842,-3.2717,-3.283,-3.2754,-3.2315,-3.2227,-3.1964,-3.1738,-3.1298,-3.0658,-3.0294,-3.0131,-3.0131,-2.9955,-2.988,-2.9804,-2.9779,-2.9779,-2.9779,-2.9779,-2.9779,-2.9779,-2.9779,-2.9779,-2.9779,-2.9779,-2.9779,-2.9779,-2.9779,-2.9779,-2.9779,-2.9779,-2.9779,-2.9779,-2.9779,-2.9779,-2.9779,-2.9779,-2.9779,-2.9779,-2.9779,-2.9779,-2.9779,-2.9779,-2.9779,-2.9779,-2.9779,-2.9779,-2.9779,-2.9779,-2.9779,-2.9779,-2.9779,-2.9779,-2.9779,-2.9779,-2.9779,-2.9779,-2.9779,-2.9779,-2.9779,-2.9779,-3.6417,-3.6417,-3.6392,-3.638,-3.6417,-3.6417,-3.6417,-3.6417,-3.6417,-3.6417,-3.6417,-3.6417,-3.6417,-3.6392,-3.6317,-3.5855,-3.5194,-3.4668,-3.4161,-3.3721,-3.3244,-3.3187,-3.3124,-3.3124,-3.3124,-3.3124,-3.3124,-3.3124,-3.3124,-3.3124,-3.3124,-3.3124,-3.3124,-3.3124,-3.3124,-3.3124,-3.3124,-3.3124,-3.3124,-3.3124,-3.3124,-3.3124,-3.3124,-3.3124,-3.3124,-3.3124,-3.3124,-3.3124,-3.3124,-3.3099,-3.3086,-3.3086,-3.3111,-3.3124,-3.3068,-3.3056,-3.3074,-3.2986,-3.283,-3.2503,-3.2252,-3.1913,-3.1687,-3.121,-3.0708,-3.0432,-3.0218,-2.9942,-2.9779,-2.9779,-2.9779,-2.9779,-2.9779,-2.9779,-2.9779,-2.9779,-2.9779,-2.9779,-2.9779,-2.9779,-2.9779,-2.9779,-2.9779,-2.9779,-2.9779,-2.9779,-2.9779,-2.9779,-2.9779,-2.9779,-2.9779,-2.9779,-2.9779,-2.9779,-2.9779,-2.9779,-2.9779,-2.9779,-2.9779,-2.9779,-2.9779,-2.9779,-2.9779,-2.9779,-2.9779,-2.9779,-2.9779,-2.9779,-2.9779,-2.9779,-2.9779,-2.9779,-2.9779,-2.9779,-2.9779,-3.6417,-3.6367,-3.5943,-3.5994,-3.638,-3.6405,-3.6417,-3.6417,-3.6417,-3.6417,-3.6417,-3.6417,-3.6355,-3.6367,-3.5554,-3.5177,-3.4663,-3.4085,-3.3571,-3.3257,-3.3224,-3.3149,-3.3124,-3.3124,-3.3124,-3.3124,-3.3124,-3.3124,-3.3124,-3.3124,-3.3124,-3.3124,-3.3124,-3.3124,-3.3124,-3.3124,-3.3124,-3.3124,-3.3124,-3.3124,-3.3124,-3.3124,-3.3124,-3.3124,-3.3124,-3.3124,-3.3124,-3.3124,-3.3124,-3.3124,-3.3124,-3.3124,-3.3124,-3.3124,-3.3124,-3.3124,-3.3111,-3.3099,-3.3043,-3.2918,-3.2667,-3.2398,-3.2336,-3.1763,-3.1122,-3.0501,-3.0313,-2.9922,-2.9658,-2.9619,-2.9622,-2.9624,-2.9702,-2.9779,-2.9702,-2.9482,-2.9443,-2.9248,-2.9287,-2.9521,-2.9521,-2.9779,-2.9779,-2.9779,-2.9779,-2.9779,-2.9779,-2.9779,-2.9779,-2.9779,-2.9779,-2.9779,-2.9779,-2.9779,-2.9779,-2.9779,-2.9779,-2.9779,-2.9779,-2.9779,-2.9779,-2.9779,-2.9779,-2.9779,-2.9779,-2.9779,-2.9779,-2.9779,-2.9779,-2.9779,-2.9779,-2.9779,-2.9779,-2.9779,-2.9779,-3.5717,-3.5667,-3.532,-3.5416,-3.568,-3.5705,-3.5717,-3.578,-3.6204,-3.6417,-3.6392,-3.6107,-3.6044,-3.5893,-3.5165,-3.4625,-3.4336,-3.3897,-3.342,-3.3199,-3.3124,-3.3124,-3.3124,-3.3124,-3.3124,-3.3124,-3.3124,-3.3124,-3.3124,-3.3124,-3.3124,-3.3124,-3.3124,-3.3124,-3.3124,-3.3124,-3.3124,-3.3124,-3.3124,-3.3124,-3.3124,-3.3124,-3.3124,-3.3124,-3.3124,-3.3124,-3.3124,-3.3124,-3.3124,-3.3124,-3.3124,-3.3124,-3.3124,-3.3124,-3.3124,-3.3124,-3.3124,-3.3124,-3.3111,-3.3124,-3.2842,-3.2589,-3.2364,-3.1478,-3.0933,-3.0318,-2.9968,-2.9588,-2.9457,-2.9349,-2.9411,-2.9495,-2.9624,-2.9779,-2.9443,-2.9106,-2.887,-2.8621,-2.8779,-2.9067,-2.9353,-2.9663,-2.9779,-2.974,-2.9779,-2.9779,-2.9779,-2.9779,-2.9779,-2.9779,-2.9779,-2.9779,-2.9779,-2.9779,-2.9779,-2.9779,-2.9779,-2.9779,-2.9779,-2.9779,-2.9779,-2.974,-2.974,-2.974,-2.9779,-2.9779,-2.974,-2.9779,-2.9779,-2.9779,-2.9779,-2.9779,-2.9779,-2.9779,-2.9779,-3.4705,-3.4731,-3.468,-3.4693,-3.4688,-3.4763,-3.4801,-3.4793,-3.5742,-3.6241,-3.6116,-3.5692,-3.5445,-3.5307,-3.4801,-3.4349,-3.406,-3.3709,-3.337,-3.3124,-3.3124,-3.3124,-3.3124,-3.3124,-3.3124,-3.3124,-3.3124,-3.3124,-3.3124,-3.3124,-3.3124,-3.3124,-3.3124,-3.3124,-3.3124,-3.3124,-3.3124,-3.3124,-3.3124,-3.3124,-3.3124,-3.3124,-3.3124,-3.3124,-3.3124,-3.3124,-3.3124,-3.3124,-3.3124,-3.3124,-3.3124,-3.3124,-3.3124,-3.2797,-3.2797,-3.2896,-3.284,-3.2655,-3.2612,-3.2612,-3.2426,-3.2061,-3.166,-3.0707,-3.0059,-2.9669,-2.9243,-2.874,-2.8527,-2.8521,-2.8573,-2.865,-2.8779,-2.8683,-2.8411,-2.8099,-2.7907,-2.7706,-2.7666,-2.7988,-2.8331,-2.8621,-2.8661,-2.8542,-2.8462,-2.9079,-2.9157,-2.9118,-2.9157,-2.9157,-2.9495,-2.9534,-2.9753,-2.9753,-2.9779,-2.9779,-2.9779,-2.9779,-2.9611,-2.9779,-2.9753,-2.9702,-2.9663,-2.9611,-2.9573,-2.9663,-2.9702,-2.974,-2.9779,-2.9779,-2.9779,-2.9779,-2.9779,-2.9779,-2.9779,-3.468,-3.468,-3.468,-3.45,-3.4186,-3.455,-3.4655,-3.4693,-3.4977,-3.5115,-3.509,-3.4989,-3.4914,-3.4839,-3.4349,-3.396,-3.3847,-3.3508,-3.3287,-3.3162,-3.3124,-3.3124,-3.3124,-3.3124,-3.3124,-3.3124,-3.3124,-3.3124,-3.3124,-3.3124,-3.3124,-3.3124,-3.3124,-3.3124,-3.3124,-3.3124,-3.3124,-3.3124,-3.3124,-3.3124,-3.3124,-3.3124,-3.3124,-3.3124,-3.3124,-3.3124,-3.3124,-3.3124,-3.3124,-3.3124,-3.3124,-3.3124,-3.3124,-3.2196,-3.2239,-3.2698,-3.2152,-3.1821,-3.1821,-3.1709,-3.1236,-3.0419,-2.9769,-2.9463,-2.9057,-2.8705,-2.8318,-2.7833,-2.7586,-2.7688,-2.7739,-2.7851,-2.7939,-2.7676,-2.7286,-2.7101,-2.6864,-2.6707,-2.6554,-2.6842,-2.718,-2.7383,-2.7464,-2.7424,-2.7302,-2.7261,-2.7221,-2.7221,-2.7383,-2.7557,-2.8542,-2.8831,-2.9585,-2.9714,-2.9585,-2.9495,-2.9326,-2.9067,-2.8779,-2.9118,-2.9546,-2.9079,-2.8621,-2.9157,-2.9314,-2.9079,-2.9118,-2.9714,-2.9714,-2.9573,-2.9779,-2.9779,-2.9779,-2.9779,-2.9779,-3.3985,-3.3985,-3.3997,-3.3822,-3.3633,-3.3872,-3.3997,-3.3997,-3.3997,-3.3997,-3.4048,-3.4223,-3.4361,-3.4274,-3.3784,-3.3558,-3.3508,-3.3232,-3.3174,-3.3136,-3.3124,-3.3124,-3.3124,-3.3124,-3.3124,-3.3124,-3.3124,-3.3124,-3.3124,-3.3124,-3.3124,-3.3124,-3.3124,-3.3124,-3.3124,-3.3124,-3.3124,-3.3124,-3.3124,-3.3124,-3.3124,-3.3124,-3.3124,-3.3124,-3.3124,-3.3124,-3.3124,-3.3124,-3.3124,-3.284,-3.2568,-3.1745,-3.1368,-3.0721,-3.1089,-3.1456,-3.1267,-3.0631,-3.081,-3.0539,-2.9953,-2.9126,-2.8429,-2.8351,-2.7753,-2.7415,-2.7203,-2.6804,-2.706,-2.7136,-2.7141,-2.7225,-2.7611,-2.7637,-2.6622,-2.5871,-2.5582,-2.5294,-2.5378,-2.5703,-2.6213,-2.6853,-2.6935,-2.6935,-2.6812,-2.6801,-2.6554,-2.6359,-2.6359,-2.6016,-2.7046,-2.7879,-2.8422,-2.8502,-2.8011,-2.8199,-2.8569,-2.8279,-2.7907,-2.7839,-2.7879,-2.7666,-2.7533,-2.7988,-2.8119,-2.7827,-2.8051,-2.8752,-2.9028,-2.8806,-2.9275,-2.9779,-2.974,-2.9573,-2.9573,-3.3162,-3.3124,-3.3149,-3.3136,-3.3124,-3.3149,-3.3174,-3.3174,-3.3149,-3.3162,-3.3219,-3.3633,-3.3771,-3.3608,-3.3345,-3.3224,-3.3136,-3.3149,-3.3124,-3.3124,-3.3124,-3.3124,-3.3124,-3.3124,-3.3124,-3.3124,-3.3124,-3.3124,-3.3124,-3.3124,-3.3124,-3.3124,-3.3124,-3.3124,-3.3124,-3.3124,-3.3124,-3.3124,-3.3124,-3.3124,-3.3124,-3.3124,-3.3124,-3.3124,-3.3124,-3.3124,-3.3124,-3.3124,-3.3124,-3.2655,-3.2008,-3.0956,-3.0045,-2.9544,-2.9988,-3.0305,-2.9852,-2.9772,-3.0,-2.9579,-2.9109,-2.8566,-2.7814,-2.7186,-2.6599,-2.6377,-2.616,-2.6233,-2.6491,-2.6551,-2.6532,-2.6602,-2.7016,-2.7118,-2.5872,-2.4954,-2.4577,-2.4275,-2.4514,-2.4794,-2.5296,-2.6023,-2.5975,-2.6016,-2.6069,-2.611,-2.6141,-2.6099,-2.5861,-2.5316,-2.5431,-2.613,-2.6666,-2.6584,-2.6637,-2.7046,-2.7666,-2.725,-2.6883,-2.6554,-2.6265,-2.6295,-2.6378,-2.6719,-2.6719,-2.6554,-2.6912,-2.7533,-2.7735,-2.7884,-2.8597,-2.9067,-2.8752,-2.87,-2.9079,-3.3124,-3.3124,-3.3124,-3.3124,-3.3124,-3.3124,-3.3124,-3.3124,-3.3124,-3.3124,-3.3149,-3.3174,-3.3232,-3.3244,-3.3212,-3.3124,-3.3124,-3.3124,-3.3124,-3.3124,-3.3124,-3.3124,-3.3124,-3.3124,-3.3124,-3.3124,-3.3124,-3.3124,-3.3124,-3.3124,-3.3124,-3.3124,-3.3124,-3.3124,-3.3124,-3.3124,-3.3124,-3.3124,-3.3124,-3.3124,-3.3124,-3.3124,-3.3124,-3.3124,-3.3124,-3.3124,-3.3124,-3.3124,-3.3124,-3.2754,-3.1689,-3.0361,-2.9223,-2.8402,-2.8727,-2.9085,-2.8588,-2.8402,-2.8448,-2.8215,-2.7814,-2.6972,-2.6428,-2.6312,-2.5978,-2.5988,-2.5815,-2.5775,-2.5926,-2.5867,-2.5826,-2.5685,-2.592,-2.5757,-2.4989,-2.4735,-2.4425,-2.4326,-2.4356,-2.4306,-2.4368,-2.4461,-2.4145,-2.4198,-2.4239,-2.4262,-2.4264,-2.4274,-2.4392,-2.4145,-2.4016,-2.451,-2.5126,-2.5797,-2.6307,-2.6307,-2.6595,-2.6224,-2.5808,-2.5389,-2.5136,-2.5126,-2.5294,-2.5515,-2.5588,-2.5462,-2.5911,-2.6284,-2.6625,-2.6912,-2.7763,-2.8187,-2.7867,-2.7799,-2.8119]},{"header":{"parameterUnit":"m.s-1","parameterCategory":1,"la1":31.0,"la2":29.5877,"lo1":-88.7671,"lo2":-86.6584,"dy":0.0162,"dx":0.0185,"nx":115,"ny":88,"refTime":"2024-05-29T00:00:00:Z","depth":0,"parameterNumber":3,"parameterNumberName":"V-component_of_WINDS"},"data":[0.0,0.0,0.0,0.0,0.0,0.0,0.0,0.0,0.0,0.0,0.0,0.0,0.0,0.0,0.0,0.0,0.0,0.0,0.0,0.0,0.0,0.0,0.0,0.0,0.0,0.0,0.0,0.0,0.0,0.0,0.0,0.0,0.0,0.0,0.0,0.0,0.0,0.0,0.0,0.0,0.0,0.0,0.0,0.0,0.0,0.0,0.0,0.0,0.0,0.0,0.0,0.0,0.0,0.0,0.0,0.0,0.0,0.0,0.0,0.0,0.0,0.0,0.0,0.0,0.0,0.0,0.0,0.0,0.0,0.0,0.0,0.0,0.0,0.0,0.0,0.0,0.0,0.0,0.0,0.0,0.0,0.0,0.0,0.0,0.0,0.0,0.0,0.0,0.0,0.0,0.0,0.0,0.0,0.0,0.0,0.0,0.0,0.0,0.0,0.0,0.0,0.0,0.0,0.0,0.0,0.0,0.0,0.0,0.0,0.0,0.0,0.0,0.0,0.0,0.0,0.0,0.0,0.0,0.0,0.0,0.0,0.0,0.0,0.0,0.0,0.0,0.0,0.0,0.0,0.0,0.0,0.0,0.0,0.0,0.0,0.0,0.0,0.0,0.0,0.0,0.0,0.0,0.0,0.0,0.0,0.0,0.0,0.0,0.0,0.0,0.0,0.0,0.0,0.0,0.0,0.0,0.0,0.0,0.0,0.0,0.0,0.0,0.0,0.0,0.0,0.0,0.0,0.0,0.0,0.0,0.0,0.0,0.0,0.0,0.0,0.0,0.0,0.0,0.0,0.0,0.0,0.0,0.0,0.0,0.0,0.0,0.0,0.0,0.0,0.0,0.0,0.0,0.0,0.0,0.0,0.0,0.0,0.0,0.0,0.0,0.0,0.0,0.0,0.0,0.0,0.0,0.0,0.0,0.0,0.0,0.0,0.0,0.0,0.0,0.0,0.0,0.0,0.0,0.0,0.0,0.0,0.0,0.0,0.0,0.0,0.0,0.0,0.0,0.0,0.0,0.0,0.0,0.0,0.0,0.0,0.0,0.0,0.0,0.0,0.0,0.0,0.0,0.0,0.0,0.0,0.0,0.0,0.0,0.0,0.0,0.0,0.0,0.0,0.0,0.0,0.0,0.0,0.0,0.0,0.0,0.0,0.0,0.0,0.0,0.0,0.0,0.0,0.0,0.0,0.0,0.0,0.0,0.0,0.0,0.0,0.0,0.0,0.0,0.0,0.0,0.0,0.0,0.0,0.0,0.0,0.0,0.0,0.0,0.0,0.0,0.0,0.0,0.0,0.0,0.0,0.0,0.0,0.0,0.0,0.0,0.0,0.0,0.0,0.0,0.0,0.0,0.0,0.0,0.0,0.0,0.0,0.0,0.0,0.0,0.0,0.0,0.0,0.0,0.0,0.0,0.0,0.0,0.0,0.0,0.0,0.0,0.0,0.0,0.0,0.0,0.0,0.0,0.0,0.0,0.0,0.0,0.0,0.0,0.0,0.0,0.0,0.0,0.0,0.0,0.0,0.0,0.0,0.0,0.0,0.0,0.0,0.0,0.0,0.0,0.0,0.0,0.0,0.0,0.0,0.0,0.0,0.0,0.0,0.0,0.0,0.0,0.0,0.0,0.0,0.0,0.0,0.0,0.0,0.0,0.0,0.0,0.0,0.0,0.0,0.0,0.0,0.0,0.0,0.0,0.0,0.0,0.0,0.0,0.0,0.0,0.0,0.0,0.0,0.0,0.0,0.0,0.0,0.0,0.0,0.0,0.0,0.0,0.0,0.0,0.0,0.0,0.0,0.0,0.0,0.0,0.0,0.0,0.0,0.0,0.0,0.0,0.0,0.0,0.0,0.0,0.0,0.0,0.0,0.0,0.0,0.0,0.0,0.0,0.0,0.0,0.0,0.0,0.0,0.0,0.0,0.0,0.0,0.0,0.0,0.0,0.0,0.0,0.0,0.0,0.0,0.0,0.0,0.0,0.0,0.0,0.0,0.0,0.0,0.0,0.0,0.0,0.0,0.0,0.0,0.0,0.0,0.0,0.0,0.0,0.0,0.0,0.0,0.0,0.0,0.0,0.0,0.0,0.0,0.0,0.0,0.0,0.0,0.0,0.0,0.0,0.0,0.0,0.0,0.0,0.0,0.0,0.0,0.0,0.0,0.0,0.0,0.0,0.0,0.0,0.0,0.0,0.0,0.0,0.0,0.0,0.0,0.0,0.0,0.0,0.0,0.0,0.0,0.0,0.0,0.0,0.0,0.0,0.0,0.0,0.0,0.0,0.0,0.0,0.0,0.0,0.0,0.0,0.0,0.0,0.0,0.0,0.0,0.0,0.0,0.0,0.0,0.0,0.0,0.0,0.0,0.0,0.0,0.0,0.0,0.0,0.0,0.0,0.0,0.0,0.0,0.0,0.0,0.0,0.0,0.0,0.0,0.0,0.0,0.0,0.0,0.0,0.0,0.0,0.0,0.0,0.0,0.0,0.0,0.0,0.0,0.0,0.0,0.0,0.0,0.0,0.0,0.0,0.0,0.0,0.0,0.0,0.0,0.0,0.0,0.0,0.0,0.0,0.0,0.0,0.0,0.0,0.0,0.0,0.0,0.0,0.0,0.0,0.0,0.0,0.0,0.0,0.0,0.0,0.0,0.0,0.0,0.0,0.0,0.0,0.0,0.0,0.0,0.0,0.0,0.0,0.0,0.0,0.0,0.0,0.0,0.0,0.0,0.0,0.0,0.0,0.0,0.0,0.0,0.0,0.0,0.0,0.0,0.0,0.0,0.0,0.0,0.0,0.0,0.0,0.0,0.0,0.0,0.0,0.0,0.0,0.0,0.0,0.0,0.0,0.0,0.0,0.0,0.0,0.0,0.0,0.0,0.0,0.0,0.0,0.0,0.0,0.0,0.0,0.0,0.0,0.0,0.0,0.0,0.0,0.0,0.0,0.0,0.0,0.0,0.0,0.0,0.0,0.0,0.0,0.0,0.0,0.0,0.0,0.0,0.0,0.0,0.0,0.0,0.0,0.0,0.0,0.0,0.0,0.0,0.0,0.0,0.0,0.0,0.0,0.0,0.0,0.0,0.0,0.0,0.0,0.0,0.0,0.0,0.0,0.0,0.0,0.0,0.0,0.0,0.0,0.0,0.0,0.0,0.0,0.0,0.0,0.0,0.0,0.0,0.0,0.0,0.0,0.0,0.0,0.0,0.0,0.0,0.0,0.0,0.0,0.0,0.0,0.0,0.0,0.0,0.0,0.0,0.0,0.0,0.0,0.0,0.0,0.0,0.0,0.0,0.0,0.0,0.0,0.0,0.0,0.0,0.0,0.0,0.0,0.0,0.0,0.0,0.0,0.0,0.0,0.0,0.0,0.0,0.0,0.0,0.0,0.0,0.0,0.0,0.0,0.0,0.0,0.0,0.0,0.0,0.0,0.0,0.0,0.0,0.0,0.0,0.0,0.0,0.0,0.0,0.0,0.0,0.0,0.0,0.0,0.0,0.0,0.0,0.0,0.0,0.0,0.0,0.0,0.0,0.0,0.0,0.0,0.0,0.0,0.0,0.0,0.0,0.0,0.0,0.0,0.0,0.0,0.0,0.0,0.0,0.0,0.0,0.0,0.0,0.0,0.0,0.0,0.0,0.0,0.0,0.0,0.0,0.0,0.0,0.0,0.0,0.0,0.0,0.0,0.0,0.0,0.0,0.0,0.0,0.0,0.0,0.0,0.0,0.0,0.0,0.0,0.0,0.0,0.0,0.0,0.0,0.0,0.0,0.0,0.0,0.0,0.0,0.0,0.0,0.0,0.0,0.0,0.0,0.0,0.0,0.0,0.0,0.0,0.0,0.0,0.0,0.0,0.0,0.0,0.0,0.0,0.0,0.0,0.0,0.0,0.0,0.0,0.0,0.0,0.0,0.0,0.0,0.0,0.0,0.0,0.0,0.0,0.0,0.0,0.0,0.0,0.0,0.0,0.0,0.0,0.0,0.0,0.0,0.0,0.0,0.0,0.0,0.0,0.0,0.0,0.0,0.0,0.0,0.0,0.0,0.0,0.0,0.0,0.0,0.0,0.0,0.0,0.0,0.0,0.0,0.0,0.0,0.0,0.0,0.0,0.0,0.0,0.0,0.0,0.0,0.0,0.0,0.0,0.0,0.0,0.0,0.0,0.0,0.0,0.0,0.0,0.0,0.0,0.0,0.0,0.0,0.0,0.0,0.0,0.0,0.0,0.0,0.0,0.0,0.0,0.0,0.0,0.0,0.0,0.0,0.0,0.9722,0.0,0.0,0.0,0.0,0.0,0.0,0.0,0.0,0.0,0.0,0.0,0.0,0.0,0.0,0.0,0.0,0.0,0.0,0.0,0.0,0.0,0.0,0.0,0.0,0.0,0.0,0.0,0.0,0.0,0.0,0.0,0.0,0.0,0.0,0.0,0.0,0.0,0.0,0.0,0.0,0.0,0.0,0.0,0.0,0.0,0.0,0.0,0.0,0.0,0.0,0.0,0.0,0.0,0.0,0.0,0.0,0.0,0.0,0.0,0.0,0.0,0.0,0.0,0.0,0.0,0.0,0.0,0.0,0.0,0.0,0.0,0.0,0.0,0.0,0.0,0.0,0.0,0.0,0.0,0.0,0.0,0.0,0.0,0.0,0.0,0.0,0.0,0.0,0.0,0.0,0.0,0.0,0.0,0.0,0.0,0.0,0.0,0.0,0.0,0.0,0.0,0.0,0.0,0.0,0.0,0.0,0.0,0.0,0.0,0.0,1.0586,1.0586,1.0459,1.0147,0.9729,0.0,0.0,0.0,0.0,0.0,0.0,0.0,0.0,0.0,0.0,0.0,0.0,0.0,0.0,0.0,0.0,0.0,0.0,0.0,0.0,0.0,0.0,0.0,0.0,0.0,0.0,0.0,0.0,0.0,0.0,0.0,0.0,0.0,0.0,0.0,0.0,0.0,0.0,0.0,0.0,0.0,0.0,0.0,0.0,0.0,0.0,0.0,0.0,0.0,0.0,0.0,0.0,0.0,0.0,0.0,0.0,0.0,0.0,0.0,0.0,0.0,0.0,0.0,0.0,0.0,0.0,0.0,0.0,0.0,0.0,0.0,0.0,0.0,0.0,0.0,0.0,0.0,0.0,0.0,0.0,0.0,0.0,0.0,0.0,0.0,0.0,0.0,0.0,0.0,0.0,0.0,0.0,0.0,0.0,0.0,0.0,0.0,0.0,0.0,0.0,0.0,0.0,0.0,0.0,0.0,0.0,0.0,0.0,0.0,0.0,0.0,0.0,1.0888,1.062,1.003,0.0,0.0,0.0,0.0,0.0,0.0,0.0,0.0,0.0,0.0,0.0,0.0,0.0,0.0,0.0,0.0,0.0,0.0,0.0,0.0,0.0,0.0,0.0,0.0,0.0,0.0,0.0,0.0,0.0,0.0,0.0,0.0,0.0,0.0,0.0,0.0,0.0,0.0,0.0,0.0,0.0,0.0,0.0,0.0,0.0,0.0,0.0,0.0,0.0,0.0,0.0,0.0,0.0,0.0,0.0,0.0,0.0,0.0,0.0,0.0,0.0,0.0,0.0,0.0,0.0,0.0,0.0,0.0,0.0,0.0,0.0,0.0,0.0,0.0,0.0,0.0,0.0,0.0,0.0,0.0,0.0,0.0,0.0,0.0,0.0,0.0,0.0,0.0,0.0,0.0,0.0,0.0,0.0,0.0,0.0,0.0,0.0,0.0,0.0,0.0,0.0,0.0,0.0,0.0,0.0,0.0,0.0,0.0,0.0,0.0,1.0968,1.1752,1.1772,0.0,1.0895,0.0,0.0,0.0,0.0,0.0,0.0,0.0,0.0,0.0,0.0,0.0,0.0,0.0,0.0,0.0,0.0,0.0,0.0,0.0,0.0,0.0,0.0,0.0,0.0,0.0,0.0,0.0,0.0,0.0,0.0,0.0,0.0,0.0,0.0,0.0,0.0,0.0,0.0,0.0,0.0,0.0,0.0,0.0,0.0,0.0,0.0,0.0,0.0,0.0,0.0,0.0,0.0,0.0,0.0,0.0,0.0,0.0,0.0,0.0,0.0,0.0,0.0,0.0,0.0,0.0,0.0,0.0,0.0,0.0,0.0,0.0,0.0,0.0,0.0,0.0,0.0,0.0,0.0,0.0,0.0,0.0,0.0,0.0,0.0,0.0,0.0,0.0,0.0,0.0,0.0,0.0,0.0,0.0,0.0,0.0,0.0,0.0,0.0,0.0,0.0,0.0,0.0,0.0,0.0,0.0,0.0,0.0,0.0,0.0,0.0,1.1538,1.1899,1.1564,1.1276,0.0,0.0,0.0,0.0,0.0,0.0,0.0,0.0,0.0,0.0,0.0,0.0,0.0,0.0,0.0,0.0,0.0,0.0,0.0,0.0,0.0,0.0,0.0,0.0,0.0,0.0,0.0,0.0,0.0,0.0,0.0,0.0,0.0,0.0,0.0,0.0,0.0,0.0,0.0,0.0,0.0,0.0,0.0,0.0,0.0,0.0,0.0,0.0,0.0,0.0,0.0,0.0,0.0,0.0,0.0,0.0,0.0,0.0,0.0,0.0,0.0,0.0,0.0,0.0,0.0,0.0,0.0,0.0,0.0,0.0,0.0,0.0,0.0,0.0,0.0,0.0,0.0,0.0,0.0,0.0,0.0,0.0,0.0,0.0,0.0,0.0,0.0,0.0,0.0,0.0,0.0,0.0,0.0,0.0,0.0,0.0,0.0,0.0,0.0,0.0,0.0,0.0,0.0,0.0,0.0,0.0,0.0,0.0,0.0,0.0,1.2214,0.0,1.215,1.1853,1.1437,1.0914,0.0,0.0,0.0,0.0,0.0,0.0,0.0,0.0,0.0,0.0,0.0,0.0,0.0,0.0,0.0,0.0,0.0,0.0,0.0,0.0,0.0,0.0,0.0,0.0,0.0,0.0,0.0,0.0,0.0,0.0,0.0,0.0,0.0,0.0,0.0,0.0,0.0,0.0,0.0,0.0,0.0,0.0,0.0,0.0,0.0,0.0,0.0,0.0,0.0,0.0,0.0,0.0,0.0,0.0,0.0,0.0,0.0,0.0,0.0,0.0,0.0,0.0,0.0,0.0,0.0,0.0,0.0,0.0,0.0,0.0,0.0,0.0,0.0,0.0,0.0,0.0,0.0,0.0,0.0,0.0,0.0,0.0,0.0,0.0,0.0,0.0,0.0,0.0,0.0,0.0,0.0,0.0,0.0,0.0,0.0,0.0,0.0,0.0,0.0,0.0,0.0,0.0,0.0,0.0,0.0,0.0,0.0,0.0,0.0,1.4017,1.2956,1.2837,1.3168,1.2514,0.0,0.0,0.0,0.0,0.0,0.0,0.0,0.0,0.0,0.0,0.0,0.0,0.0,0.0,0.0,0.0,0.0,0.0,0.0,0.0,0.0,0.0,0.0,0.0,0.0,0.0,0.0,0.0,0.0,0.0,0.0,0.0,0.0,0.0,0.0,0.0,0.0,0.0,0.0,0.0,0.0,0.0,0.0,0.0,0.0,0.0,0.0,0.0,0.0,0.0,0.0,0.0,0.0,0.0,0.0,0.0,0.0,0.0,0.0,0.0,0.0,0.0,0.0,0.0,0.0,0.0,0.0,0.0,0.0,0.0,0.0,0.0,0.0,0.0,0.0,0.0,0.0,0.0,0.0,0.0,0.0,0.0,0.0,0.0,0.0,0.0,0.0,0.0,0.0,0.0,0.0,0.0,0.0,0.0,0.0,0.0,0.0,0.0,0.0,0.0,0.0,0.0,0.0,0.0,0.0,0.0,0.0,0.0,0.0,1.3359,1.3679,1.4374,1.5315,1.4063,1.3042,0.0,0.0,0.0,0.0,0.0,0.0,0.0,0.0,0.0,0.0,0.0,0.0,0.0,0.0,0.0,0.0,0.0,0.0,0.0,0.0,0.0,0.0,0.0,0.0,0.0,0.0,0.0,0.0,0.0,0.0,0.0,0.0,0.0,0.0,0.0,0.0,0.0,0.0,0.0,0.0,0.0,0.0,0.0,0.0,0.0,0.0,0.0,0.0,0.0,0.0,0.0,0.0,0.0,0.0,0.0,0.0,0.0,0.0,0.0,0.0,0.0,0.0,0.0,0.0,0.0,0.0,0.0,0.0,0.0,0.0,0.0,0.0,0.0,0.0,0.0,0.0,0.0,0.0,0.0,0.0,0.0,0.0,0.0,0.0,0.0,0.0,0.0,0.0,0.0,0.0,0.0,0.0,0.0,0.0,0.0,0.0,0.0,0.0,0.0,0.0,0.0,0.0,0.0,0.0,0.0,0.0,0.0,0.0,0.0,1.3444,0.0,1.6442,0.0,1.4907,1.3664,0.0,0.0,0.0,0.0,0.0,0.0,0.0,0.0,0.0,0.0,0.0,0.0,0.0,0.0,0.0,0.0,0.0,0.0,0.0,0.0,0.0,0.0,0.0,0.0,0.0,0.0,0.0,0.0,0.0,0.0,0.0,0.0,0.0,0.0,0.0,0.0,0.0,0.0,0.0,0.0,0.0,0.0,0.0,0.0,0.0,0.0,0.0,0.0,0.0,0.0,0.0,0.0,0.0,0.0,0.0,0.0,0.0,0.0,0.0,0.0,0.0,0.0,0.0,0.0,0.0,0.0,0.0,0.0,0.0,0.0,0.0,0.0,0.0,0.0,0.0,0.0,0.0,0.0,0.0,0.0,0.0,0.0,0.0,0.0,0.0,0.0,0.0,0.0,0.0,0.0,0.0,0.0,0.0,0.0,0.0,0.0,0.0,0.0,0.0,0.0,0.0,0.0,0.0,0.0,0.0,0.0,0.0,0.0,1.5435,1.6741,1.9118,1.8891,1.5998,1.5713,1.4367,0.0,0.0,0.0,0.0,0.0,0.0,0.0,0.0,0.0,0.0,0.0,0.0,0.0,0.0,0.0,0.0,0.0,0.0,0.0,0.0,0.0,0.0,0.0,0.0,0.0,0.0,0.0,0.0,0.0,0.0,0.0,0.0,0.0,0.0,0.0,0.0,0.0,0.0,0.0,0.0,0.0,0.0,0.0,0.0,0.0,0.0,0.0,0.0,0.0,0.0,0.0,0.0,0.0,0.0,0.0,0.0,0.0,0.0,0.0,0.0,0.0,0.0,0.0,0.0,0.0,0.0,0.0,0.0,0.0,0.0,0.0,0.0,0.0,0.0,0.0,0.0,0.0,0.0,0.0,0.0,0.0,0.0,0.0,0.0,0.0,0.0,0.0,0.0,0.0,0.0,0.0,0.0,0.0,0.0,0.0,0.0,0.0,0.0,0.0,0.0,0.0,0.0,0.0,0.0,0.0,0.0,0.0,0.0,0.0,1.5963,1.8062,1.9024,1.8592,1.6586,1.5284,0.0,0.0,0.0,0.0,0.0,0.0,0.0,0.0,0.0,0.0,0.0,0.0,0.0,0.0,0.0,0.0,0.0,0.0,0.0,0.0,0.0,0.0,0.0,0.0,0.0,0.0,0.0,0.0,0.0,0.0,0.0,0.0,0.0,0.0,0.0,0.0,0.0,0.0,0.0,0.0,0.0,0.0,0.0,0.0,0.0,0.0,0.0,0.0,0.0,0.0,0.0,0.0,0.0,0.0,0.0,0.0,0.0,0.0,0.0,0.0,0.0,0.0,0.0,0.0,0.0,0.0,0.0,0.0,0.0,0.0,0.0,0.0,0.0,0.0,0.0,0.0,0.0,0.0,0.0,0.0,0.0,0.0,0.0,0.0,0.0,0.0,0.0,0.0,0.0,0.0,0.0,0.0,0.0,0.0,0.0,0.0,0.0,0.0,0.0,0.0,0.0,0.0,0.0,0.0,0.0,0.0,0.0,0.0,0.0,1.7267,1.906,2.0107,2.0156,1.7705,1.6218,1.5936,0.0,0.0,0.0,0.0,0.0,0.0,0.0,0.0,0.0,0.0,0.0,0.0,0.0,0.0,0.0,0.0,0.0,0.0,0.0,0.0,0.0,0.0,0.0,0.0,0.0,0.0,0.0,0.0,0.0,0.0,0.0,0.0,0.0,0.0,0.0,0.0,0.0,0.0,0.0,0.0,0.0,0.0,0.0,0.0,0.0,0.0,0.0,0.0,0.0,0.0,0.0,0.0,0.0,0.0,0.0,0.0,0.0,0.0,0.0,0.0,0.0,0.0,0.0,0.0,0.0,0.0,0.0,0.0,0.0,0.0,0.0,0.0,0.0,0.0,0.0,0.0,0.0,0.0,0.0,0.0,0.0,0.0,0.0,0.0,0.0,0.0,0.0,0.0,0.0,0.0,0.0,0.0,0.0,0.0,0.0,0.0,0.0,0.0,0.0,0.0,0.0,0.0,0.0,0.0,0.0,0.0,0.0,0.0,1.9941,2.165,2.1924,2.0742,1.8936,1.7236,0.0,0.0,0.0,0.0,0.0,0.0,0.0,0.0,0.0,0.0,0.0,0.0,0.0,0.0,0.0,0.0,0.0,0.0,0.0,0.0,0.0,0.0,0.0,0.0,0.0,0.0,0.0,0.0,0.0,0.0,0.0,0.0,0.0,0.0,0.0,0.0,0.0,0.0,0.0,0.0,0.0,0.0,0.0,0.0,0.0,0.0,0.0,0.0,0.0,0.0,0.0,0.0,0.0,0.0,0.0,0.0,0.0,0.0,0.0,0.0,0.0,0.0,0.0,0.0,0.0,0.0,0.0,0.0,0.0,0.0,0.0,0.0,0.0,0.0,0.0,0.0,0.0,0.0,0.0,0.0,0.0,0.0,0.0,0.0,0.0,0.0,0.0,0.0,0.0,0.0,0.0,0.0,0.0,0.0,0.0,0.0,0.0,0.0,0.0,0.0,0.0,0.0,0.0,0.0,0.0,0.0,0.0,0.0,0.0,2.042,2.209,2.2623,2.1963,1.9404,1.7803,0.0,0.0,0.0,0.0,0.0,0.0,0.0,0.0,0.0,0.0,0.0,0.0,0.0,0.0,0.0,0.0,0.0,0.0,0.0,0.0,0.0,0.0,0.0,0.0,0.0,0.0,0.0,0.0,0.0,0.0,0.0,0.0,0.0,0.0,0.0,0.0,0.0,0.0,0.0,0.0,0.0,0.0,0.0,0.0,0.0,0.0,0.0,0.0,0.0,0.0,0.0,0.0,0.0,0.0,0.0,0.0,0.0,0.0,0.0,0.0,0.0,0.0,0.0,0.0,0.0,0.0,0.0,0.0,0.0,0.0,0.0,0.0,0.0,0.0,0.0,0.0,0.0,0.0,0.0,0.0,0.0,0.0,0.0,0.0,0.0,0.0,0.0,0.0,0.0,0.0,0.0,0.0,0.0,0.0,0.0,0.0,0.0,0.0,0.0,0.0,0.0,0.0,0.0,0.0,0.0,0.0,0.0,0.0,2.0184,2.1357,2.2539,2.2984,2.274,2.0566,1.89,0.0,0.0,0.0,0.0,0.0,0.0,0.0,0.0,0.0,0.0,0.0,0.0,0.0,0.0,0.0,0.0,0.0,0.0,0.0,0.0,0.0,0.0,0.0,0.0,0.0,0.0,0.0,0.0,0.0,0.0,0.0,0.0,0.0,0.0,0.0,0.0,0.0,0.0,0.0,0.0,0.0,0.0,0.0,0.0,0.0,0.0,0.0,0.0,0.0,0.0,0.0,0.0,0.0,0.0,0.0,0.0,0.0,0.0,0.0,0.0,0.0,0.0,0.0,0.0,0.0,0.0,0.0,0.0,0.0,0.0,0.0,0.0,0.0,0.0,0.0,0.0,0.0,0.0,0.0,0.0,0.0,0.0,0.0,0.0,0.0,0.0,0.0,0.0,0.0,0.0,0.0,0.0,0.0,0.0,0.0,0.0,0.0,0.0,0.0,0.0,0.0,0.0,0.0,0.0,0.0,0.0,0.0,0.0,2.0732,2.2402,2.2857,2.3101,2.3052,2.1814,2.0167,0.0,0.0,0.0,0.0,0.0,0.0,0.0,0.0,0.0,0.0,0.0,0.0,0.0,0.0,0.0,0.0,0.0,0.0,0.0,0.0,0.0,0.0,0.0,0.0,0.0,0.0,0.0,0.0,0.0,0.0,0.0,0.0,0.0,0.0,0.0,0.0,0.0,0.0,0.0,0.0,0.0,0.0,0.0,0.0,0.0,0.0,0.0,0.0,0.0,0.0,0.0,0.0,0.0,0.0,0.0,0.0,0.0,0.0,0.0,0.0,0.0,0.0,0.0,0.0,0.0,0.0,0.0,0.0,0.0,0.0,0.0,0.0,0.0,0.0,0.0,0.0,0.0,0.0,0.0,0.0,0.0,0.0,0.0,0.0,0.0,0.0,0.0,0.0,0.0,0.0,0.0,0.0,0.0,0.0,0.0,0.0,0.0,0.0,0.0,0.0,0.0,0.0,0.0,0.0,0.0,0.0,0.0,0.0,2.0596,2.1982,2.2701,2.3101,2.3091,2.1562,2.001,0.0,0.0,0.0,0.0,0.0,0.0,0.0,0.0,0.0,0.0,0.0,0.0,0.0,0.0,0.0,0.0,0.0,0.0,0.0,0.0,0.0,0.0,0.0,0.0,0.0,0.0,0.0,0.0,0.0,0.0,0.0,0.0,0.0,0.0,0.0,0.0,0.0,0.0,0.0,0.0,0.0,0.0,0.0,0.0,0.0,0.0,0.0,0.0,1.3763,0.0,0.0,0.0,0.0,0.0,0.0,0.0,0.0,0.0,0.0,0.0,0.0,0.0,0.0,0.0,0.0,0.0,0.0,0.0,0.0,0.0,0.0,0.0,0.0,0.0,0.0,0.0,0.0,0.0,0.0,0.0,0.0,0.0,0.0,0.0,0.0,0.0,0.0,0.0,0.0,0.0,0.0,0.0,0.0,0.0,0.0,0.0,0.0,0.0,0.0,0.0,0.0,0.0,0.0,0.0,0.0,0.0,0.0,0.0,2.1132,2.2441,2.2867,2.3101,2.3052,2.1875,2.0478,0.0,0.0,0.0,0.0,0.0,0.0,0.0,0.0,0.0,0.0,0.0,0.0,0.0,0.0,0.0,0.0,0.0,0.0,0.0,0.0,0.0,0.0,0.0,0.0,0.0,0.0,0.0,0.0,0.0,0.0,0.0,0.0,0.0,0.0,0.0,0.0,0.0,0.0,0.0,0.0,0.0,0.0,0.0,0.0,0.0,0.0,0.0,0.0,0.0,0.0,0.0,0.0,0.0,0.0,0.0,0.0,0.0,0.0,0.0,0.0,0.0,0.0,0.0,0.0,0.0,0.0,0.0,0.0,0.0,0.0,0.0,0.0,0.0,0.0,0.0,0.0,0.0,0.0,0.0,0.0,0.0,0.0,0.0,0.0,0.0,0.0,0.0,0.0,0.0,0.0,0.0,0.0,0.0,0.0,0.0,0.0,0.0,0.0,0.0,0.0,0.0,0.0,0.0,0.0,0.0,0.0,0.0,2.0011,2.1609,2.3023,2.3101,2.3101,2.3081,2.2324,2.1064,1.9346,0.0,0.0,0.0,0.0,0.0,0.0,0.0,0.0,0.0,0.0,0.0,0.0,0.0,0.0,0.0,0.0,0.0,0.0,0.0,0.0,0.0,0.0,0.0,0.0,0.0,0.0,0.0,0.0,0.0,0.0,0.0,0.0,0.0,0.0,0.0,0.0,0.0,0.0,1.3169,1.3594,0.0,0.0,0.0,0.0,0.0,0.0,0.0,0.0,1.4678,0.0,0.0,0.0,0.0,0.0,0.0,0.0,0.0,0.0,0.0,0.0,0.0,0.0,0.0,0.0,0.0,0.0,0.0,0.0,0.0,0.0,0.0,0.0,0.0,0.0,0.0,0.0,0.0,0.0,0.0,0.0,0.0,0.0,0.0,0.0,0.0,0.0,0.0,0.0,0.0,0.0,0.0,0.0,0.0,0.0,0.0,0.0,0.0,0.0,0.0,0.0,0.0,0.0,0.0,0.0,0.0,1.9551,1.9609,2.0752,2.3023,2.3101,2.3101,2.3071,2.2324,2.1074,1.9382,0.0,0.0,0.0,0.0,0.0,0.0,0.0,0.0,0.0,0.0,0.0,0.0,0.0,0.0,0.0,0.0,0.0,0.0,0.0,0.0,0.0,0.0,0.0,0.0,0.0,0.0,0.0,0.0,0.0,0.0,0.0,0.0,0.0,0.0,0.0,0.0,0.0,0.0,0.0,1.5175,1.5743,0.0,0.0,0.0,0.0,0.0,0.0,0.0,0.0,1.5137,0.0,0.0,0.0,0.0,0.0,0.0,0.0,0.0,0.0,0.0,0.0,0.0,0.0,0.0,0.0,0.0,0.0,0.0,0.0,0.0,0.0,0.0,0.0,0.0,0.0,0.0,0.0,0.0,0.0,0.0,0.0,0.0,0.0,0.0,0.0,0.0,0.0,0.0,0.0,0.0,0.0,0.0,0.0,0.0,0.0,0.0,0.0,0.0,0.0,0.0,0.0,0.0,0.0,0.0,0.0,1.8883,2.0537,2.193,2.3066,2.3681,2.4006,2.3975,2.2824,2.1451,0.0,0.0,0.0,0.0,0.0,0.0,0.0,0.0,0.0,0.0,0.0,0.0,0.0,0.0,0.0,0.0,0.0,0.0,0.0,0.0,0.0,0.0,0.0,0.0,0.0,0.0,0.0,0.0,0.0,0.0,0.0,0.0,0.0,0.0,0.0,0.0,0.0,0.0,0.0,0.0,1.5694,1.6261,1.6721,0.0,0.0,0.0,0.0,0.0,0.0,1.5859,1.5615,0.0,0.0,0.0,0.0,0.0,0.0,0.0,0.0,0.0,0.0,0.0,0.0,0.0,0.0,0.0,0.0,0.0,0.0,0.0,0.0,0.0,0.0,0.0,0.0,0.0,0.0,0.0,0.0,0.0,0.0,0.0,0.0,0.0,0.0,0.0,0.0,0.0,0.0,0.0,0.0,0.0,0.0,0.0,0.0,0.0,0.0,0.0,0.0,0.0,0.0,0.0,0.0,0.0,0.0,0.0,1.8627,2.1659,2.3429,2.3783,2.467,2.5083,2.4955,2.3591,2.205,0.0,0.0,0.0,0.0,0.0,0.0,0.0,0.0,0.0,0.0,0.0,0.0,0.0,0.0,0.0,0.0,0.0,0.0,0.0,0.0,0.0,0.0,0.0,0.0,0.0,0.0,0.0,0.0,0.0,0.0,0.0,0.0,0.0,0.0,0.0,0.0,0.0,0.0,0.0,0.0,0.0,1.6807,1.7412,1.6868,0.0,0.0,0.0,0.0,1.6721,1.6741,0.0,0.0,0.0,0.0,0.0,0.0,0.0,0.0,0.0,0.0,0.0,0.0,0.0,0.0,0.0,0.0,0.0,0.0,0.0,0.0,0.0,0.0,0.0,0.0,0.0,0.0,0.0,0.0,0.0,0.0,0.0,0.0,0.0,0.0,0.0,0.0,0.0,0.0,0.0,0.0,0.0,0.0,0.0,0.0,0.0,0.0,0.0,0.0,0.0,0.0,0.0,0.0,0.0,0.0,0.0,0.0,2.0289,2.2158,2.4078,2.6019,2.6235,2.6054,2.5518,2.4537,2.2867,0.0,0.0,0.0,0.0,0.0,0.0,0.0,0.0,0.0,0.0,0.0,0.0,0.0,0.0,0.0,0.0,0.0,0.0,0.0,0.0,0.0,0.0,0.0,0.0,0.0,0.0,0.0,0.0,0.0,0.0,0.0,0.0,0.0,0.0,0.0,0.0,0.0,0.0,0.0,0.0,0.0,1.8208,1.7978,1.7529,1.7471,0.0,0.0,1.8047,1.8799,1.8952,0.0,0.0,0.0,0.0,0.0,0.0,0.0,0.0,0.0,0.0,0.0,0.0,0.0,0.0,0.0,0.0,0.0,0.0,0.0,0.0,0.0,0.0,0.0,0.0,0.0,0.0,0.0,0.0,0.0,0.0,0.0,0.0,0.0,0.0,0.0,0.0,0.0,0.0,0.0,0.0,0.0,0.0,0.0,0.0,0.0,0.0,0.0,0.0,0.0,0.0,0.0,0.0,0.0,0.0,0.0,1.9622,2.0666,2.3513,2.549,2.6487,2.7087,2.7117,2.6556,2.5227,2.3427,0.0,0.0,0.0,0.0,0.0,0.0,0.0,0.0,0.0,0.0,0.0,0.0,0.0,0.0,0.0,0.0,0.0,0.0,0.0,0.0,0.0,0.0,0.0,0.0,0.0,0.0,0.0,0.0,0.0,0.0,0.0,0.0,0.0,0.0,0.0,0.0,0.0,0.0,0.0,0.0,0.0,0.0,1.832,1.8428,0.0,0.0,0.0,1.9062,1.89,0.0,0.0,0.0,0.0,0.0,0.0,0.0,0.0,0.0,0.0,0.0,0.0,0.0,0.0,0.0,0.0,0.0,0.0,0.0,0.0,0.0,0.0,0.0,0.0,0.0,0.0,0.0,0.0,0.0,0.0,0.0,0.0,0.0,0.0,0.0,0.0,0.0,0.0,0.0,0.0,0.0,0.0,0.0,0.0,0.0,0.0,0.0,0.0,0.0,0.0,0.0,0.0,0.0,0.0,0.0,0.0,0.0,2.1293,2.4969,2.7035,2.7337,2.7937,2.802,2.7493,2.5877,0.0,0.0,0.0,0.0,0.0,0.0,0.0,0.0,0.0,0.0,0.0,0.0,0.0,0.0,0.0,0.0,0.0,0.0,0.0,0.0,0.0,0.0,0.0,0.0,0.0,0.0,0.0,1.0753,0.0,0.0,0.0,0.0,0.0,0.0,0.0,0.0,0.0,0.0,0.0,0.0,0.0,0.0,1.8125,1.8822,1.9434,1.9697,0.0,0.0,1.9982,1.9348,1.9561,1.9121,0.0,0.0,0.0,0.0,0.0,0.0,0.0,0.0,0.0,0.0,0.0,0.0,0.0,0.0,0.0,0.0,0.0,0.0,0.0,0.0,0.0,0.0,0.0,0.0,0.0,0.0,0.0,0.0,0.0,0.0,0.0,0.0,0.0,0.0,0.0,0.0,0.0,0.0,0.0,0.0,0.0,0.0,0.0,0.0,0.0,0.0,0.0,0.0,0.0,0.0,0.0,0.0,0.0,0.0,0.0,2.3019,2.6277,2.85,2.9523,2.9099,2.86,2.8025,2.6418,2.428,0.0,0.0,0.0,0.0,0.0,0.0,0.0,0.0,0.0,0.0,0.0,0.0,0.0,0.0,0.0,0.0,0.0,0.0,0.0,0.0,0.0,0.0,0.0,0.0,0.0,0.0,0.0,0.0,0.0,0.0,0.0,0.0,0.0,0.0,0.0,0.0,0.0,0.0,0.0,0.0,0.0,1.9316,1.9766,2.0518,2.123,0.0,0.0,2.1083,2.1025,2.1034,2.0244,1.7744,0.0,0.0,0.0,0.0,0.0,0.0,0.0,0.0,0.0,0.0,0.0,0.0,0.0,0.0,0.0,0.0,0.0,0.0,0.0,0.0,0.0,0.0,0.0,0.0,0.0,0.0,0.0,0.0,0.0,0.0,0.0,0.0,0.0,0.0,0.0,0.0,0.0,0.0,0.0,0.0,0.0,0.0,0.0,0.0,0.0,0.0,0.0,0.0,0.0,0.0,0.0,0.0,0.0,2.2033,2.312,2.6414,2.8649,2.9716,2.9189,2.8624,2.8122,2.6477,2.4469,0.0,0.0,0.0,0.0,0.0,0.0,0.0,0.0,0.0,0.0,0.0,0.0,0.0,0.0,0.0,0.0,0.0,0.0,0.0,0.0,0.0,0.0,0.0,0.0,0.0,0.0,0.0,0.0,1.1973,1.2148,1.2588,0.0,0.0,0.0,0.0,0.0,0.0,0.0,0.0,0.0,0.0,1.9238,2.0185,2.1074,0.0,0.0,2.1953,2.1836,2.1268,2.1006,2.0215,1.8437,1.7588,0.0,0.0,0.0,0.0,0.0,0.0,0.0,0.0,0.0,0.0,0.0,0.0,0.0,0.0,0.0,0.0,0.0,0.0,0.0,0.0,0.0,0.0,0.0,0.0,0.0,0.0,0.0,0.0,0.0,0.0,0.0,0.0,0.0,0.0,0.0,0.0,0.0,0.0,0.0,0.0,0.0,0.0,0.0,0.0,0.0,0.0,0.0,0.0,0.0,0.0,0.0,0.0,2.2108,2.3358,2.6502,2.8662,2.9767,2.9063,2.8461,2.8084,2.6477,2.4644,0.0,0.0,0.0,0.0,0.0,0.0,0.0,0.0,0.0,0.0,0.0,0.0,0.0,0.0,0.0,0.0,0.0,0.0,0.0,0.0,0.0,0.0,0.0,0.0,0.0,0.0,0.0,0.0,1.2408,1.2539,1.2876,0.0,0.0,0.0,0.0,0.0,0.0,0.0,0.0,0.0,0.0,1.9962,2.0869,2.1709,2.2256,2.2266,2.2295,2.2119,2.1523,2.1055,2.0322,1.8997,0.0,0.0,0.0,0.0,0.0,0.0,0.0,0.0,0.0,0.0,0.0,0.0,0.0,0.0,0.0,0.0,0.0,0.0,0.0,0.0,0.0,0.0,0.0,0.0,0.0,0.0,0.0,1.736,0.0,0.0,1.6513,0.0,0.0,0.0,0.0,0.0,0.0,0.0,0.0,0.0,0.0,0.0,0.0,0.0,0.0,0.0,0.0,0.0,0.0,0.0,0.0,0.0,0.0,2.2309,2.3979,2.6703,2.8662,2.9716,2.8699,2.8134,2.8072,2.6477,2.482,2.3108,0.0,0.0,0.0,0.0,0.0,0.0,0.0,0.0,0.0,0.0,0.0,0.0,0.0,0.0,0.0,0.0,0.0,0.0,0.0,0.0,0.0,0.0,0.0,0.0,0.0,0.0,1.2876,1.2895,1.2886,0.0,0.0,0.0,0.0,0.0,0.0,0.0,0.0,0.0,0.0,2.0806,2.1909,2.1873,2.2568,2.311,2.3129,2.2474,2.1955,2.1958,2.1544,2.0781,0.0,0.0,0.0,0.0,0.0,0.0,0.0,0.0,0.0,0.0,0.0,0.0,0.0,0.0,0.0,0.0,0.0,0.0,0.0,0.0,0.0,0.0,0.0,0.0,0.0,0.0,0.0,2.0637,2.0009,0.0,0.0,0.0,0.0,0.0,0.0,0.0,0.0,0.0,0.0,0.0,2.3439,2.3615,0.0,0.0,0.0,0.0,0.0,0.0,0.0,0.0,0.0,0.0,0.0,0.0,2.2322,2.4029,2.6703,2.8649,2.9729,2.8687,2.8109,2.8097,2.6465,2.4644,2.2619,0.0,0.0,0.0,0.0,0.0,0.0,0.0,0.0,0.0,0.0,0.0,0.0,0.0,0.0,0.0,0.0,0.0,0.0,0.0,0.0,0.0,0.0,0.0,0.0,0.0,1.2915,0.0,0.0,0.0,0.0,0.0,0.0,0.0,0.0,0.0,0.0,0.0,1.948,2.0215,2.1571,2.2613,2.2918,2.3679,2.45,0.0,0.0,0.0,0.0,0.0,0.0,0.0,0.0,0.0,0.0,0.0,0.0,0.0,0.0,2.066,1.8944,1.7618,1.6892,1.7164,0.0,0.0,0.0,0.0,0.0,0.0,0.0,0.0,0.0,0.0,0.0,0.0,0.0,0.0,2.3642,0.0,2.277,0.0,0.0,0.0,0.0,0.0,0.0,0.0,0.0,2.53,2.6129,2.6178,2.6337,2.5981,0.0,2.4582,2.3012,0.0,0.0,0.0,0.0,0.0,0.0,0.0,0.0,2.2686,2.4556,2.6892,2.8561,2.9415,2.8586,2.8021,2.7795,2.6377,2.4657,2.2631,2.1001,1.9622,0.0,0.0,0.0,0.0,0.0,0.0,0.0,0.0,0.0,0.0,0.0,0.0,0.0,0.0,0.0,0.0,0.0,0.0,0.0,0.0,0.0,0.0,0.0,1.3515,0.0,0.0,0.0,0.0,0.0,0.0,0.0,0.0,0.0,1.9178,2.0599,2.1858,2.2464,2.3555,2.4296,2.4284,0.0,0.0,0.0,0.0,0.0,0.0,0.0,2.4093,2.4637,2.4119,2.3674,2.3908,2.4188,2.4232,2.392,0.0,0.0,2.1365,1.9698,1.8763,1.9033,1.7956,1.7041,1.7301,1.7477,1.7594,0.0,0.0,0.0,0.0,0.0,0.0,0.0,0.0,2.6595,2.6398,0.0,2.5717,0.0,0.0,0.0,0.0,0.0,2.5302,0.0,0.0,2.9726,3.0719,2.891,2.9297,2.8807,2.7513,2.7857,2.6942,2.4788,2.2209,0.0,0.0,0.0,0.0,0.0,0.0,2.3439,2.5573,2.7243,2.8348,2.8875,2.8373,2.7821,2.7256,2.6176,2.4845,2.3271,2.2623,2.1315,1.9221,1.8078,0.0,0.0,0.0,0.0,0.0,0.0,0.0,0.0,0.0,0.0,0.0,0.0,0.0,0.0,0.0,0.0,0.0,0.0,0.0,0.0,1.4732,0.0,0.0,0.0,0.0,0.0,0.0,0.0,0.0,0.0,0.0,2.2478,2.3667,2.4903,2.5683,0.0,0.0,0.0,0.0,2.6554,2.6648,2.6231,2.5966,2.5966,2.5893,2.5723,2.5451,0.0,0.0,2.578,2.6165,2.6403,2.5683,2.5697,2.572,2.5159,2.2759,2.1218,2.1945,2.0267,1.8778,1.8746,1.9056,1.9268,3.1608,0.0,0.0,0.0,0.0,2.8611,2.973,3.1585,3.0843,3.0156,2.958,2.9218,0.0,0.0,0.0,0.0,0.0,0.0,2.8608,2.9417,3.0691,3.1288,3.1484,3.0962,3.0477,3.004,2.911,2.8172,2.7143,2.5975,2.3658,2.0275,0.0,0.0,0.0,0.0,2.4406,2.6172,2.708,2.7984,2.8863,2.8009,2.7256,2.6751,2.5988,2.5372,2.4895,2.3584,2.2406,2.1377,1.9924,0.0,0.0,0.0,0.0,0.0,0.0,0.0,0.0,0.0,0.0,0.0,0.0,0.0,0.0,0.0,0.0,0.0,0.0,0.0,1.4732,1.5418,1.6079,0.0,0.0,0.0,0.0,0.0,0.0,0.0,0.0,0.0,2.6236,2.6437,2.6451,0.0,0.0,2.7245,2.705,2.7366,2.7936,2.874,2.8736,0.0,2.8651,2.7741,2.7328,2.8344,2.8825,2.8969,2.8599,2.8362,2.8151,2.7903,2.7631,2.7384,2.7101,2.5075,2.3479,2.3456,2.2004,2.0767,2.0946,2.0627,2.0233,3.6056,3.3744,3.2003,3.1593,3.2103,3.1879,3.28,3.4427,3.3598,3.3002,3.2594,3.2328,3.0866,2.8536,2.8014,0.0,0.0,0.0,3.0971,3.1876,3.2511,3.2924,3.3108,3.2558,3.2105,3.1692,3.0824,3.0189,2.9886,2.8957,2.695,2.394,0.0,0.0,2.269,2.3954,2.5448,2.7042,2.748,2.7946,2.8524,2.7519,2.6839,2.6499,2.616,2.5737,2.5297,2.4299,2.3308,2.2347,2.0928,1.9434,0.0,0.0,0.0,0.0,0.0,0.0,0.0,0.0,0.0,0.0,0.0,1.4846,1.3973,0.0,0.0,0.0,1.6009,1.6651,1.6717,1.7557,0.0,0.0,0.0,0.0,0.0,0.0,0.0,2.4738,2.585,2.6907,2.8211,2.8335,2.8201,2.7922,2.8112,2.8332,2.8421,0.0,2.9015,2.9702,2.9779,2.9779,2.9779,2.9003,2.8737,2.9639,2.9779,2.9779,2.9779,2.9503,2.9277,2.9202,2.8812,2.8436,2.8436,2.6952,2.5548,2.4944,2.3623,2.2641,2.2627,2.2161,2.1642,3.9553,3.9203,3.6005,3.4951,3.5398,3.5581,3.5998,3.6447,3.525,3.504,3.5519,3.4953,3.3933,3.2677,3.1465,0.0,3.0638,3.2702,3.3526,3.3423,3.4851,3.5034,3.4143,3.4027,3.3553,3.27,3.2642,3.2593,3.2494,3.1218,3.0051,2.8949,2.6475,2.5388,2.5649,2.5737,2.6578,2.8147,2.8122,2.8084,2.8021,2.704,2.6474,2.6424,2.6492,2.5988,2.485,2.4802,2.4079,2.246,2.1317,2.0025,1.8417,0.0,0.0,0.0,0.0,0.0,0.0,0.0,0.0,0.0,0.0,0.0,0.0,0.0,0.0,0.0,1.7754,0.0,1.9786,2.049,0.0,0.0,0.0,2.2272,2.3384,2.4387,2.5435,2.6562,0.0,0.0,2.895,2.9453,2.9779,2.9779,2.9779,2.9779,2.9779,2.974,2.9779,2.9779,2.9779,2.9779,2.9779,2.9715,2.9664,2.9779,2.9779,2.9779,2.9779,2.9779,2.9779,2.9754,2.9314,2.8963,2.8963,2.8512,2.7791,2.6347,2.5222,2.4303,2.3917,2.3679,2.3308,4.1108,4.0113,3.9288,3.8124,3.6877,3.6914,3.7045,3.7165,3.6851,3.6552,3.6237,3.6121,3.5564,3.4771,3.4457,3.4282,3.4242,3.479,3.5004,3.499,3.5317,3.5374,3.51,3.4361,3.3876,3.3636,3.2961,3.2593,3.2593,3.2242,3.193,3.1566,2.9927,2.8131,2.6395,2.708,2.7908,2.8687,2.831,2.7896,2.7517,2.6839,2.6285,2.5845,2.6359,2.6071,2.4877,2.4946,2.4391,2.2962,2.1895,2.0742,1.9472,1.8003,0.0,0.0,0.0,0.0,0.0,0.0,0.0,0.0,0.0,1.744,1.5643,0.0,1.8418,0.0,1.9811,2.0666,2.0503,2.1707,0.0,0.0,2.4381,2.5222,2.6741,2.6791,2.7118,2.8222,2.865,2.9051,2.9528,2.9704,2.9779,2.9779,2.9779,2.9779,2.9779,2.9779,2.9779,2.9779,2.9779,2.9779,2.9779,2.9779,2.9779,2.9779,2.9779,2.9779,2.9779,2.9779,2.9779,2.9779,2.9704,2.9591,2.9566,2.9478,2.9088,2.8288,2.701,2.6038,2.5871,2.5309,2.4583,4.1976,4.122,4.0651,3.9753,3.8691,3.8108,3.7853,3.7823,3.7539,3.721,3.6881,3.6611,3.6282,3.5923,3.5624,3.5489,3.5489,3.5489,3.5489,3.5489,3.5489,3.5489,3.5472,3.4953,3.4643,3.4643,3.4124,3.3905,3.3871,3.3429,3.3192,3.3192,3.1957,3.0646,2.9263,2.8698,2.875,2.9302,2.8762,2.8084,2.7341,2.7014,2.6474,2.5636,2.6003,2.5814,2.4961,2.4738,2.4185,2.3273,2.2373,2.1379,2.0278,1.9694,1.9011,0.0,0.0,0.0,0.0,0.0,0.0,0.0,0.0,0.0,0.0,0.0,2.0062,2.0776,2.192,2.2774,2.3231,2.4293,2.5335,2.6189,2.654,2.718,2.836,2.8197,2.8348,2.9214,2.9276,2.944,2.9741,2.9779,2.9779,2.9779,2.9779,2.9779,2.9779,2.9779,2.9779,2.9779,2.9779,2.9779,2.9779,2.9779,2.9779,2.9779,2.9779,2.9779,2.9779,2.9779,2.9779,2.9779,2.9779,2.9779,2.9779,2.9779,2.9666,2.9313,2.8621,2.7873,2.7383,2.6851,2.6292,4.247,4.2291,4.113,4.0561,4.0322,3.914,3.8601,3.8482,3.7913,3.7614,3.7494,3.6881,3.6611,3.6567,3.5923,3.5624,3.5624,3.5534,3.5489,3.5489,3.5489,3.5489,3.5489,3.5489,3.5489,3.5489,3.5489,3.5489,3.5472,3.4624,3.4177,3.4143,3.3241,3.2784,3.2686,3.0496,2.963,3.0126,2.9466,2.8633,2.7733,2.7463,2.6779,2.5795,2.576,2.5576,2.5126,2.4693,2.4188,2.3693,2.3122,2.2336,2.1282,2.1758,2.1271,0.0,2.0048,0.0,0.0,0.0,0.0,0.0,0.0,0.0,0.0,2.0817,2.1923,2.3296,2.4104,2.5084,2.6474,2.7165,2.7695,2.816,2.8285,2.8511,2.8938,2.9001,2.9239,2.9729,2.9779,2.9779,2.9779,2.9779,2.9779,2.9779,2.9779,2.9779,2.9779,2.9779,2.9779,2.9779,2.9779,2.9779,2.9779,2.9779,2.9779,2.9779,2.9779,2.9779,2.9779,2.9779,2.9779,2.9779,2.9779,2.9779,2.9779,2.9779,2.9779,2.9741,2.9665,2.9326,2.8575,2.8312,2.8014,4.2851,4.2381,4.2141,4.1422,4.0382,4.0127,3.9723,3.9215,3.9095,3.8721,3.8167,3.7524,3.724,3.718,3.6582,3.6312,3.6282,3.5744,3.5489,3.5489,3.5489,3.5489,3.5489,3.5489,3.5489,3.5489,3.5489,3.5489,3.5504,3.5311,3.5213,3.518,3.4225,3.3754,3.3671,0.0,0.0,0.0,3.0785,3.0003,2.9768,2.815,2.7002,2.637,2.6596,0.0,2.5219,2.6223,2.6302,2.5177,2.4984,0.0,0.0,0.0,0.0,0.0,0.0,0.0,0.0,0.0,0.0,0.0,2.2204,2.1317,2.127,2.3314,2.4795,2.5134,2.6465,2.7268,2.7143,2.8034,2.8624,2.8737,2.9189,2.9515,2.9628,2.9616,2.9679,2.9767,2.9779,2.9779,2.9779,2.9779,2.9779,2.9779,2.9779,2.9779,2.9779,2.9779,2.9779,2.9779,2.9779,2.9779,2.9779,2.9779,2.9779,2.9779,2.9779,2.9779,2.9779,2.9779,2.9779,2.9779,2.9779,2.9779,2.9779,2.9779,2.9779,2.9779,2.9779,2.9729,2.9528,2.9465,2.9289,4.311,0.0,4.253,4.1826,0.0,4.0531,4.0038,3.9388,3.9388,3.9215,3.8856,3.8182,3.7883,3.7838,3.6911,3.6492,3.6447,3.5804,3.5489,3.5489,3.5489,3.5489,3.5489,3.5489,3.5489,3.5489,3.5489,3.5489,3.5489,3.5489,3.5489,3.5504,3.4986,3.4725,3.4739,3.4259,3.3547,3.2593,3.1855,3.1356,3.1059,3.0059,2.8966,2.7848,2.7931,0.0,0.0,0.0,0.0,0.0,0.0,0.0,0.0,0.0,0.0,2.5074,2.5154,2.519,2.5115,2.4379,2.4302,2.5163,2.4697,2.4117,2.3565,2.531,2.6653,2.7205,2.8034,2.8511,2.8536,2.9038,2.9365,2.9365,2.9616,2.9779,2.9779,2.9779,2.9779,2.9779,2.9779,2.9779,2.9779,2.9779,2.9779,2.9779,2.9779,2.9779,2.9779,2.9779,2.9779,2.9779,2.9779,2.9779,2.9779,2.9779,2.9779,2.9779,2.9779,2.9779,2.9779,2.9779,2.9779,2.9779,2.9779,2.9779,2.9779,2.9779,2.9779,2.9779,2.9779,2.9779,2.9779,2.9779,2.9716,4.3305,4.326,4.2761,4.2186,4.1504,4.0965,4.0307,3.9574,0.0,0.0,0.0,3.8826,3.8571,3.8482,3.7225,3.6656,3.6596,3.5848,3.5489,3.5489,3.5489,3.5489,3.5489,3.5489,3.5489,3.5489,3.5489,3.5489,3.5489,3.5489,3.5489,3.5489,3.5489,3.5489,3.5489,3.5489,3.4706,3.3171,3.2912,3.2639,3.2186,3.1923,3.1037,2.9448,2.9355,2.9064,2.8555,2.811,2.7684,2.7297,2.7241,2.6958,2.6452,2.7389,2.788,2.7739,2.8282,2.844,2.8062,2.7286,2.6796,2.6714,2.6832,2.6691,2.6214,2.7042,2.7996,2.895,2.9038,2.9289,2.9741,2.9779,2.9779,2.9779,2.9779,2.9779,2.9779,2.9779,2.9779,2.9779,2.9779,2.9779,2.9779,2.9779,2.9779,2.9779,2.9779,2.9779,2.9779,2.9779,2.9779,2.9779,2.9779,2.9779,2.9779,2.9779,2.9779,2.9779,2.9779,2.9779,2.9779,2.9779,2.9779,2.9779,2.9779,2.9779,2.9779,2.9779,2.9779,2.9779,2.9779,2.9779,2.9779,2.9779,2.9779,4.3305,4.329,4.32,4.2836,4.2261,4.2171,4.1384,4.0232,3.9664,3.9388,3.9373,3.932,3.929,3.92,3.7883,3.727,3.7195,3.6043,3.5489,3.5489,3.5489,3.5489,3.5489,3.5489,3.5489,3.5489,3.5489,3.5489,3.5489,3.5489,3.5489,3.5489,3.5489,3.5489,3.5489,3.5489,3.5359,3.5082,3.4259,3.3765,3.3665,3.2456,3.1405,3.0616,3.0304,2.9833,2.9232,2.9737,3.0017,2.995,2.9935,2.988,2.9794,2.9441,2.9304,2.929,2.9374,2.985,3.0791,3.0159,2.9512,2.9056,2.873,2.8512,2.8449,2.8562,2.8976,2.9591,2.9641,2.9691,2.9779,2.9779,2.9779,2.9779,2.9779,2.9779,2.9779,2.9779,2.9779,2.9779,2.9779,2.9779,2.9779,2.9779,2.9779,2.9779,2.9779,2.9779,2.9779,2.9779,2.9779,2.9779,2.9779,2.9779,2.9779,2.9779,2.9779,2.9779,2.9779,2.9779,2.9779,2.9779,2.9779,2.9779,2.9779,2.9779,2.9779,2.9779,2.9779,2.9779,2.9779,2.9779,2.9779,2.9779,2.9779,4.3618,4.3319,4.3305,4.2955,4.2351,4.1647,4.095,4.0352,3.9709,3.9388,3.9388,3.9388,3.9388,3.9298,3.8377,3.7734,3.736,3.6447,3.5848,3.5504,3.5489,3.5489,3.5489,3.5489,3.5489,3.5489,3.5489,3.5489,3.5489,3.5489,3.5489,3.5489,3.5489,3.5489,3.5489,3.5489,3.5489,3.5504,3.5067,3.4806,3.4806,3.4166,3.3487,3.2836,3.2315,3.1735,3.1073,3.1039,3.0896,3.0522,3.0492,3.0492,3.0492,3.0238,3.0402,3.1106,3.118,3.1584,3.2542,3.1801,3.1154,3.0766,3.0579,3.0382,3.0156,2.9669,2.9503,2.9767,2.9779,2.9779,2.9779,2.9779,2.9779,2.9779,2.9779,2.9779,2.9779,2.9779,2.9779,2.9779,2.9779,2.9779,2.9779,2.9779,2.9779,2.9779,2.9779,2.9779,2.9779,2.9779,2.9779,2.9779,2.9779,2.9779,2.9779,2.9779,2.9779,2.9779,2.9779,2.9779,2.9779,2.9779,2.9779,2.9779,2.9779,2.9779,2.9779,2.9779,2.9779,2.9779,2.9779,2.9779,2.9779,2.9779,2.9779,4.3888,4.3305,4.3305,4.303,4.2476,4.1339,4.0771,4.0561,3.9933,3.9559,3.9403,3.9388,3.9388,3.9313,3.8691,3.8108,3.7569,3.6821,3.6207,3.5744,3.5579,3.5489,3.5489,3.5489,3.5489,3.5489,3.5489,3.5489,3.5489,3.5489,3.5489,3.5489,3.5489,3.5489,3.5489,3.5489,3.5489,3.5489,3.5489,3.5489,3.5489,3.5489,3.519,3.4533,3.3978,3.341,3.2751,3.2243,3.1705,3.1225,3.118,3.118,3.118,3.118,3.1644,3.2602,3.2736,3.3021,3.3618,3.3045,3.253,3.231,3.2111,3.185,3.1506,3.0658,2.9998,2.983,2.9779,2.9779,2.9779,2.9779,2.9779,2.9779,2.9779,2.9779,2.9779,2.9779,2.9779,2.9779,2.9779,2.9779,2.9779,2.9779,2.9779,2.9779,2.9779,2.9779,2.9779,2.9779,2.9779,2.9779,2.9779,2.9779,2.9779,2.9779,2.9779,2.9779,2.9779,2.9779,2.9779,2.9779,2.9779,2.9779,2.9779,2.9779,2.9779,2.9779,2.9779,2.9779,2.9779,2.9779,2.9779,2.9779,2.9779,4.3902,4.3349,4.3305,4.3275,4.3095,4.2447,4.1841,4.1235,4.0576,3.9926,3.9448,3.9388,3.9388,3.9284,3.8706,3.8362,3.8167,3.703,3.6462,3.6312,3.5774,3.5489,3.5504,3.5489,3.5489,3.5489,3.5489,3.5489,3.5489,3.5489,3.5489,3.5489,3.5489,3.5489,3.5489,3.5489,3.5489,3.5489,3.5489,3.5489,3.5489,3.5489,3.5175,3.4518,3.4459,3.4114,3.344,3.335,3.3275,3.323,3.317,3.3185,3.3185,3.32,3.326,3.3395,3.341,3.3694,3.4306,3.4065,3.3825,3.3742,3.3059,3.2581,3.2437,3.1633,3.0696,3.0062,2.9818,2.9779,2.9779,2.9779,2.9779,2.9779,2.9779,2.9779,2.9779,2.9779,2.9779,2.9779,2.9779,2.9779,2.9779,2.9779,2.9779,2.9779,2.9779,2.9779,2.9779,2.9779,2.9779,2.9779,2.9779,2.9779,2.9779,2.9779,2.9779,2.9779,2.9779,2.9779,2.9779,2.9779,2.9779,2.9779,2.9779,2.9779,2.9779,2.9779,2.9779,2.9779,2.9779,2.9779,2.9779,2.9779,2.9779,4.4287,4.3319,4.3305,4.3305,4.3215,4.2641,4.2246,4.1916,4.0846,4.0247,3.9963,3.9589,3.9388,3.9358,3.9125,3.8796,3.8362,3.7838,3.718,3.6555,3.6207,3.5878,3.5519,3.5489,3.5489,3.5489,3.5489,3.5489,3.5489,3.5489,3.5489,3.5489,3.5489,3.5489,3.5489,3.5489,3.5489,3.5489,3.5489,3.5489,3.5489,3.5489,3.537,3.5085,3.4728,3.4399,3.4099,3.3724,3.3499,3.3499,3.3499,3.3499,3.3499,3.3499,3.3679,3.4053,3.4457,3.4801,3.507,3.4937,3.4887,3.4887,3.4543,3.4075,3.3484,3.3066,3.2249,3.0846,3.0101,2.9779,2.9779,2.9779,2.9779,2.9779,2.9779,2.9779,2.9779,2.9779,2.9779,2.9779,2.9779,2.9779,2.9779,2.9779,2.9779,2.9779,2.9779,2.9779,2.9779,2.9779,2.9779,2.9779,2.9779,2.9779,2.9779,2.9779,2.9779,2.9779,2.9779,2.9779,2.9779,2.9779,2.9779,2.9779,2.9779,2.9779,2.9779,2.9779,2.9779,2.9779,2.9779,2.9779,2.9779,2.9779,2.9779,4.4631,4.3604,4.3379,4.3305,4.326,4.2836,4.256,4.2276,4.1145,4.0591,4.0337,3.9672,3.9388,3.9388,3.9388,3.914,3.8691,3.8482,3.7913,3.703,3.6836,3.6402,3.5818,3.5774,3.5684,3.5519,3.5489,3.5489,3.5489,3.5489,3.5489,3.5489,3.5489,3.5489,3.5489,3.5489,3.5489,3.5489,3.5489,3.5489,3.5489,3.5489,3.5489,3.5444,3.5026,3.4788,3.4788,3.4292,3.4053,3.4053,3.4053,3.4053,3.4053,3.4053,3.4262,3.4758,3.522,3.5489,3.5489,3.5489,3.5489,3.5489,3.5489,3.5213,3.4543,3.4177,3.3429,3.22,3.1132,3.0495,2.9818,2.9779,2.9779,2.9779,2.9779,2.9779,2.9779,2.9779,2.9779,2.9779,2.9779,2.9779,2.9779,2.9779,2.9779,2.9779,2.9779,2.9779,2.9779,2.9779,2.9779,2.9779,2.9779,2.9779,2.9779,2.9779,2.9779,2.9779,2.9779,2.9779,2.9779,2.9779,2.9779,2.9779,2.9779,2.9779,2.9779,2.9779,2.9779,2.9779,2.9779,2.9779,2.9779,2.9779,2.9779,4.49,4.4157,4.3559,4.3305,4.329,4.3245,4.2925,4.241,4.1677,4.0995,4.0412,3.9753,3.9403,3.9388,3.9388,3.9373,3.9239,3.8721,3.8362,3.8138,3.7629,3.7045,3.6495,3.6465,3.6103,3.5534,3.5489,3.5489,3.5489,3.5489,3.5489,3.5489,3.5489,3.5489,3.5489,3.5489,3.5489,3.5489,3.5489,3.5489,3.5489,3.5489,3.5489,3.5489,3.5459,3.54,3.5415,3.5415,3.537,3.5385,3.5325,3.5355,3.537,3.5355,3.5355,3.5429,3.5459,3.5489,3.5489,3.5489,3.5489,3.5489,3.5489,3.5472,3.5279,3.4576,3.3993,3.3808,3.2855,3.1733,3.0279,3.0037,2.9856,2.9779,2.9779,2.9779,2.9779,2.9779,2.9779,2.9779,2.9779,2.9779,2.9779,2.9779,2.9779,2.9779,2.9779,2.9779,2.9779,2.9779,2.9779,2.9779,2.9779,2.9779,2.9779,2.9779,2.9779,2.9779,2.9779,2.9779,2.9779,2.9779,2.9779,2.9779,2.9779,2.9779,2.9779,2.9779,2.9779,2.9779,2.9779,2.9779,2.9779,2.9779,2.9779,4.4661,4.3633,4.3394,4.3305,4.3305,4.3305,4.314,4.2925,4.2336,4.1677,4.0995,4.0337,3.9813,3.9388,3.9388,3.9388,3.9358,3.9155,3.8811,3.8407,3.8138,3.7494,3.6552,3.6492,3.6148,3.5579,3.5489,3.5489,3.5489,3.5489,3.5489,3.5489,3.5489,3.5489,3.5489,3.5489,3.5489,3.5489,3.5489,3.5489,3.5489,3.5489,3.5489,3.5489,3.5489,3.5489,3.5489,3.5489,3.5489,3.5489,3.5489,3.5489,3.5489,3.5489,3.5489,3.5489,3.5489,3.5489,3.5489,3.5489,3.5489,3.5489,3.5489,3.5489,3.5457,3.5148,3.4677,3.4109,3.3788,3.2855,3.1865,3.1095,3.0457,2.9934,2.9792,2.9818,2.9779,2.9779,2.9779,2.9779,2.9779,2.9779,2.9779,2.9779,2.9779,2.9779,2.9779,2.9779,2.9779,2.9779,2.9779,2.9779,2.9779,2.9779,2.9779,2.9779,2.9779,2.9779,2.9779,2.9779,2.9779,2.9779,2.9779,2.9779,2.9779,2.9779,2.9779,2.9779,2.9779,2.9779,2.9779,2.9779,2.9779,2.9779,2.9779,4.4526,4.3394,4.3305,4.3305,4.3305,4.3305,4.3305,4.3215,4.2641,4.2036,4.1392,4.0696,4.0053,3.9463,3.9388,3.9388,3.9388,3.9373,3.917,3.8751,3.8721,3.8138,3.7225,3.6881,3.6462,3.5863,3.5594,3.5489,3.5489,3.5489,3.5489,3.5489,3.5489,3.5489,3.5489,3.5489,3.5489,3.5489,3.5489,3.5489,3.5489,3.5489,3.5489,3.5489,3.5489,3.5489,3.5489,3.5489,3.5489,3.5489,3.5489,3.5489,3.5489,3.5489,3.5489,3.5489,3.5489,3.5489,3.5489,3.5489,3.5489,3.5489,3.5489,3.5489,3.5489,3.5489,3.5133,3.4658,3.4476,3.4109,3.322,3.25,3.1623,3.057,3.0254,3.0101,2.9856,2.9779,2.9779,2.9779,2.9779,2.9779,2.9779,2.9779,2.9779,2.9779,2.9779,2.9779,2.9779,2.9779,2.9779,2.9779,2.9779,2.9779,2.9779,2.9779,2.9779,2.9779,2.9779,2.9779,2.9779,2.9779,2.9779,2.9779,2.9779,2.9779,2.9779,2.9779,2.9779,2.9779,2.9779,2.9779,2.9779,2.9779,2.9779,4.4526,4.3379,4.3305,4.3305,4.3305,4.3305,4.3305,4.32,4.2686,4.2111,4.1354,4.0741,4.0113,3.9493,3.9388,3.9388,3.9388,3.9388,3.9358,3.9284,3.9298,3.896,3.8212,3.7659,3.7045,3.6387,3.5818,3.5519,3.5504,3.5564,3.5579,3.5504,3.5489,3.5489,3.5489,3.5489,3.5489,3.5489,3.5489,3.5489,3.5489,3.5489,3.5489,3.5489,3.5489,3.5489,3.5489,3.5489,3.5489,3.5489,3.5489,3.5489,3.5489,3.5489,3.5489,3.5489,3.5489,3.5489,3.5489,3.5489,3.5489,3.5489,3.5489,3.5489,3.5489,3.5504,3.5439,3.5344,3.5326,3.5034,3.4211,3.391,3.3136,3.1573,3.123,3.0871,3.0241,2.9856,2.9818,2.9895,2.9869,2.9779,2.9779,2.9779,2.9779,2.9779,2.9779,2.9779,2.9779,2.9779,2.9779,2.9779,2.9779,2.9779,2.9779,2.9779,2.9779,2.9779,2.9779,2.9779,2.9779,2.9779,2.9779,2.9779,2.9779,2.9779,2.9779,2.9779,2.9779,2.9779,2.9779,2.9779,2.9779,2.9779,2.9779,4.4526,4.3349,4.3305,4.3305,4.3305,4.3305,4.3305,4.329,4.3105,4.2417,4.1474,4.116,4.0472,3.9604,3.9388,3.9388,3.9388,3.9388,3.9388,3.9388,3.9388,3.9065,3.8467,3.8182,3.7524,3.6611,3.6297,3.5938,3.5684,3.5953,3.5983,3.5594,3.5504,3.5489,3.5489,3.5489,3.5489,3.5489,3.5489,3.5489,3.5489,3.5489,3.5489,3.5489,3.5489,3.5489,3.5489,3.5489,3.5489,3.5489,3.5489,3.5489,3.5489,3.5489,3.5489,3.5489,3.5489,3.5489,3.5489,3.5489,3.5489,3.5489,3.5489,3.5489,3.5489,3.5489,3.5489,3.5489,3.5504,3.5326,3.5085,3.5019,3.4158,3.2379,3.2128,3.2033,3.1573,3.1119,3.0809,3.0709,3.0216,2.9818,2.9779,2.9779,2.9779,2.9779,2.9779,2.9779,2.9779,2.9779,2.9779,2.9779,2.9779,2.9779,2.9779,2.9779,2.9779,2.9779,2.9779,2.9779,2.9779,2.9779,2.9779,2.9779,2.9779,2.9779,2.9779,2.9779,2.9779,2.9779,2.9779,2.9779,2.9779,2.9779,2.9779,4.4676,4.3648,4.3394,4.3305,4.3305,4.3305,4.3305,4.3305,4.3305,4.2596,4.1564,4.1422,4.0651,3.9597,3.9388,3.9388,3.9388,3.9388,3.9388,3.9388,3.9388,3.9155,3.8736,3.8482,3.7883,3.7015,3.6836,3.6626,3.6237,3.6357,3.6267,3.5923,3.5639,3.5489,3.5489,3.5489,3.5489,3.5489,3.5489,3.5489,3.5489,3.5489,3.5489,3.5489,3.5489,3.5489,3.5489,3.5489,3.5489,3.5489,3.5489,3.5489,3.5489,3.5489,3.5489,3.5489,3.5489,3.5489,3.5489,3.5489,3.5489,3.5489,3.5489,3.5489,3.5489,3.5489,3.5489,3.5489,3.5489,3.5489,3.5489,3.5489,3.4872,3.3871,3.3325,3.2996,3.2629,3.2092,3.1536,3.1193,3.0696,3.0241,2.9895,2.9779,2.9779,2.9779,2.9779,2.9779,2.9779,2.9779,2.9818,2.9818,2.9779,2.9779,2.9779,2.9779,2.9779,2.9779,2.9779,2.9779,2.9779,2.9779,2.9779,2.9779,2.9779,2.9779,2.9779,2.9779,2.9779,2.9779,2.9779,2.9779,2.9779,2.9779,2.9779,4.4915,4.4257,4.3559,4.3305,4.3305,4.3305,4.3305,4.3305,4.3305,4.2641,4.1669,4.1452,4.0711,3.9694,3.9448,3.9388,3.9388,3.9388,3.9388,3.9388,3.9388,3.9313,3.9209,3.8676,3.8048,3.7554,3.7464,3.7389,3.7165,3.6941,3.6552,3.6372,3.5893,3.5534,3.5519,3.5489,3.5489,3.5489,3.5489,3.5489,3.5489,3.5489,3.5489,3.5489,3.5489,3.5489,3.5489,3.5489,3.5489,3.5489,3.5489,3.5489,3.5489,3.5489,3.5489,3.5489,3.5489,3.5489,3.5489,3.5489,3.5489,3.5489,3.5489,3.5489,3.5489,3.5489,3.5489,3.5489,3.5489,3.5489,3.5489,3.5489,3.5392,3.5359,3.4543,3.3788,3.2961,3.277,3.2415,3.1742,3.1315,3.1007,3.0317,3.0216,3.0139,2.9998,3.0037,3.0062,3.0062,3.0101,2.9972,3.0011,3.0126,3.0165,3.0305,2.983,2.9895,3.0241,3.0062,2.9818,2.9779,2.9779,2.9779,2.9779,2.9779,2.9779,2.9779,2.9779,2.9779,2.9779,2.9779,2.9779,2.9779,2.9779,2.9779,4.4915,4.4272,4.3559,4.3305,4.3305,4.3305,4.3305,4.3305,4.3305,4.2865,4.2156,4.1579,4.0935,4.0127,3.9634,3.9388,3.9388,3.9388,3.9388,3.9388,3.9388,3.9388,3.929,3.8736,3.8317,3.8153,3.8123,3.7883,3.7464,3.7689,3.736,3.6507,3.6312,3.5953,3.5594,3.5489,3.5489,3.5489,3.5489,3.5489,3.5489,3.5489,3.5489,3.5489,3.5489,3.5489,3.5489,3.5489,3.5489,3.5489,3.5489,3.5489,3.5489,3.5489,3.5489,3.5489,3.5489,3.5489,3.5489,3.5489,3.5489,3.5489,3.5489,3.5489,3.5489,3.5489,3.5489,3.5489,3.5489,3.5489,3.5489,3.5489,3.5489,3.5472,3.5166,3.492,3.4591,3.4075,3.3484,3.3241,3.2629,3.2119,3.1806,3.1659,3.1462,3.102,3.0846,3.0846,3.0846,3.0833,3.0846,3.0833,3.0895,3.0857,3.0696,3.0139,3.0075,3.062,3.0444,2.9895,2.9856,2.9779,2.9779,2.9779,2.9779,2.9779,2.9779,2.9779,2.9779,2.9779,2.9779,2.9779,2.9779,2.9779,2.9779,4.5065,4.4646,4.3678,4.3305,4.3305,4.3305,4.3305,4.3305,4.329,4.297,4.241,4.2021,4.1265,4.0397,4.0008,3.9627,3.9418,3.9388,3.9388,3.9388,3.9388,3.9388,3.9284,3.896,3.8826,3.8826,3.8811,3.8616,3.8317,3.8392,3.7793,3.7015,3.6611,3.6133,3.5534,3.5489,3.5504,3.5489,3.5489,3.5489,3.5489,3.5489,3.5489,3.5489,3.5489,3.5489,3.5489,3.5489,3.5489,3.5489,3.5489,3.5489,3.5489,3.5489,3.5489,3.5489,3.5489,3.5489,3.5489,3.5489,3.5489,3.5489,3.5489,3.5489,3.5489,3.5489,3.5489,3.5489,3.5489,3.5489,3.5489,3.5489,3.5489,3.5504,3.5489,3.5489,3.5489,3.4953,3.4476,3.4027,3.3518,3.2982,3.27,3.2629,3.2343,3.196,3.1792,3.1792,3.1792,3.1779,3.1779,3.1779,3.1779,3.1779,3.1742,3.1304,3.0996,3.1402,3.1291,3.0633,3.0177,3.0062,2.996,2.9998,2.9895,2.9818,2.9882,2.9882,2.9779,2.9779,2.9779,2.9818,2.9856,2.9998,2.996,4.5289,4.5185,4.3843,4.3305,4.3305,4.3305,4.3305,4.3305,4.3305,4.303,4.2605,4.244,4.1662,4.0516,4.0382,3.9986,3.9403,3.9388,3.9388,3.9388,3.9388,3.9388,3.9373,3.9313,3.9305,3.9305,3.9373,3.9313,3.9074,3.8751,3.8197,3.7584,3.7015,3.6402,3.5998,3.5744,3.5609,3.5654,3.5549,3.5504,3.5489,3.5489,3.5489,3.5489,3.5489,3.5489,3.5489,3.5489,3.5489,3.5489,3.5489,3.5489,3.5489,3.5489,3.5489,3.5489,3.5489,3.5489,3.5489,3.5489,3.5489,3.5489,3.5489,3.5489,3.5489,3.5489,3.5489,3.5489,3.5489,3.5489,3.5489,3.5489,3.5489,3.5489,3.5489,3.5489,3.5489,3.5504,3.5133,3.4327,3.4163,3.3705,3.3206,3.289,3.289,3.2855,3.2749,3.2749,3.2749,3.2735,3.2735,3.2735,3.2735,3.2735,3.2664,3.2522,3.2321,3.2307,3.2236,3.1756,3.0945,3.0709,3.0432,3.0394,3.0809,3.0671,3.0203,3.0139,3.0062,2.9921,3.0037,3.0037,3.0037,3.0266,3.0343,4.5289,4.5185,4.3843,4.3305,4.3305,4.3305,4.3305,4.3305,4.3305,4.3185,4.3015,4.2635,4.1976,4.1145,4.0681,4.0053,3.9529,3.9403,3.9388,3.9388,3.9388,3.9388,3.9388,3.9388,3.9388,3.9388,3.9388,3.9388,3.9298,3.9164,3.8841,3.8182,3.7898,3.7614,3.6971,3.6387,3.6282,3.6193,3.5774,3.5504,3.5489,3.5489,3.5489,3.5489,3.5489,3.5489,3.5489,3.5489,3.5489,3.5489,3.5489,3.5489,3.5489,3.5489,3.5489,3.5489,3.5489,3.5489,3.5489,3.5489,3.5489,3.5489,3.5489,3.5489,3.5489,3.5489,3.5489,3.5489,3.5489,3.5489,3.5489,3.5489,3.5489,3.5489,3.5489,3.5489,3.5489,3.5489,3.5326,3.5213,3.51,3.5067,3.4854,3.4658,3.4409,3.3891,3.3705,3.3705,3.3705,3.3705,3.3705,3.3705,3.3705,3.3705,3.365,3.3533,3.3394,3.3325,3.3255,3.3136,3.2335,3.1915,3.1878,3.1951,3.2083,3.1683,3.0983,3.0871,3.0908,3.0633,3.0419,3.0709,3.0908,3.0908,3.0895,4.5289,4.5155,4.3843,4.3305,4.3305,4.3305,4.3305,4.3305,4.3305,4.3305,4.323,4.294,4.2485,4.1841,4.116,4.0502,3.9903,3.9508,3.9388,3.9388,3.9388,3.9388,3.9388,3.9388,3.9388,3.9388,3.9388,3.9388,3.9388,3.9328,3.9035,3.8437,3.8392,3.7958,3.7419,3.6821,3.6492,3.6342,3.5848,3.5489,3.5489,3.5489,3.5489,3.5489,3.5489,3.5489,3.5489,3.5489,3.5489,3.5489,3.5489,3.5489,3.5489,3.5489,3.5489,3.5489,3.5489,3.5489,3.5489,3.5489,3.5489,3.5489,3.5489,3.5489,3.5489,3.5489,3.5489,3.5489,3.5489,3.5489,3.5489,3.5489,3.5489,3.5489,3.5489,3.5489,3.5489,3.5489,3.5489,3.5489,3.5424,3.5424,3.5457,3.5489,3.5392,3.4658,3.4658,3.4643,3.4691,3.4725,3.4725,3.4725,3.4725,3.4691,3.4624,3.4524,3.4375,3.4375,3.4423,3.4409,3.409,3.3802,3.3616,3.3325,3.289,3.2464,3.1888,3.1852,3.1792,3.1696,3.1659,3.1792,3.1865,3.1865,3.1852,4.5244,4.505,4.3798,4.3305,4.3305,4.3305,4.3305,4.3305,4.3305,4.3305,4.3305,4.3305,4.2865,4.2336,4.1662,4.098,4.0232,3.9738,3.9388,3.9388,3.9388,3.9388,3.9388,3.9388,3.9388,3.9388,3.9388,3.9388,3.9388,3.9358,3.9155,3.8646,3.8571,3.8422,3.7764,3.7,3.6716,3.6641,3.5938,3.5489,3.5489,3.5489,3.5489,3.5489,3.5489,3.5489,3.5489,3.5489,3.5489,3.5489,3.5489,3.5489,3.5489,3.5489,3.5489,3.5489,3.5489,3.5489,3.5489,3.5489,3.5489,3.5489,3.5489,3.5489,3.5489,3.5489,3.5489,3.5489,3.5489,3.5489,3.5489,3.5489,3.5489,3.5489,3.5489,3.5489,3.5489,3.5489,3.5489,3.5489,3.5489,3.5489,3.5489,3.5489,3.5489,3.5489,3.5489,3.5489,3.5489,3.5457,3.5311,3.5246,3.5166,3.5133,3.51,3.5034,3.4953,3.4968,3.518,3.518,3.5213,3.492,3.4409,3.3822,3.3359,3.3101,3.2947,3.2806,3.2784,3.2784,3.2784,3.282,3.282,3.282,3.282,4.4975,4.4421,4.3604,4.3305,4.3305,4.3305,4.3305,4.3305,4.3305,4.3305,4.3305,4.329,4.2985,4.241,4.1722,4.0756,3.9948,3.9493,3.9388,3.9388,3.9388,3.9388,3.9388,3.9388,3.9388,3.9388,3.9388,3.9388,3.9388,3.9373,3.9305,3.923,3.9185,3.9014,3.8661,3.7958,3.7225,3.6985,3.6163,3.5624,3.5504,3.5489,3.5489,3.5489,3.5489,3.5489,3.5489,3.5489,3.5489,3.5489,3.5489,3.5489,3.5489,3.5489,3.5489,3.5489,3.5489,3.5489,3.5489,3.5489,3.5489,3.5489,3.5489,3.5489,3.5489,3.5489,3.5489,3.5489,3.5489,3.5489,3.5489,3.5489,3.5489,3.5489,3.5489,3.5489,3.5489,3.5489,3.5489,3.5489,3.5489,3.5489,3.5489,3.5489,3.5489,3.5489,3.5489,3.5489,3.5489,3.5489,3.5457,3.5424,3.5457,3.5424,3.5424,3.5392,3.5311,3.5279,3.5359,3.5359,3.5392,3.5424,3.5052,3.4509,3.4361,3.4375,3.4177,3.3842,3.3567,3.3429,3.3567,3.3774,3.3774,3.3788,3.3788,4.4601,4.4257,4.3574,4.3305,4.3305,4.3305,4.3305,4.3305,4.3305,4.3305,4.3305,4.3275,4.318,4.2746,4.2231,4.1175,4.0142,3.9493,3.9403,3.9388,3.9388,3.9388,3.9388,3.9388,3.9388,3.9388,3.9388,3.9388,3.9388,3.9388,3.9388,3.9373,3.9388,3.9388,3.9194,3.8422,3.7764,3.73,3.6492,3.5804,3.5534,3.5489,3.5489,3.5489,3.5489,3.5489,3.5489,3.5489,3.5489,3.5489,3.5489,3.5489,3.5489,3.5489,3.5489,3.5489,3.5489,3.5489,3.5489,3.5489,3.5489,3.5489,3.5489,3.5489,3.5489,3.5489,3.5489,3.5489,3.5489,3.5489,3.5489,3.5489,3.5489,3.5489,3.5489,3.5489,3.5489,3.5489,3.5489,3.5489,3.5489,3.5489,3.5489,3.5489,3.5489,3.5489,3.5489,3.5489,3.5489,3.5489,3.5489,3.5489,3.5489,3.5489,3.5489,3.5489,3.5489,3.5489,3.5489,3.5489,3.5489,3.5489,3.5489,3.5246,3.5279,3.5213,3.5133,3.4725,3.4394,3.4143,3.4428,3.4643,3.4725,3.4758,3.4658,4.4227,4.4022,4.3499,4.3305,4.3305,4.3305,4.3305,4.3305,4.3305,4.3305,4.3305,4.3305,4.329,4.3065,4.2417,4.1497,4.0367,3.9709,3.9403,3.9388,3.9388,3.9388,3.9388,3.9388,3.9388,3.9388,3.9388,3.9388,3.9388,3.9388,3.9388,3.9388,3.9388,3.9388,3.9209,3.8661,3.8078,3.7434,3.6791,3.6163,3.5654,3.5489,3.5489,3.5489,3.5489,3.5489,3.5489,3.5489,3.5489,3.5489,3.5489,3.5489,3.5489,3.5489,3.5489,3.5489,3.5489,3.5489,3.5489,3.5489,3.5489,3.5489,3.5489,3.5489,3.5489,3.5489,3.5489,3.5489,3.5489,3.5489,3.5489,3.5489,3.5489,3.5489,3.5489,3.5489,3.5489,3.5489,3.5489,3.5489,3.5489,3.5489,3.5489,3.5489,3.5489,3.5489,3.5489,3.5489,3.5489,3.5489,3.5489,3.5489,3.5489,3.5489,3.5489,3.5489,3.5489,3.5489,3.5489,3.5489,3.5489,3.5489,3.5489,3.5489,3.5457,3.5392,3.5457,3.5489,3.5085,3.4953,3.5344,3.5424,3.5231,3.5198,3.5166,4.3932,4.3409,4.3334,4.3305,4.3305,4.3305,4.3305,4.3305,4.3305,4.3305,4.3305,4.3305,4.3305,4.3021,4.2058,4.113,4.0412,3.9753,3.9388,3.9388,3.9388,3.9388,3.9388,3.9388,3.9388,3.9388,3.9388,3.9388,3.9388,3.9388,3.9388,3.9388,3.9388,3.9388,3.9313,3.8856,3.8063,3.7419,3.6791,3.6148,3.5624,3.5489,3.5489,3.5489,3.5489,3.5489,3.5489,3.5489,3.5489,3.5489,3.5489,3.5489,3.5489,3.5489,3.5489,3.5489,3.5489,3.5489,3.5489,3.5489,3.5489,3.5489,3.5489,3.5489,3.5489,3.5489,3.5489,3.5489,3.5489,3.5489,3.5489,3.5489,3.5489,3.5489,3.5489,3.5489,3.5489,3.5489,3.5489,3.5489,3.5489,3.5489,3.5489,3.5489,3.5489,3.5489,3.5489,3.5489,3.5489,3.5489,3.5489,3.5489,3.5489,3.5489,3.5489,3.5489,3.5489,3.5489,3.5489,3.5489,3.5489,3.5489,3.5489,3.5489,3.5489,3.5489,3.5489,3.5489,3.5489,3.5489,3.5489,3.5489,3.5457,3.5489,3.5489,4.3544,4.3305,4.3305,4.3305,4.3305,4.3305,4.3305,4.3305,4.3305,4.3305,4.3305,4.3305,4.3305,4.3021,4.1968,4.1265,4.0771,3.9903,3.9403,3.9388,3.9388,3.9388,3.9388,3.9388,3.9388,3.9388,3.9388,3.9388,3.9388,3.9388,3.9388,3.9388,3.9388,3.9388,3.9388,3.914,3.8362,3.7464,3.6507,3.5833,3.5579,3.5504,3.5504,3.5504,3.5504,3.5504,3.5519,3.5489,3.5489,3.5489,3.5489,3.5489,3.5489,3.5489,3.5489,3.5489,3.5489,3.5489,3.5489,3.5489,3.5489,3.5489,3.5489,3.5489,3.5489,3.5489,3.5489,3.5489,3.5489,3.5489,3.5489,3.5489,3.5489,3.5489,3.5489,3.5489,3.5489,3.5489,3.5489,3.5489,3.5489,3.5489,3.5489,3.5489,3.5489,3.5489,3.5489,3.5489,3.5489,3.5489,3.5489,3.5489,3.5489,3.5489,3.5489,3.5489,3.5489,3.5489,3.5489,3.5489,3.5489,3.5489,3.5489,3.5489,3.5489,3.5489,3.5489,3.5489,3.5489,3.5489,3.5489,3.5489,3.5489,3.5489,3.5489,4.3305,4.3305,4.3305,4.3305,4.3305,4.3305,4.3305,4.3305,4.3305,4.3305,4.3305,4.3305,4.3305,4.3065,4.2207,4.1602,4.128,4.0172,3.9597,3.9448,3.9388,3.9388,3.9388,3.9388,3.9388,3.9388,3.9388,3.9388,3.9388,3.9388,3.9388,3.9388,3.9388,3.9388,3.9388,3.9239,3.8736,3.7434,3.6417,3.5908,3.5774,3.5579,3.5639,3.5654,3.5624,3.5579,3.5714,3.5534,3.5504,3.6043,3.5639,3.5579,3.5759,3.5639,3.5519,3.5489,3.5489,3.5489,3.5489,3.5489,3.5489,3.5489,3.5489,3.5489,3.5489,3.5489,3.5489,3.5489,3.5489,3.5489,3.5489,3.5489,3.5489,3.5489,3.5489,3.5489,3.5489,3.5489,3.5489,3.5489,3.5489,3.5489,3.5489,3.5489,3.5489,3.5489,3.5489,3.5489,3.5489,3.5489,3.5489,3.5489,3.5489,3.5489,3.5489,3.5489,3.5489,3.5489,3.5489,3.5489,3.5489,3.5489,3.5489,3.5489,3.5489,3.5489,3.5489,3.5489,3.5489,3.5489,3.5489,3.5489,3.5489,3.5489,3.5489,4.3305,4.3305,4.3305,4.3305,4.3305,4.3305,4.3305,4.3305,4.3305,4.3305,4.3305,4.3305,4.3305,4.3095,4.2566,4.1916,4.1392,4.0651,3.9993,3.9574,3.9388,3.9388,3.9388,3.9388,3.9388,3.9388,3.9388,3.9388,3.9388,3.9388,3.9388,3.9388,3.9388,3.9388,3.9343,3.9245,3.8721,3.7629,3.6761,3.6447,3.6252,3.6043,3.5923,3.6193,3.5938,3.5774,3.6327,3.5983,3.6073,3.6941,3.6148,3.5953,3.6237,3.5923,3.5714,3.5818,3.5699,3.5729,3.5789,3.5609,3.5489,3.5489,3.5489,3.5489,3.5489,3.5489,3.5489,3.5489,3.5489,3.5489,3.5489,3.5489,3.5489,3.5489,3.5489,3.5489,3.5489,3.5489,3.5489,3.5489,3.5489,3.5489,3.5489,3.5489,3.5489,3.5489,3.5489,3.5489,3.5489,3.5489,3.5489,3.5489,3.5489,3.5489,3.5489,3.5489,3.5489,3.5489,3.5489,3.5489,3.5489,3.5489,3.5489,3.5489,3.5489,3.5489,3.5489,3.5489,3.5489,3.5489,3.5489,3.5489,3.5489,3.5489,3.5489,4.3305,4.3305,4.3305,4.3305,4.3305,4.3305,4.3305,4.3305,4.3305,4.3305,4.3305,4.3305,4.3305,4.3125,4.2656,4.2036,4.1354,4.0711,4.0068,3.9619,3.9388,3.9388,3.9388,3.9388,3.9388,3.9388,3.9388,3.9388,3.9388,3.9388,3.9388,3.9388,3.9388,3.9388,3.9313,3.908,3.8512,3.8078,3.7404,3.706,3.7,3.6881,3.6791,3.6956,3.6911,3.6791,3.7,3.6836,3.703,3.706,3.6537,3.6626,3.6851,3.6417,3.6312,3.6462,3.6282,3.6282,3.6327,3.5983,3.5504,3.5489,3.5489,3.5489,3.5489,3.5489,3.5489,3.5489,3.5489,3.5489,3.5489,3.5489,3.5489,3.5489,3.5489,3.5489,3.5489,3.5489,3.5489,3.5489,3.5489,3.5489,3.5489,3.5489,3.5489,3.5489,3.5489,3.5489,3.5489,3.5489,3.5489,3.5489,3.5489,3.5489,3.5489,3.5489,3.5489,3.5489,3.5489,3.5489,3.5489,3.5489,3.5489,3.5489,3.5489,3.5489,3.5489,3.5489,3.5489,3.5489,3.5489,3.5489,3.5489,3.5489,3.5489,4.3305,4.3305,4.3305,4.3305,4.3305,4.3305,4.3305,4.3305,4.3305,4.3305,4.3305,4.3305,4.3305,4.3155,4.2895,4.2351,4.1737,4.1055,4.0367,3.9903,3.9574,3.9418,3.9388,3.9388,3.9388,3.9388,3.9388,3.9388,3.9388,3.9388,3.9388,3.9388,3.9388,3.9388,3.9305,3.8975,3.8601,3.8287,3.8003,3.7689,3.7689,3.7449,3.7539,3.7554,3.7449,3.7494,3.7524,3.7464,3.7629,3.7644,3.7419,3.718,3.724,3.724,3.7075,3.7105,3.712,3.7015,3.6985,3.6522,3.5714,3.5549,3.5489,3.5489,3.5489,3.5489,3.5489,3.5489,3.5489,3.5489,3.5489,3.5489,3.5489,3.5489,3.5489,3.5489,3.5489,3.5489,3.5489,3.5489,3.5489,3.5489,3.5489,3.5489,3.5489,3.5489,3.5489,3.5489,3.5489,3.5489,3.5489,3.5489,3.5489,3.5489,3.5489,3.5489,3.5489,3.5489,3.5489,3.5489,3.5489,3.5489,3.5489,3.5489,3.5489,3.5489,3.5489,3.5489,3.5489,3.5489,3.5489,3.5489,3.5489,3.5489,3.5489,4.3305,4.3305,4.3305,4.3305,4.3305,4.3305,4.3305,4.3305,4.3305,4.3305,4.3305,4.3305,4.3305,4.326,4.3105,4.2596,4.2036,4.1467,4.0786,4.0113,3.9604,3.9418,3.9388,3.9388,3.9388,3.9388,3.9388,3.9388,3.9388,3.9388,3.9388,3.9388,3.9388,3.9388,3.9409,3.9373,3.905,3.8512,3.8407,3.8377,3.8272,3.7928,3.8033,3.8153,3.7988,3.8033,3.8212,3.8003,3.8242,3.8641,3.7928,3.7793,3.8212,3.7734,3.7539,3.7584,3.7494,3.7419,3.736,3.6776,3.6312,3.5744,3.5639,3.5489,3.5489,3.5489,3.5489,3.5489,3.5489,3.5489,3.5489,3.5489,3.5489,3.5489,3.5489,3.5489,3.5489,3.5489,3.5489,3.5489,3.5489,3.5489,3.5489,3.5489,3.5489,3.5489,3.5489,3.5489,3.5489,3.5489,3.5489,3.5489,3.5489,3.5489,3.5489,3.5489,3.5489,3.5489,3.5489,3.5489,3.5489,3.5489,3.5489,3.5489,3.5489,3.5489,3.5489,3.5489,3.5489,3.5489,3.5489,3.5489,3.5489,3.5489,3.5489,4.3305,4.3305,4.3305,4.3305,4.3305,4.3305,4.3305,4.3305,4.3305,4.3305,4.3305,4.3305,4.3305,4.32,4.288,4.2417,4.1743,4.1025,4.0382,3.9813,3.9514,3.9418,3.9388,3.9388,3.9388,3.9388,3.9388,3.9388,3.9388,3.9388,3.9388,3.9388,3.9388,3.9388,3.9388,3.9388,3.9209,3.9125,3.908,3.9065,3.9035,3.879,3.8745,3.902,3.8751,3.8766,3.8975,3.8631,3.8895,3.9254,3.8407,3.8422,3.8781,3.8392,3.8287,3.8407,3.8407,3.7823,3.7704,3.7404,3.7259,3.6477,3.5848,3.5654,3.5519,3.5504,3.5489,3.5489,3.5489,3.5489,3.5489,3.5489,3.5489,3.5489,3.5489,3.5489,3.5489,3.5489,3.5489,3.5489,3.5489,3.5489,3.5489,3.5489,3.5489,3.5489,3.5489,3.5489,3.5489,3.5489,3.5489,3.5489,3.5489,3.5489,3.5489,3.5489,3.5489,3.5489,3.5489,3.5489,3.5489,3.5489,3.5489,3.5489,3.5489,3.5489,3.5489,3.5489,3.5489,3.5489,3.5489,3.5489,3.5489,3.5489,3.5489,4.3305,4.3305,4.3305,4.3305,4.3305,4.3305,4.3305,4.3305,4.3305,4.3305,4.3305,4.3305,4.3305,4.321,4.288,4.2381,4.1737,4.104,4.0397,3.9798,3.9499,3.9418,3.9388,3.9388,3.9388,3.9388,3.9388,3.9388,3.9388,3.9388,3.9388,3.9388,3.9388,3.9388,3.9388,3.9373,3.9373,3.9313,3.9298,3.9313,3.9313,3.9298,3.9313,3.9343,3.9313,3.9358,3.9373,3.9388,3.9388,3.9275,3.9125,3.8945,3.9125,3.914,3.899,3.9125,3.9035,3.8512,3.8407,3.8093,3.7823,3.73,3.6537,3.6103,3.5908,3.5908,3.5699,3.5609,3.5519,3.5489,3.5489,3.5489,3.5489,3.5489,3.5489,3.5489,3.5489,3.5489,3.5489,3.5489,3.5489,3.5489,3.5489,3.5489,3.5489,3.5489,3.5489,3.5489,3.5489,3.5489,3.5489,3.5489,3.5489,3.5489,3.5489,3.5489,3.5489,3.5489,3.5489,3.5489,3.5489,3.5489,3.5489,3.5489,3.5489,3.5489,3.5489,3.5489,3.5489,3.5489,3.5489,3.5489,3.5489,3.5489,3.5489,4.3305,4.3305,4.3275,4.326,4.3305,4.3305,4.3305,4.3305,4.3305,4.3305,4.3305,4.3305,4.3305,4.3275,4.3185,4.2731,4.2036,4.1407,4.0711,4.0187,3.9619,3.9463,3.9388,3.9388,3.9388,3.9388,3.9388,3.9388,3.9388,3.9388,3.9388,3.9388,3.9388,3.9388,3.9388,3.9388,3.9388,3.9388,3.9388,3.9388,3.9388,3.9388,3.9388,3.9388,3.9388,3.9388,3.9388,3.9388,3.9388,3.9358,3.9343,3.9343,3.9373,3.9388,3.9409,3.9394,3.9328,3.9224,3.9125,3.8736,3.8437,3.8033,3.7764,3.7195,3.6596,3.6267,3.6013,3.5684,3.5489,3.5489,3.5489,3.5489,3.5489,3.5489,3.5489,3.5489,3.5489,3.5489,3.5489,3.5489,3.5489,3.5489,3.5489,3.5489,3.5489,3.5489,3.5489,3.5489,3.5489,3.5489,3.5489,3.5489,3.5489,3.5489,3.5489,3.5489,3.5489,3.5489,3.5489,3.5489,3.5489,3.5489,3.5489,3.5489,3.5489,3.5489,3.5489,3.5489,3.5489,3.5489,3.5489,3.5489,3.5489,3.5489,3.5489,4.3305,4.3245,4.2836,4.2895,4.326,4.329,4.3305,4.3305,4.3305,4.3305,4.3305,4.3305,4.323,4.3245,4.2372,4.1923,4.1309,4.0621,4.0008,3.9634,3.9508,3.9418,3.9388,3.9388,3.9388,3.9388,3.9388,3.9388,3.9388,3.9388,3.9388,3.9388,3.9388,3.9388,3.9388,3.9388,3.9388,3.9388,3.9388,3.9388,3.9388,3.9388,3.9388,3.9388,3.9388,3.9388,3.9388,3.9388,3.9388,3.9388,3.9388,3.9388,3.9388,3.9388,3.9388,3.9388,3.9373,3.9358,3.9379,3.923,3.8931,3.8697,3.8622,3.7853,3.709,3.6592,3.6367,3.6057,3.5819,3.5851,3.5696,3.5619,3.5554,3.5489,3.5554,3.5686,3.5718,3.5878,3.5846,3.5653,3.5653,3.5489,3.5489,3.5489,3.5489,3.5489,3.5489,3.5489,3.5489,3.5489,3.5489,3.5489,3.5489,3.5489,3.5489,3.5489,3.5489,3.5489,3.5489,3.5489,3.5489,3.5489,3.5489,3.5489,3.5489,3.5489,3.5489,3.5489,3.5489,3.5489,3.5489,3.5489,3.5489,3.5489,3.5489,4.2566,4.2506,4.2186,4.2207,4.2521,4.2551,4.2566,4.2641,4.305,4.3305,4.3275,4.303,4.2955,4.2776,4.1908,4.1265,4.092,4.0397,3.9828,3.9478,3.9388,3.9388,3.9388,3.9388,3.9388,3.9388,3.9388,3.9388,3.9388,3.9388,3.9388,3.9388,3.9388,3.9388,3.9388,3.9388,3.9388,3.9388,3.9388,3.9388,3.9388,3.9388,3.9388,3.9388,3.9388,3.9388,3.9388,3.9388,3.9388,3.9388,3.9388,3.9388,3.9388,3.9388,3.9388,3.9388,3.9388,3.9388,3.9373,3.9388,3.914,3.9097,3.9436,3.8872,3.8284,3.7776,3.7255,3.6784,3.6539,3.6324,3.5997,3.5701,3.5619,3.5489,3.5718,3.5943,3.6133,3.6305,3.618,3.5975,3.5767,3.5587,3.5489,3.5522,3.5489,3.5489,3.5489,3.5489,3.5489,3.5489,3.5489,3.5489,3.5489,3.5489,3.5489,3.5489,3.5489,3.5489,3.5489,3.5489,3.5489,3.5522,3.5522,3.5522,3.5489,3.5489,3.5522,3.5489,3.5489,3.5489,3.5489,3.5489,3.5489,3.5489,3.5489,4.1452,4.1482,4.1422,4.1437,4.1339,4.1429,4.1474,4.1557,4.2596,4.3095,4.2946,4.2536,4.2336,4.2171,4.1474,4.0935,4.0591,4.0172,3.9768,3.9388,3.9388,3.9388,3.9388,3.9388,3.9388,3.9388,3.9388,3.9388,3.9388,3.9388,3.9388,3.9388,3.9388,3.9388,3.9388,3.9388,3.9388,3.9388,3.9388,3.9388,3.9388,3.9388,3.9388,3.9388,3.9388,3.9388,3.9388,3.9388,3.9388,3.9388,3.9388,3.9388,3.9388,3.961,3.961,3.9553,3.9574,3.9702,3.9737,3.9737,3.9688,3.9858,4.0251,3.9929,3.9441,3.8928,3.8369,3.7794,3.7515,3.7592,3.7406,3.7002,3.6753,3.663,3.6693,3.6785,3.6783,3.6935,3.6965,3.6722,3.6508,3.6305,3.6274,3.6368,3.643,3.599,3.5926,3.5958,3.5926,3.5926,3.5701,3.5668,3.5537,3.5537,3.5489,3.5489,3.5489,3.5489,3.5604,3.5489,3.5537,3.5554,3.5587,3.5604,3.5636,3.5587,3.5554,3.5522,3.5489,3.5489,3.5489,3.5489,3.5489,3.5489,3.5489,4.1422,4.1422,4.1422,4.1115,4.0741,4.1175,4.1392,4.1437,4.1683,4.1848,4.1818,4.1698,4.1609,4.1519,4.0935,4.0472,4.0337,3.9933,3.9582,3.9433,3.9388,3.9388,3.9388,3.9388,3.9388,3.9388,3.9388,3.9388,3.9388,3.9388,3.9388,3.9388,3.9388,3.9388,3.9388,3.9388,3.9388,3.9388,3.9388,3.9388,3.9388,3.9388,3.9388,3.9388,3.9388,3.9388,3.9388,3.9388,3.9388,3.9388,3.9388,3.9388,3.9388,4.0025,3.999,3.9666,4.006,4.0274,4.0274,4.0313,4.0433,4.0736,4.1068,4.0927,4.0642,4.015,3.9609,3.902,3.8764,3.8907,3.8799,3.8333,3.793,3.7832,3.7729,3.7646,3.7576,3.7616,3.7748,3.7544,3.7324,3.7175,3.7115,3.7145,3.7235,3.7265,3.7294,3.7294,3.7175,3.7071,3.6368,3.6164,3.5651,3.5569,3.5651,3.5701,3.5814,3.5975,3.618,3.5958,3.5683,3.599,3.6305,3.5926,3.5799,3.599,3.5958,3.5569,3.5569,3.5636,3.5489,3.5489,3.5489,3.5489,3.5489,4.0502,4.0502,4.0516,4.0307,4.0083,4.0367,4.0516,4.0516,4.0516,4.0516,4.0576,4.0786,4.095,4.0846,4.0262,3.9993,3.9933,3.9604,3.9448,3.9403,3.9388,3.9388,3.9388,3.9388,3.9388,3.9388,3.9388,3.9388,3.9388,3.9388,3.9388,3.9388,3.9388,3.9388,3.9388,3.9388,3.9388,3.9388,3.9388,3.9388,3.9388,3.9388,3.9388,3.9388,3.9388,3.9388,3.9388,3.9388,3.9388,3.9574,3.9773,4.0359,4.0603,4.1046,4.0792,4.0535,4.0656,4.1113,4.0979,4.1084,4.1321,4.1693,4.2148,4.213,4.1731,4.1322,4.1393,4.0883,4.0691,4.0804,4.0143,3.9613,3.9249,3.9015,3.9008,3.8995,3.8742,3.858,3.8525,3.8286,3.7962,3.756,3.7501,3.7501,3.7589,3.7573,3.7748,3.7908,3.7908,3.8121,3.7397,3.6829,3.6461,3.6399,3.6753,3.6585,3.6321,3.6523,3.6783,3.686,3.6829,3.6965,3.704,3.6722,3.6646,3.6844,3.6723,3.6227,3.6006,3.6134,3.5831,3.5489,3.5522,3.5636,3.5636,3.9433,3.9388,3.9418,3.9403,3.9388,3.9418,3.9448,3.9448,3.9418,3.9433,3.9589,4.0083,4.0247,4.0053,3.9738,3.9508,3.9403,3.9418,3.9388,3.9388,3.9388,3.9388,3.9388,3.9388,3.9388,3.9388,3.9388,3.9388,3.9388,3.9388,3.9388,3.9388,3.9388,3.9388,3.9388,3.9388,3.9388,3.9388,3.9388,3.9388,3.9388,3.9388,3.9388,3.9388,3.9388,3.9388,3.9388,3.9388,3.9388,3.9702,4.015,4.0894,4.1543,4.1901,4.156,4.133,4.1658,4.1739,4.1576,4.1853,4.2157,4.255,4.3139,4.3191,4.2775,4.2729,4.2794,4.2703,4.2497,4.2183,4.1548,4.1062,4.072,4.0394,4.0416,4.0325,4.0007,3.9711,3.9518,3.9297,3.8859,3.84,3.8149,3.8121,3.8108,3.808,3.8035,3.8064,3.825,3.8613,3.8513,3.8019,3.7645,3.7703,3.769,3.7397,3.6965,3.7249,3.7515,3.7748,3.795,3.7905,3.7847,3.7632,3.7632,3.7748,3.7469,3.704,3.6889,3.6752,3.6275,3.5975,3.6227,3.6243,3.599,3.9388,3.9388,3.9388,3.9388,3.9388,3.9388,3.9388,3.9388,3.9388,3.9388,3.9418,3.9448,3.9604,3.9619,3.9493,3.9388,3.9388,3.9388,3.9388,3.9388,3.9388,3.9388,3.9388,3.9388,3.9388,3.9388,3.9388,3.9388,3.9388,3.9388,3.9388,3.9388,3.9388,3.9388,3.9388,3.9388,3.9388,3.9388,3.9388,3.9388,3.9388,3.9388,3.9388,3.9388,3.9388,3.9388,3.9388,3.9388,3.9388,3.9646,4.0378,4.1313,4.2125,4.2707,4.2489,4.2221,4.2583,4.2707,4.2676,4.2831,4.3139,4.3693,4.4093,4.4117,4.3883,4.39,4.3934,4.3867,4.3687,4.3586,4.3087,4.2853,4.2505,4.2239,4.2108,4.1782,4.1466,4.1298,4.1144,4.0855,4.0454,3.9917,3.9401,3.9391,3.9458,3.9398,3.9305,3.9322,3.9226,3.9401,3.948,3.9129,3.869,3.8246,3.7921,3.7921,3.7719,3.7978,3.8262,3.8541,3.8707,3.869,3.858,3.8458,3.8386,3.8469,3.8145,3.7889,3.7674,3.7469,3.6843,3.6569,3.6814,3.689,3.6646]}]]